[[{"header":{"parameterUnit":"m.s-1","parameterCategory":1,"la1":30.6,"la2":29.2853,"lo1":-89.7004,"lo2":-87.6739,"dy":0.0162,"dx":0.0183,"nx":112,"ny":82,"refTime":"2023-04-26T00:00:00:Z","depth":0,"parameterNumber":2,"parameterNumberName":"U-component_of_WINDS"},"data":[0.0,0.0,0.0,0.0,0.0,0.0,0.0,0.0,0.0,0.0,0.0,0.0,0.0,0.0,0.0,0.0,0.0,0.0,0.0,0.0,0.0,0.0,0.0,0.0,0.0,0.0,0.0,0.0,0.0,0.0,0.0,0.0,0.0,0.0,0.0,0.0,0.0,0.0,0.0,0.0,0.0,0.0,0.0,0.0,0.0,0.0,0.0,0.0,0.0,0.0,0.0,0.0,0.0,0.0,0.0,0.0,0.0,0.0,0.0,0.0,0.0,0.0,0.0,0.0,0.0,0.0,0.0,0.0,0.0,0.0,0.0,0.0,0.0,0.0,0.0,0.0,0.0,0.0,0.0,0.0,0.0,0.0,0.0,0.0,0.0,0.0,0.0,0.0,0.0,0.0,-2.4895,-3.0363,-3.6132,-3.7767,-3.3239,-3.2412,-2.8608,-2.0369,0.0,0.0,0.0,0.0,0.0,0.0,0.0,0.0,0.0,0.0,0.0,0.0,0.0,0.0,0.0,0.0,0.0,0.0,0.0,0.0,0.0,0.0,0.0,0.0,0.0,0.0,0.0,0.0,0.0,0.0,0.0,0.0,0.0,0.0,0.0,0.0,0.0,0.0,0.0,0.0,0.0,0.0,0.0,0.0,0.0,0.0,0.0,0.0,0.0,0.0,0.0,0.0,0.0,0.0,0.0,0.0,0.0,0.0,0.0,0.0,0.0,0.0,0.0,0.0,0.0,0.0,0.0,0.0,0.0,0.0,0.0,0.0,0.0,0.0,0.0,0.0,0.0,0.0,0.0,0.0,0.0,0.0,0.0,0.0,0.0,0.0,0.0,0.0,0.0,0.0,0.0,0.0,0.0,0.0,0.0,0.0,0.0,0.0,0.0,0.0,0.0,0.0,0.0,0.0,-2.616,-3.3944,-3.6265,-3.6277,-3.3755,-3.0503,-2.6287,-2.0884,0.0,0.0,0.0,0.0,0.0,0.0,0.0,0.0,0.0,0.0,0.0,0.0,0.0,0.0,0.0,0.0,0.0,0.0,0.0,0.0,0.0,0.0,0.0,0.0,0.0,0.0,0.0,0.0,0.0,0.0,0.0,0.0,0.0,0.0,0.0,0.0,0.0,0.0,0.0,0.0,0.0,0.0,0.0,0.0,0.0,0.0,0.0,0.0,0.0,0.0,0.0,0.0,0.0,0.0,0.0,0.0,0.0,0.0,0.0,0.0,0.0,0.0,0.0,0.0,0.0,0.0,0.0,0.0,0.0,0.0,0.0,0.0,0.0,0.0,0.0,0.0,0.0,0.0,0.0,0.0,0.0,0.0,0.0,0.0,0.0,0.0,0.0,0.0,0.0,0.0,0.0,0.0,0.0,0.0,0.0,0.0,0.0,0.0,0.0,0.0,0.0,0.0,0.0,-2.5013,-2.9307,-3.3475,-3.5647,-3.5478,-3.2249,-2.941,-2.5619,-2.0494,-1.8386,0.0,0.0,0.0,0.0,0.0,0.0,0.0,0.0,0.0,0.0,0.0,0.0,0.0,0.0,0.0,0.0,0.0,0.0,0.0,0.0,0.0,0.0,0.0,0.0,0.0,0.0,0.0,0.0,0.0,0.0,0.0,0.0,0.0,0.0,0.0,0.0,0.0,0.0,0.0,0.0,0.0,0.0,0.0,0.0,0.0,0.0,0.0,0.0,0.0,0.0,0.0,0.0,0.0,0.0,0.0,0.0,0.0,0.0,0.0,0.0,0.0,0.0,0.0,0.0,0.0,0.0,0.0,0.0,0.0,0.0,0.0,0.0,0.0,0.0,0.0,0.0,0.0,0.0,0.0,0.0,0.0,0.0,0.0,0.0,0.0,0.0,0.0,0.0,0.0,0.0,0.0,0.0,0.0,0.0,0.0,0.0,0.0,0.0,0.0,0.0,0.0,0.0,-2.8577,-3.141,-3.2616,-3.4587,-3.4347,-3.0814,-2.8522,-2.5118,-2.0014,-1.7267,0.0,0.0,0.0,0.0,0.0,0.0,0.0,0.0,0.0,0.0,0.0,0.0,0.0,0.0,0.0,0.0,0.0,0.0,0.0,0.0,0.0,0.0,0.0,0.0,0.0,0.0,0.0,0.0,0.0,0.0,0.0,0.0,0.0,0.0,0.0,0.0,0.0,0.0,0.0,0.0,0.0,0.0,0.0,0.0,0.0,0.0,0.0,0.0,0.0,0.0,0.0,0.0,0.0,0.0,0.0,0.0,0.0,0.0,0.0,0.0,0.0,0.0,0.0,0.0,0.0,0.0,0.0,0.0,0.0,0.0,0.0,0.0,0.0,0.0,0.0,0.0,0.0,0.0,0.0,0.0,0.0,0.0,0.0,0.0,0.0,0.0,0.0,0.0,0.0,0.0,0.0,0.0,0.0,0.0,0.0,0.0,0.0,0.0,0.0,0.0,0.0,0.0,-2.6972,-3.0426,-3.3126,-3.3036,-3.2165,-3.0612,-2.758,-2.4034,-1.9947,-1.7267,0.0,0.0,0.0,0.0,0.0,0.0,0.0,0.0,0.0,0.0,0.0,0.0,0.0,0.0,0.0,0.0,0.0,0.0,0.0,0.0,0.0,0.0,0.0,0.0,0.0,0.0,0.0,0.0,0.0,0.0,0.0,0.0,0.0,0.0,0.0,0.0,0.0,0.0,0.0,0.0,0.0,0.0,0.0,0.0,0.0,0.0,0.0,0.0,0.0,0.0,0.0,0.0,0.0,0.0,0.0,0.0,0.0,0.0,0.0,0.0,0.0,0.0,0.0,0.0,0.0,0.0,0.0,0.0,0.0,0.0,0.0,0.0,0.0,0.0,0.0,0.0,0.0,0.0,0.0,0.0,0.0,0.0,0.0,0.0,0.0,0.0,0.0,0.0,0.0,0.0,0.0,0.0,0.0,0.0,0.0,0.0,0.0,0.0,0.0,0.0,0.0,0.0,-2.6221,-2.9723,-3.2018,-3.2019,-3.1331,-3.0043,-2.6901,-2.349,-1.9917,0.0,0.0,0.0,0.0,0.0,0.0,0.0,0.0,0.0,0.0,0.0,0.0,0.0,0.0,0.0,0.0,0.0,0.0,0.0,0.0,0.0,0.0,0.0,0.0,0.0,0.0,0.0,0.0,0.0,0.0,0.0,0.0,0.0,0.0,0.0,0.0,0.0,0.0,0.0,0.0,0.0,0.0,0.0,0.0,0.0,0.0,0.0,0.0,0.0,0.0,0.0,0.0,0.0,0.0,0.0,0.0,0.0,0.0,0.0,0.0,0.0,0.0,0.0,0.0,0.0,0.0,0.0,0.0,0.0,0.0,0.0,0.0,0.0,0.0,0.0,0.0,0.0,0.0,0.0,0.0,0.0,0.0,0.0,0.0,0.0,0.0,0.0,0.0,0.0,0.0,0.0,0.0,0.0,0.0,0.0,0.0,0.0,0.0,0.0,0.0,0.0,0.0,-2.2026,-2.6223,-2.9594,-3.1331,-3.1301,-3.0672,-2.9385,-2.6398,-2.3199,-1.9917,0.0,0.0,0.0,0.0,0.0,0.0,0.0,0.0,0.0,0.0,0.0,0.0,0.0,0.0,0.0,0.0,0.0,0.0,0.0,0.0,0.0,0.0,0.0,0.0,0.0,0.0,0.0,0.0,0.0,0.0,0.0,0.0,0.0,0.0,0.0,0.0,0.0,0.0,0.0,0.0,0.0,0.0,0.0,0.0,0.0,0.0,0.0,0.0,0.0,0.0,0.0,0.0,0.0,0.0,0.0,0.0,0.0,0.0,0.0,0.0,0.0,0.0,0.0,0.0,0.0,0.0,0.0,0.0,0.0,0.0,0.0,0.0,0.0,0.0,0.0,0.0,0.0,0.0,0.0,0.0,0.0,0.0,0.0,0.0,0.0,0.0,0.0,0.0,0.0,0.0,0.0,0.0,0.0,0.0,0.0,0.0,0.0,0.0,0.0,0.0,0.0,0.0,-2.2697,-2.6808,-3.0016,-3.1332,-3.0883,-2.9926,-2.867,-2.6129,-2.3148,0.0,0.0,0.0,0.0,0.0,0.0,0.0,0.0,0.0,0.0,0.0,0.0,0.0,0.0,0.0,0.0,0.0,0.0,0.0,0.0,0.0,0.0,0.0,0.0,0.0,0.0,0.0,0.0,0.0,0.0,0.0,0.0,0.0,0.0,0.0,0.0,0.0,0.0,0.0,0.0,0.0,0.0,0.0,0.0,0.0,0.0,0.0,0.0,0.0,0.0,0.0,0.0,0.0,0.0,0.0,0.0,0.0,0.0,0.0,0.0,0.0,0.0,0.0,0.0,0.0,0.0,0.0,0.0,0.0,0.0,0.0,0.0,0.0,0.0,0.0,0.0,0.0,0.0,0.0,0.0,0.0,0.0,0.0,0.0,0.0,0.0,0.0,0.0,0.0,0.0,0.0,0.0,0.0,0.0,0.0,0.0,0.0,0.0,0.0,0.0,0.0,0.0,0.0,-2.1555,-2.4275,-2.6831,-2.8933,-2.8252,-2.7257,-2.6489,-2.4049,-2.1554,-1.9208,0.0,0.0,0.0,0.0,0.0,0.0,0.0,0.0,0.0,0.0,0.0,0.0,0.0,0.0,0.0,0.0,0.0,0.0,0.0,0.0,0.0,0.0,0.0,0.0,0.0,0.0,0.0,0.0,0.0,0.0,0.0,0.0,0.0,0.0,0.0,0.0,0.0,0.0,0.0,0.0,0.0,0.0,0.0,0.0,0.0,0.0,0.0,0.0,0.0,0.0,0.0,0.0,0.0,0.0,0.0,0.0,0.0,0.0,0.0,0.0,0.0,0.0,0.0,0.0,0.0,0.0,0.0,0.0,0.0,0.0,0.0,0.0,0.0,0.0,0.0,0.0,0.0,0.0,0.0,0.0,0.0,0.0,0.0,0.0,0.0,0.0,0.0,0.0,0.0,0.0,0.0,0.0,0.0,0.0,0.0,0.0,0.0,0.0,0.0,0.0,0.0,0.0,-2.1146,-2.3674,-2.5938,-2.7658,-2.7185,-2.6298,-2.5189,-2.3031,-2.0862,-1.8939,0.0,0.0,0.0,0.0,0.0,0.0,0.0,0.0,0.0,0.0,0.0,0.0,0.0,0.0,0.0,0.0,0.0,0.0,0.0,0.0,0.0,0.0,0.0,0.0,0.0,0.0,0.0,0.0,0.0,0.0,0.0,0.0,0.0,0.0,0.0,0.0,0.0,0.0,0.0,0.0,0.0,0.0,0.0,0.0,0.0,0.0,0.0,0.0,0.0,0.0,0.0,0.0,0.0,0.0,0.0,0.0,0.0,0.0,0.0,0.0,0.0,0.0,0.0,0.0,0.0,0.0,0.0,0.0,0.0,0.0,0.0,0.0,0.0,0.0,0.0,0.0,0.0,0.0,0.0,0.0,0.0,0.0,0.0,0.0,0.0,0.0,0.0,0.0,0.0,0.0,0.0,0.0,0.0,0.0,0.0,0.0,0.0,0.0,0.0,0.0,0.0,0.0,-2.1323,-2.413,-2.6237,-2.698,-2.6921,-2.6121,-2.4422,-2.264,-2.0836,-1.9007,0.0,0.0,0.0,0.0,0.0,0.0,0.0,0.0,0.0,0.0,0.0,0.0,0.0,0.0,0.0,0.0,0.0,0.0,0.0,0.0,0.0,0.0,0.0,0.0,0.0,0.0,0.0,0.0,0.0,0.0,0.0,0.0,0.0,0.0,0.0,0.0,0.0,0.0,0.0,0.0,0.0,0.0,0.0,0.0,0.0,0.0,0.0,0.0,0.0,0.0,0.0,0.0,0.0,0.0,0.0,0.0,0.0,0.0,0.0,0.0,-2.4402,0.0,0.0,0.0,0.0,0.0,0.0,0.0,0.0,0.0,0.0,0.0,0.0,0.0,0.0,0.0,0.0,0.0,0.0,0.0,0.0,0.0,0.0,0.0,0.0,0.0,0.0,0.0,0.0,0.0,0.0,0.0,0.0,0.0,0.0,0.0,0.0,0.0,0.0,0.0,0.0,0.0,-2.1639,-2.2326,-2.3254,-2.5152,-2.4505,-2.3658,-2.2837,-2.1631,-2.0319,-1.8929,-1.704,0.0,0.0,0.0,0.0,0.0,0.0,0.0,0.0,0.0,0.0,0.0,0.0,0.0,0.0,0.0,0.0,0.0,0.0,0.0,0.0,0.0,0.0,0.0,0.0,0.0,0.0,0.0,0.0,0.0,0.0,0.0,0.0,0.0,0.0,0.0,0.0,0.0,0.0,0.0,0.0,0.0,0.0,0.0,0.0,0.0,0.0,0.0,0.0,0.0,0.0,0.0,0.0,0.0,0.0,0.0,0.0,0.0,0.0,0.0,0.0,-2.4506,0.0,0.0,0.0,0.0,0.0,0.0,0.0,0.0,0.0,0.0,0.0,0.0,0.0,0.0,0.0,0.0,0.0,0.0,0.0,0.0,0.0,0.0,0.0,0.0,0.0,0.0,0.0,0.0,0.0,0.0,0.0,0.0,0.0,0.0,0.0,0.0,0.0,0.0,0.0,0.0,-2.0973,-2.2102,-2.315,-2.4305,-2.4098,-2.3471,-2.2397,-2.132,-2.0192,-1.8968,-1.7306,0.0,0.0,0.0,0.0,0.0,0.0,0.0,0.0,0.0,0.0,0.0,0.0,0.0,0.0,0.0,0.0,0.0,0.0,0.0,0.0,0.0,0.0,0.0,0.0,0.0,0.0,0.0,0.0,0.0,0.0,0.0,0.0,0.0,0.0,0.0,0.0,0.0,0.0,0.0,0.0,0.0,0.0,0.0,0.0,0.0,0.0,0.0,0.0,0.0,0.0,0.0,0.0,0.0,-2.8655,-2.9376,-2.9539,-3.005,-2.9702,-2.871,-2.8064,-2.6881,-2.536,-2.4951,0.0,0.0,0.0,0.0,0.0,0.0,0.0,0.0,0.0,0.0,0.0,0.0,0.0,0.0,0.0,0.0,0.0,0.0,0.0,0.0,0.0,0.0,0.0,0.0,-2.0232,-2.048,-1.9732,0.0,0.0,0.0,0.0,0.0,0.0,0.0,0.0,0.0,0.0,0.0,-2.0374,-2.2482,-2.3954,-2.4255,-2.4531,-2.4104,-2.2723,-2.1521,-2.0415,-1.9359,-1.7704,-1.6671,0.0,0.0,0.0,0.0,0.0,0.0,0.0,0.0,0.0,0.0,0.0,0.0,0.0,0.0,0.0,0.0,0.0,0.0,0.0,0.0,0.0,0.0,0.0,0.0,0.0,0.0,0.0,0.0,0.0,0.0,0.0,0.0,-2.1995,-2.3898,0.0,0.0,0.0,0.0,0.0,0.0,0.0,0.0,0.0,0.0,0.0,0.0,0.0,-2.8562,-2.9696,-3.0103,-3.07,-3.144,-3.0997,-3.1222,-3.2009,-3.2126,-3.1796,-3.1178,-3.0248,0.0,-2.7519,-2.5578,0.0,0.0,0.0,0.0,0.0,0.0,0.0,0.0,0.0,0.0,0.0,0.0,0.0,0.0,0.0,0.0,0.0,0.0,0.0,0.0,0.0,0.0,-2.3253,-2.2152,-2.1279,-2.0919,0.0,-1.9497,-1.7369,-1.7299,-1.6537,0.0,0.0,0.0,0.0,0.0,0.0,0.0,-2.1195,-2.2441,-2.3772,-2.5234,-2.4632,-2.4029,-2.3803,-2.2297,-2.1144,-2.0515,-1.8907,-1.7524,-1.651,-1.6992,0.0,0.0,0.0,0.0,0.0,0.0,0.0,0.0,0.0,0.0,0.0,0.0,0.0,0.0,0.0,0.0,0.0,0.0,0.0,0.0,0.0,0.0,0.0,0.0,0.0,0.0,0.0,0.0,0.0,-2.3653,-2.546,-2.485,-2.6445,-2.667,0.0,0.0,0.0,0.0,0.0,0.0,0.0,0.0,0.0,-2.7823,-2.8916,-2.975,-3.0191,-3.1548,-3.2441,-3.2771,-3.3406,-3.3947,-3.4404,-3.5551,-3.5308,-3.4002,-3.3756,-3.2223,-2.9706,-2.7043,-2.6191,-2.6311,0.0,0.0,0.0,0.0,-2.1028,-2.0867,-2.0902,-2.1041,-2.1293,-2.202,0.0,0.0,0.0,0.0,0.0,0.0,0.0,0.0,0.0,0.0,-2.4323,-2.3551,-2.412,-2.4731,-2.4323,-2.2358,-2.0434,0.0,-1.9546,-1.9007,-1.7777,0.0,0.0,0.0,0.0,-2.1423,-2.2264,-2.3633,-2.4808,-2.5511,-2.4908,-2.433,-2.4029,-2.2447,-2.127,-2.0717,-1.9133,-1.7852,-1.7024,-1.7272,-1.6744,0.0,0.0,0.0,0.0,0.0,0.0,0.0,0.0,0.0,0.0,0.0,0.0,0.0,0.0,0.0,0.0,0.0,0.0,0.0,0.0,0.0,0.0,0.0,0.0,0.0,0.0,0.0,0.0,-2.6556,-2.8112,-2.5911,-2.8499,-2.9047,0.0,0.0,0.0,0.0,0.0,0.0,-2.8579,-2.846,-2.8563,-2.8833,-3.0304,-3.1221,-3.1417,-3.2642,-3.3424,-3.3705,-3.4298,-3.4721,-3.5166,-3.7104,-3.6829,-3.4912,-3.5639,-3.4355,-3.1533,-2.8849,-2.7362,-2.6706,-2.5986,-2.4288,-2.2273,-2.2573,-2.2344,-2.1919,-2.2155,-2.2569,-2.3071,-2.3749,-2.3328,-2.252,-2.1993,0.0,0.0,0.0,0.0,-2.0427,-2.1061,-2.2794,-2.4393,-2.4263,-2.5672,-2.6734,-2.5905,-2.4564,-2.3332,0.0,-2.2332,-2.1828,-2.0309,0.0,0.0,0.0,-2.1132,-2.2968,-2.3013,-2.4678,-2.5812,-2.5812,-2.5209,-2.4625,-2.4255,-2.2523,-2.1345,-2.0943,-1.9183,-1.8028,-1.7601,-1.7325,-1.6823,-1.6145,0.0,0.0,0.0,0.0,0.0,0.0,0.0,0.0,0.0,0.0,0.0,0.0,0.0,0.0,0.0,0.0,0.0,0.0,0.0,0.0,0.0,0.0,0.0,0.0,0.0,0.0,0.0,0.0,0.0,-2.802,-3.0582,0.0,0.0,0.0,0.0,-3.0259,-3.0013,-3.0241,-3.1247,-3.09,-3.1614,-3.3697,-3.3946,-3.4566,-3.5603,-3.3923,-3.3806,-3.5176,-3.2468,-3.1859,-3.3275,-3.4803,-3.4373,-3.2488,-3.4006,-3.3982,-3.2757,-3.0856,-2.9037,-2.7452,-2.6454,-2.534,-2.4205,-2.3856,-2.3401,-2.2855,-2.2304,-2.2291,-2.2667,-2.3511,-2.3416,-2.2889,-2.2388,-2.1857,0.0,0.0,-2.1097,-2.168,-2.1959,-2.2673,-2.3461,-2.4193,-2.4205,-2.4266,-2.522,-2.507,-2.4716,0.0,-2.3455,-2.2416,-2.2815,0.0,-2.308,-2.0894,-2.2929,-2.4274,-2.3226,-2.5066,-2.6449,-2.6449,-2.546,-2.4775,-2.475,-2.2749,-2.1468,-2.1443,-1.9409,-1.8179,-1.8154,-1.7102,-1.6798,-1.7297,-1.5789,0.0,0.0,0.0,0.0,0.0,0.0,0.0,0.0,0.0,0.0,0.0,0.0,0.0,0.0,0.0,0.0,0.0,0.0,0.0,0.0,0.0,0.0,0.0,0.0,0.0,0.0,0.0,0.0,-3.1757,-3.2982,0.0,-2.9999,-3.1219,-3.2322,-3.2735,-3.46,-3.5447,-3.4804,-3.4674,-3.4211,-3.3266,-3.397,-3.4547,-3.4947,-3.3959,-3.3726,-3.4239,-3.2939,-3.2587,-3.3134,-3.4626,-3.4371,-3.284,-3.3702,-3.2813,-3.0797,-3.0428,-2.9601,-2.84,-2.734,-2.6561,-2.5891,-2.4952,-2.4867,-2.497,-2.3958,-2.3634,-2.375,-2.3769,-2.3654,-2.3424,-2.2938,-2.2676,-2.2473,-2.2332,-2.2673,-2.304,-2.3156,-2.3881,-2.4781,-2.5349,-2.6021,-2.6546,-2.6495,-2.6734,-2.6948,-2.6984,-2.5936,-2.4929,-2.4743,-2.5209,-2.5091,-2.3577,-2.5084,-2.6138,-2.536,-2.6323,-2.6876,-2.6524,-2.5485,-2.48,-2.48,-2.2774,-2.1493,-2.1493,-1.9761,-1.8556,-1.8229,-1.7476,-1.7174,-1.7398,-1.682,-1.6342,0.0,0.0,0.0,0.0,0.0,0.0,0.0,0.0,0.0,0.0,0.0,0.0,0.0,0.0,0.0,0.0,0.0,0.0,0.0,0.0,0.0,0.0,0.0,0.0,0.0,-3.2148,-3.3897,-3.3231,-3.4493,-3.4461,-3.203,-3.4235,-3.5885,-3.6062,-3.8534,-3.9503,-3.8274,-3.7717,-3.6459,-3.4182,-3.4488,-3.4313,-3.3653,-3.3202,-3.2895,-3.2731,-3.2502,-3.2358,-3.2416,-3.3901,-3.3698,-3.2308,-3.3031,-3.189,-2.9519,-2.9754,-2.9393,-2.8685,-2.8271,-2.7614,-2.6867,-2.6343,-2.6243,-2.6192,-2.5184,-2.4816,-2.4785,-2.4355,-2.4219,-2.4141,-2.3666,-2.353,-2.3574,-2.3574,-2.3789,-2.4043,-2.418,-2.4791,-2.5435,-2.5839,-2.6428,-2.6854,-2.6933,-2.6982,-2.7149,-2.7685,-2.7378,-2.6852,-2.628,-2.6524,-2.6348,-2.4976,-2.5912,-2.6515,-2.6021,-2.6575,-2.6686,-2.5802,-2.5311,-2.4878,-2.4353,-2.2571,-2.1409,-2.1131,-1.94,-1.8265,-1.8117,-1.7403,-1.7148,-1.7398,-1.7021,-1.6622,-1.6271,0.0,0.0,0.0,0.0,0.0,0.0,0.0,0.0,0.0,0.0,0.0,0.0,0.0,0.0,0.0,0.0,0.0,0.0,0.0,0.0,0.0,0.0,0.0,-3.0599,-3.3889,-3.5199,-3.2406,-3.5083,-3.6352,-3.456,-3.7558,-3.9855,-4.02,-4.1484,-4.2019,-4.1377,-3.9831,-3.827,-3.6748,-3.5739,-3.4224,-3.2289,-3.1758,-3.1348,-3.0937,-3.0918,-3.0898,-3.0937,-3.2358,-3.2142,-3.0665,-3.1822,-3.1174,-2.9301,-2.9019,-2.8652,-2.8349,-2.9178,-2.8493,-2.7176,-2.7873,-2.7415,-2.6309,-2.5859,-2.5674,-2.5615,-2.5234,-2.5145,-2.5,-2.459,-2.4453,-2.4434,-2.4434,-2.4434,-2.4531,-2.5008,-2.5106,-2.5176,-2.5577,-2.5059,-2.4855,-2.6321,-2.5722,-2.5316,-2.6825,-2.7625,-2.7906,-2.7404,-2.7369,-2.6816,-2.5176,-2.541,0.0,-2.4943,-2.5828,-2.5911,-2.4385,-2.5007,-2.4929,-2.3427,-2.2182,-2.116,-2.0394,-1.8332,-1.7356,-1.783,-1.6881,-1.6666,-1.7403,-1.6346,-1.6367,-1.7448,0.0,0.0,0.0,0.0,0.0,0.0,0.0,0.0,0.0,0.0,0.0,0.0,0.0,0.0,0.0,0.0,0.0,0.0,0.0,0.0,0.0,-3.2637,-3.4014,-3.4106,-3.4603,-3.5219,-3.5915,-3.6714,-3.7455,-3.7921,-3.8737,-3.9823,-4.1357,-4.1393,-4.0908,-3.9845,-3.925,-3.7955,-3.5913,-3.5349,-3.4586,-3.3674,-3.2872,-3.2226,-3.1816,-3.1504,-3.1191,-3.0898,-3.1325,-3.1242,-3.0826,-3.0522,-3.0063,-2.9476,-2.8775,-2.8398,-2.8335,-2.8569,-2.8701,-2.8696,-2.7733,-2.6725,-2.5752,-2.5039,-2.5148,-2.5674,-2.5586,-2.5547,-2.5527,-2.5362,-2.5156,-2.4883,-2.4883,-2.4883,-2.4969,-2.5086,-2.5106,-2.5176,-2.5577,-2.5651,-2.5615,-2.5571,-2.6013,-2.6582,-2.7026,-2.7005,-2.7163,-2.7771,-2.8557,-2.895,-2.8499,-2.8549,0.0,-2.6795,-2.689,-2.6429,-2.4824,-2.4518,-2.3999,-2.2935,-2.1525,-2.0366,-1.9497,-1.8202,-1.7357,-1.7103,-1.6828,-1.7023,-1.7749,-1.7992,-1.823,0.0,0.0,0.0,0.0,0.0,0.0,0.0,0.0,0.0,0.0,0.0,0.0,0.0,0.0,0.0,0.0,0.0,0.0,0.0,0.0,0.0,0.0,-3.3953,-3.5246,-3.6471,-3.6139,-3.6218,-3.7597,-3.7629,-3.7944,-3.8946,-3.9599,-4.0388,-4.1279,-4.1728,-4.1441,-4.0339,-3.9986,-3.8923,-3.7004,-3.6053,-3.5223,-3.4306,-3.3274,-3.25,-3.1894,-3.1641,-3.1623,-3.1825,-3.117,-3.1199,-3.1608,-3.0191,-2.9569,-2.9413,-2.8632,-2.8301,0.0,0.0,0.0,0.0,0.0,-2.6484,-2.5615,-2.5089,-2.5265,-2.5693,-2.5693,-2.5693,-2.5693,-2.5693,-2.5579,-2.5418,-2.5418,-2.5457,-2.5526,-2.5456,-2.5418,-2.5505,-2.5682,-2.5717,-2.5623,-2.5397,-2.5558,-2.5764,-2.5932,-2.5844,0.0,-2.6617,-2.7252,-2.7555,-2.7062,-2.699,-2.6643,-2.5669,-2.5769,-2.537,-2.3976,-2.3981,-2.3614,-2.2448,-2.1147,0.0,0.0,0.0,-1.6884,-1.6358,-1.692,0.0,0.0,0.0,-1.8455,-1.8657,0.0,0.0,0.0,-1.7752,-1.7202,0.0,0.0,0.0,0.0,0.0,0.0,0.0,0.0,0.0,0.0,0.0,0.0,0.0,0.0,0.0,0.0,-3.4154,-3.5232,-3.8055,-3.8009,-3.7712,-3.7877,-3.7969,-3.8216,-3.8806,-4.0157,-4.0896,-4.0619,-4.1856,-4.2235,-4.1375,-4.0843,0.0,0.0,0.0,-3.5766,-3.4404,-3.3395,-3.2461,-3.166,-3.1621,-3.2036,-3.2877,-3.1518,-3.1477,-3.2416,-3.0423,-2.9465,-2.9209,-2.8549,-2.8301,-2.8301,-2.8301,-2.8262,-2.8125,-2.7266,-2.6465,-2.5752,-2.5654,0.0,0.0,-2.5693,-2.5693,-2.5693,-2.5693,-2.5792,-2.5863,-2.5863,-2.5951,-2.6023,-2.5906,-2.5863,-2.5839,-2.574,-2.543,-2.5254,-2.5596,-2.4796,-2.4082,-2.4578,-2.468,-2.4718,-2.4851,-2.4957,-2.4654,-2.3652,-2.3482,-2.3444,-2.3295,-2.3765,-2.3703,-2.2687,0.0,0.0,-2.1935,-2.0952,-2.0053,-1.921,-1.7429,-1.6255,-1.5842,-1.714,-1.7484,-1.6643,-1.7336,-1.8008,-1.8581,-1.8581,-1.9058,-1.9962,-1.8882,-1.838,0.0,0.0,0.0,0.0,0.0,0.0,0.0,0.0,0.0,0.0,0.0,0.0,0.0,0.0,0.0,-3.521,-3.6374,-3.7621,-3.9756,-3.8757,-3.7893,-3.7891,-3.8242,-3.9109,-4.0636,-3.9746,-3.9706,-4.1059,-3.9502,-3.8357,-3.8176,-3.7885,-3.7192,-3.6179,-3.5912,-3.5309,-3.4247,-3.3633,-3.3047,-3.2539,0.0,0.0,-3.1761,-3.1152,-3.0815,-3.0634,-2.9948,-2.9384,-2.8957,-2.8506,-2.8301,-2.8301,-2.8301,-2.8086,-2.7728,-2.6836,-2.6406,-2.6152,-2.5449,-2.543,-2.5693,-2.5693,-2.5693,-2.5693,-2.5693,-2.5702,0.0,-2.5757,-2.5781,-2.5777,-2.5765,-2.5757,-2.57,-2.5703,-2.5615,-2.5625,-2.5674,-2.5259,-2.5139,-2.6054,-2.5031,-2.4274,-2.5116,-2.578,-2.6084,-2.5883,-2.586,-2.5536,-2.4573,-2.4575,-2.4221,-2.3097,-2.3186,-2.2771,-2.1451,-2.0859,-1.9879,-1.8353,-1.7224,-1.66,-1.6502,-1.7345,-1.8042,-1.856,-1.9272,-2.0061,-2.0865,-2.0865,-2.0966,-2.1142,-2.0012,-1.9484,0.0,0.0,0.0,0.0,0.0,0.0,0.0,0.0,0.0,0.0,0.0,-2.8644,-3.1416,0.0,-3.4733,-3.6758,-3.7824,-3.8693,-3.9465,-3.8799,-3.8242,-3.8242,-3.8437,-3.8991,-3.989,-3.9136,-3.8991,-3.989,-3.872,-3.7851,-3.7617,-3.7251,-3.6912,-3.6538,-3.5656,-3.5043,-3.4935,-3.3933,-3.3203,-3.2793,-3.2363,-3.2335,-3.2567,-3.1406,-3.1148,-3.1592,-3.0218,-2.9453,-2.9199,-2.8555,-2.8301,-2.8301,-2.8301,-2.8027,-2.7669,-2.7187,-2.6894,-2.6602,-2.5957,-2.5879,-2.6035,-2.5752,-2.5693,-2.5693,-2.5693,-2.5745,-2.5812,-2.5812,-2.5839,-2.5892,-2.5831,-2.5812,-2.5792,-2.5722,-2.5693,-2.5693,-2.5693,-2.5391,-2.5248,-2.5792,-2.4947,-2.4205,-2.4549,-2.4877,-2.5081,-2.485,-2.4808,-2.4595,-2.3996,-2.3973,-2.3714,-2.3188,-2.2941,-2.2448,-2.1642,-2.0753,-1.9589,-1.812,-1.7584,-1.7155,-1.6726,-1.742,-1.8208,-1.9082,-1.982,-2.0624,-2.1493,-2.1493,-2.1493,-2.1496,-2.0916,-2.0639,0.0,0.0,0.0,0.0,0.0,0.0,0.0,-2.6914,-2.7582,-2.9807,-3.0526,-3.1719,-3.4587,-3.5752,-3.6652,-3.7698,-3.8459,-3.8902,-3.8616,-3.8496,-3.8418,-3.834,-3.8398,-3.8457,-3.8457,-3.8457,-3.8476,-3.8574,-3.8496,-3.8262,-3.7832,-3.7402,-3.7222,-3.7184,-3.556,-3.4878,-3.5314,-3.4067,-3.3242,-3.291,-3.2402,-3.2615,-3.3351,-3.1679,-3.1496,-3.2437,-3.0346,-2.9453,-2.9375,-2.8613,-2.8301,-2.8301,-2.8301,-2.8086,-2.7845,-2.7845,-2.7519,-2.709,-2.6758,-2.6582,-2.6445,-2.5996,-2.5859,-2.581,-2.5713,-2.5844,-2.6018,-2.6018,-2.6109,-2.6214,-2.6061,-2.6018,-2.595,-2.5731,-2.5693,-2.5693,-2.5693,-2.5449,-2.5195,-2.5195,-2.4844,-2.4434,-2.4102,-2.3906,-2.3633,-2.3159,-2.3101,-2.3101,-2.3101,-2.3101,-2.3101,-2.3101,-2.2789,-2.2461,-2.2051,-2.0801,-1.9609,-1.8574,-1.8359,-1.791,-1.7096,-1.7647,-1.8343,-1.913,-1.9711,-2.0535,-2.1567,-2.1567,-2.1652,-2.182,-2.1694,-2.1594,-2.3926,-2.3262,-2.3496,-2.6133,-2.6602,-2.7559,0.0,-3.2226,-3.1876,-3.3273,-3.3862,-3.43,-3.4665,-3.5462,-3.6324,-3.7252,-3.7783,-3.8164,-3.8569,-3.8242,-3.7851,-3.748,-3.7773,-3.7988,-3.7988,-3.7988,-3.8164,-3.8555,-3.8223,-3.7812,-3.7383,-3.6973,-3.6397,-3.5677,-3.5007,-3.4538,-3.426,-3.3677,-3.3398,-3.334,-3.2559,-3.225,-3.2353,-3.1368,-3.078,-3.05,-2.9411,-2.8984,-2.8945,-2.8496,-2.8301,-2.8301,-2.8301,-2.8262,-2.8223,-2.8223,-2.7949,-2.765,-2.7591,-2.7266,-2.6875,-2.6445,-2.6309,-2.625,-2.581,-2.5986,-2.635,-2.635,-2.6596,-2.6804,-2.6428,-2.635,-2.6241,-2.5801,-2.5693,-2.5693,-2.5693,-2.5654,-2.5615,-2.5615,-2.5293,-2.5028,-2.4988,-2.4297,-2.3633,-2.3159,-2.3101,-2.3101,-2.3101,-2.3101,-2.3101,-2.3101,-2.3062,-2.2847,-2.248,-2.125,-2.0468,-2.0331,-1.957,-1.8926,-1.8403,-1.8487,-1.8737,-1.9293,-1.937,-2.0188,-2.1865,-2.1865,-2.2232,-2.292,-2.2418,-2.197,-2.5625,-2.5957,-2.6719,-2.8769,-3.0254,-3.1855,-3.4297,-3.4629,-3.4629,-3.543,-3.5918,-3.6289,-3.6523,-3.7468,-3.8243,-3.8105,-3.8657,-3.8778,-3.7936,-3.7461,-3.6836,-3.5898,-3.5723,-3.6364,-3.8057,-3.8026,-3.83,-3.9192,-3.866,-3.8223,-3.8047,-3.7402,-3.6875,-3.6523,-3.5586,-3.4883,-3.4434,-3.4023,-3.3672,-3.3418,-3.2812,-3.2402,-3.2209,-3.1543,-3.0879,-3.0176,-2.9824,-2.9531,-2.9258,-2.8828,-2.8652,-2.8633,-2.8398,-2.8301,-2.8301,-2.8301,-2.8184,-2.7988,-2.7806,-2.7539,-2.7324,-2.6894,-2.6582,-2.6348,-2.6172,-2.625,-2.6387,-2.6387,-2.6699,-2.6973,-2.6797,-2.6562,-2.6348,-2.6152,-2.5918,-2.5752,-2.6055,-2.6113,-2.6113,-2.6113,-2.5957,-2.5712,-2.5204,-2.4551,-2.4004,-2.3574,-2.3257,-2.3101,-2.3101,-2.3101,-2.3101,-2.3101,-2.2886,-2.2652,-2.2519,-2.1797,-2.1153,-2.0644,-2.0273,-1.9727,-1.9043,-1.9023,-1.9213,-1.964,-1.9653,-2.0369,-2.1908,-2.1908,-2.231,-2.3095,-2.2869,-2.2644,-2.6376,-2.7676,-2.918,-3.0976,-3.3262,-3.5273,-3.6094,-3.6504,-3.6816,-3.7129,-3.7246,-3.7383,-3.7695,-3.8417,-3.8844,-3.8302,-3.8789,-3.8722,-3.7339,-3.666,-3.582,-3.4492,-3.3867,-3.4615,-3.7297,-3.7233,-3.7619,-3.9114,-3.8724,-3.8398,-3.8398,-3.7695,-3.7246,-3.7129,-3.5996,-3.5176,-3.4707,-3.4277,-3.3848,-3.3418,-3.2871,-3.2461,-3.2148,-3.1601,-3.0996,-3.0391,-3.0254,-3.0019,-2.9707,-2.9277,-2.9023,-2.8887,-2.8574,-2.8398,-2.8301,-2.8301,-2.8301,-2.8242,-2.7949,-2.7885,-2.7773,-2.7324,-2.6992,-2.6719,-2.6602,-2.6641,-2.6738,-2.6738,-2.7051,-2.7344,-2.7226,-2.6973,-2.6719,-2.6582,-2.6328,-2.6172,-2.6484,-2.6562,-2.6562,-2.6562,-2.6465,-2.6191,-2.5595,-2.4961,-2.4492,-2.418,-2.3769,-2.3354,-2.312,-2.3101,-2.3101,-2.3101,-2.2828,-2.2676,-2.2676,-2.2305,-2.1797,-2.1152,-2.0879,-2.041,-1.9705,-1.9531,-1.9528,-1.9739,-1.9719,-2.0343,-2.1546,-2.1803,-2.2273,-2.2954,-2.3374,-2.3496,-2.5479,-2.7012,-2.9023,-3.1992,-3.4375,-3.6426,-3.8105,-3.8496,-3.8496,-3.8516,-3.7871,-3.7305,-3.7324,-3.7042,-3.6905,-3.7266,-3.7375,-3.7219,-3.6738,-3.5957,-3.4941,-3.3613,-3.2734,-3.3051,-3.5168,-3.5047,-3.5664,-3.7825,-3.793,-3.7949,-3.7949,-3.7539,-3.7109,-3.6699,-3.584,-3.5176,-3.4707,-3.4277,-3.3848,-3.3418,-3.2578,-3.2187,-3.2148,-3.1289,-3.0898,-3.084,-3.0391,-3.0195,-3.0137,-2.9726,-2.9297,-2.8926,-2.8906,-2.8652,-2.8301,-2.8301,-2.8301,-2.8301,-2.8281,-2.8281,-2.8203,-2.7793,-2.7689,-2.7611,-2.7129,-2.7285,-2.7669,-2.7669,-2.793,-2.8164,-2.7806,-2.7689,-2.7571,-2.709,-2.6992,-2.6973,-2.6992,-2.6992,-2.6992,-2.6992,-2.666,-2.6387,-2.6348,-2.5673,-2.5086,-2.5086,-2.4668,-2.4082,-2.3198,-2.3101,-2.3101,-2.3101,-2.3081,-2.3081,-2.3081,-2.2691,-2.248,-2.2461,-2.1639,-2.0996,-2.0586,-2.0117,-1.9687,-1.935,-1.9294,-1.9745,-2.0631,-2.1554,-2.2194,-2.255,-2.4033,-2.4481,-2.6699,-2.9101,-3.1934,-3.4687,-3.6758,-3.8437,-3.9609,-3.9648,-3.9121,-3.7969,-3.6582,-3.5559,-3.5365,-3.4437,-3.426,-3.5947,-3.6567,-3.6633,-3.6269,-3.6142,-3.5318,-3.325,-3.2519,-3.2573,-3.3534,-3.3769,-3.5196,-3.8458,-3.7992,-3.7637,-3.791,-3.7519,-3.7109,-3.668,-3.6113,-3.5449,-3.4707,-3.4551,-3.4121,-3.3418,-3.2559,-3.2012,-3.1719,-3.1152,-3.0898,-3.0879,-3.0723,-3.0664,-3.0625,-3.0176,-2.9746,-2.9316,-2.9023,-2.8652,-2.8301,-2.8301,-2.8301,-2.8301,-2.8301,-2.8301,-2.8262,-2.8125,-2.7891,-2.7689,-2.75,-2.7539,-2.7728,-2.7728,-2.7969,-2.8262,-2.8125,-2.7871,-2.7689,-2.748,-2.7226,-2.709,-2.7383,-2.7441,-2.7441,-2.7441,-2.709,-2.6719,-2.6445,-2.5712,-2.4961,-2.4668,-2.4512,-2.4219,-2.3652,-2.3574,-2.3457,-2.312,-2.3101,-2.3101,-2.3101,-2.2964,-2.2769,-2.2539,-2.2246,-2.1758,-2.1035,-2.0839,-2.0449,-1.9707,-1.9707,-1.9992,-2.0603,-2.1529,-2.2366,-2.3063,-2.4255,-2.47,-2.8887,-3.168,-3.457,-3.7168,-3.875,-3.9785,-4.0195,-3.9609,-3.8516,-3.6934,-3.5117,-3.369,-3.3236,-3.2293,-3.2155,-3.3941,-3.4636,-3.5107,-3.5493,-3.544,-3.4853,-3.3426,-3.2734,-3.2664,-3.3412,-3.3477,-3.4745,-3.8077,-3.7909,-3.7877,-3.8247,-3.7937,-3.7441,-3.6964,-3.6328,-3.5586,-3.4707,-3.4707,-3.4199,-3.3184,-3.2656,-3.209,-3.1504,-3.123,-3.0859,-3.043,-3.0762,-3.0703,-3.043,-3.043,-3.0098,-2.9607,-2.9258,-2.8789,-2.8301,-2.8301,-2.8301,-2.8301,-2.8301,-2.8301,-2.8301,-2.8301,-2.8105,-2.7891,-2.7891,-2.7891,-2.7891,-2.7891,-2.8086,-2.8301,-2.8301,-2.8086,-2.7891,-2.7891,-2.7676,-2.7559,-2.7832,-2.7891,-2.7891,-2.7891,-2.7539,-2.7168,-2.6894,-2.6113,-2.5449,-2.5156,-2.498,-2.4668,-2.4082,-2.3887,-2.3691,-2.3398,-2.3198,-2.3101,-2.3101,-2.3101,-2.2984,-2.2711,-2.2598,-2.2207,-2.1504,-2.1268,-2.0859,-2.0156,-2.0137,-2.0301,-2.0594,-2.1889,-2.2717,-2.3108,-2.4664,-2.5285,-3.1875,-3.4512,-3.6816,-3.9336,-4.0234,-4.0371,-3.9902,-3.8437,-3.6816,-3.541,-3.3418,-3.1681,-3.0722,-3.0304,-3.0391,-3.1289,-3.1968,-3.293,-3.4524,-3.4127,-3.3755,-3.4166,-3.3457,-3.3528,-3.4737,-3.4073,-3.4565,-3.6806,-3.7809,-3.8449,-3.8859,-3.8512,-3.8004,-3.7316,-3.6445,-3.5605,-3.4746,-3.4687,-3.4043,-3.2793,-3.2793,-3.2344,-3.1523,-3.1523,-3.084,-2.9687,-3.0527,-3.041,-2.9707,-3.0547,-3.0371,-2.9609,-2.9609,-2.9082,-2.832,-2.832,-2.832,-2.8301,-2.8301,-2.8301,-2.8301,-2.8301,-2.8301,-2.8301,-2.8301,-2.8301,-2.8301,-2.8301,-2.8301,-2.8301,-2.8301,-2.8301,-2.8301,-2.8301,-2.8301,-2.8301,-2.8301,-2.8301,-2.8301,-2.8301,-2.8002,-2.7708,-2.7689,-2.6953,-2.6406,-2.6387,-2.6035,-2.5401,-2.457,-2.4102,-2.3828,-2.3789,-2.3418,-2.312,-2.3101,-2.3101,-2.3101,-2.3101,-2.2711,-2.2363,-2.1934,-2.1523,-2.1094,-2.0683,-2.0664,-2.0703,-2.0702,-2.2585,-2.3265,-2.2795,-2.5338,-2.6163,-3.3613,-3.6504,-3.9219,-4.0527,-4.0449,-3.9766,-3.8672,-3.7109,-3.5059,-3.2129,-2.9824,-2.7917,-2.6615,-2.6141,-2.6903,-2.9835,-3.2085,-3.3978,-3.5453,-3.6515,-3.6603,-3.5211,-3.543,-3.5681,-3.566,-3.6062,-3.6913,-3.8299,-3.7604,-3.7421,-3.8105,-3.7798,-3.7401,-3.6905,-3.6309,-3.5762,-3.5215,-3.457,-3.375,-3.2793,-3.2793,-3.2344,-3.1523,-3.1523,-3.1172,-3.0566,-3.0801,-3.0762,-3.0566,-3.0801,-3.0547,-3.0039,-3.0039,-2.9512,-2.8769,-2.8769,-2.8555,-2.8301,-2.8301,-2.8301,-2.8301,-2.8301,-2.8301,-2.8301,-2.8301,-2.8301,-2.8301,-2.8301,-2.8301,-2.8301,-2.8301,-2.8301,-2.8301,-2.8301,-2.8301,-2.8301,-2.8301,-2.8301,-2.8301,-2.8301,-2.8002,-2.7559,-2.7246,-2.6992,-2.6758,-2.6445,-2.6289,-2.5898,-2.5019,-2.4805,-2.4492,-2.3867,-2.3691,-2.3496,-2.312,-2.3101,-2.3101,-2.3101,-2.2984,-2.275,-2.2363,-2.2246,-2.1992,-2.1603,-2.1584,-2.177,-2.2175,-2.3384,-2.378,-2.3346,-2.5508,-2.602,-3.6152,-3.8379,-4.0293,-4.0762,-4.0098,-3.8769,-3.6699,-3.4766,-3.2441,-2.8945,-2.6836,-2.5169,-2.3791,-2.4339,-2.5743,-2.7985,-3.1061,-3.3696,-3.5205,-3.637,-3.6958,-3.6583,-3.6934,-3.7266,-3.7402,-3.7851,-3.8366,-3.901,-3.8214,-3.7935,-3.8568,-3.8056,-3.7519,-3.7003,-3.6348,-3.5723,-3.5098,-3.4219,-3.3555,-3.3066,-3.2871,-3.2441,-3.1797,-3.1601,-3.1074,-3.0332,0.0,-3.0664,-3.0332,-3.0723,-3.0625,-3.0195,-3.0195,-2.9668,-2.8926,-2.8926,-2.8652,-2.8301,-2.8301,-2.8301,-2.8301,-2.8301,-2.8418,-2.8535,-2.834,-2.8555,-2.8769,-2.8398,-2.8418,-2.8516,-2.834,-2.8301,-2.8301,-2.8301,-2.8301,-2.8301,-2.8301,-2.8301,-2.8301,-2.8301,-2.8105,-2.7871,-2.7617,-2.7422,-2.7148,-2.6719,-2.6504,-2.6133,-2.5449,-2.5195,-2.493,-2.4394,-2.4023,-2.3691,-2.3437,-2.3198,-2.3101,-2.3101,-2.3101,-2.2906,-2.2539,-2.2519,-2.2305,-2.1894,-2.1894,-2.2025,-2.2351,-2.3829,-2.4294,-2.3839,-2.5433,-2.6135,-3.8691,-3.9883,-4.0586,-4.0527,-3.9453,-3.7637,-3.4726,-3.2246,-2.959,-2.6122,-2.4394,-2.3086,-2.1855,-2.3696,-2.5594,-2.6359,-2.9539,-3.2574,-3.4418,-3.5254,-3.6211,-3.7734,-3.8027,-3.8437,-3.9297,-3.9277,-3.9258,-3.9375,-3.9182,-3.911,-3.9343,-3.8683,-3.7909,-3.7179,-3.6406,-3.5586,-3.4707,-3.3965,-3.3535,-3.3418,-3.2988,-3.2578,-3.2148,-3.1719,-3.0879,-2.9785,-3.0566,-3.0449,-2.9805,-3.0566,-3.0644,-3.0293,-3.0293,-2.9766,-2.9004,-2.9004,-2.8711,-2.8301,-2.8301,-2.8301,-2.8301,-2.8301,-2.8535,-2.8769,-2.8398,-2.8809,-2.9258,-2.8574,-2.8594,-2.8769,-2.8457,-2.834,-2.8301,-2.8301,-2.8301,-2.8301,-2.8301,-2.8301,-2.8301,-2.8301,-2.8301,-2.8301,-2.8301,-2.7988,-2.7598,-2.7168,-2.6738,-2.6309,-2.583,-2.543,-2.5184,-2.5125,-2.4355,-2.3848,-2.3789,-2.3379,-2.3101,-2.3101,-2.3101,-2.2925,-2.2617,-2.2598,-2.2422,-2.2051,-2.2051,-2.2114,-2.216,-2.4009,-2.4692,-2.4317,-2.5257,-2.6166,-3.9101,-4.0117,-4.0976,-4.0605,-3.9004,-3.6914,-3.459,-3.1309,-2.7871,-2.4766,-2.2832,-2.1346,-2.043,-2.1808,-2.3899,-2.6476,-2.8937,-3.1523,-3.4322,-3.6016,-3.7207,-3.7851,-3.8555,-3.9336,-4.0215,-3.9629,-3.9512,-4.0234,-3.9613,-3.905,-3.8793,-3.7944,-3.7075,-3.6269,-3.6094,-3.5586,-3.4707,-3.4551,-3.4121,-3.3418,-3.2988,-3.2578,-3.2148,-3.1719,-3.1211,-3.0664,-3.082,0.0,-3.0684,-3.082,-3.084,-3.0762,-3.0762,-3.0234,-2.9453,-2.9453,-2.8965,-2.8301,-2.8301,-2.8301,-2.8301,-2.8301,-2.834,-2.8398,-2.832,-2.8398,-2.8555,-2.875,-2.8613,-2.8457,-2.873,-2.8555,-2.8301,-2.8301,-2.8301,-2.8301,-2.8301,-2.8301,-2.8301,-2.8301,-2.8301,-2.8301,-2.8301,-2.8223,-2.8047,-2.7617,-2.7187,-2.6758,-2.6328,-2.5898,-2.5488,-2.5165,-2.4609,-2.416,-2.3828,-2.3379,-2.3101,-2.3101,-2.3101,-2.3062,-2.2984,-2.2984,-2.2945,-2.2886,-2.2886,-2.312,-2.3619,-2.399,-2.4406,-2.487,-2.4925,-2.5118,-3.9629,-4.0351,-4.1016,-4.0371,-3.8574,-3.5996,-3.2246,-2.9082,-2.584,-2.1914,-2.0411,-1.965,-1.9043,-2.0705,-2.2838,-2.4977,-2.7491,-3.0229,-3.3309,-3.5,-3.6523,-3.8086,-3.9043,-3.9726,-4.0156,-3.9805,-3.9551,-3.9512,-3.9121,-3.8887,-3.8906,-3.7891,-3.7012,-3.6387,-3.5918,-3.5371,-3.4707,-3.4473,-3.4062,-3.3418,-3.2773,-3.2363,-3.2209,-3.1484,-3.1074,-3.0898,-3.0898,-3.0625,-3.0234,-3.0703,-3.0625,-3.0254,-3.0703,-3.0488,-2.9902,-2.9902,-2.9492,-2.8965,-2.8965,-2.8809,-2.8613,-2.8613,-2.8613,-2.8613,-2.8613,-2.8769,-2.8906,-2.8652,-2.8613,-2.8613,-2.8594,-2.8437,-2.8301,-2.8301,-2.8301,-2.8301,-2.8301,-2.8301,-2.8301,-2.8301,-2.8301,-2.8301,-2.8301,-2.8301,-2.8144,-2.7787,-2.748,-2.7207,-2.6777,-2.6348,-2.5918,-2.5469,-2.5019,-2.4668,-2.4473,-2.3848,-2.3477,-2.3477,-2.3218,-2.3101,-2.3101,-2.3101,-2.3101,-2.3101,-2.3101,-2.3244,-2.3541,-2.4115,-2.4449,-2.4489,-2.5068,-2.5323,-4.0156,-4.0664,-4.0976,-4.0117,-3.8125,-3.5137,-3.0293,-2.7168,-2.4082,-1.9748,-1.8656,-1.8422,-1.8301,-2.0002,-2.1945,-2.3654,-2.5865,-2.8574,-3.2015,-3.3613,-3.543,-3.8125,-3.9219,-3.9824,-4.0019,-3.9863,-3.9453,-3.8769,-3.8633,-3.8672,-3.8926,-3.7891,-3.7109,-3.668,-3.5918,-3.5254,-3.4707,-3.4375,-3.3945,-3.3418,-3.2559,-3.2229,-3.2148,-3.1289,-3.0898,-3.0898,-3.0898,-3.0391,-2.9704,-3.0527,-3.0371,-2.9704,-3.0547,-3.0605,-3.0195,-3.0195,-2.9922,-2.9626,-2.9626,-2.9277,-2.8945,-2.9023,-2.8926,-2.8789,-2.8789,-2.9023,-2.918,-2.8594,-2.8672,-2.8848,-2.8516,-2.8437,-2.8398,-2.832,-2.8301,-2.8301,-2.8301,-2.8301,-2.8301,-2.8301,-2.8301,-2.8301,-2.8301,-2.8301,-2.8184,-2.7904,-2.7787,-2.7591,-2.7207,-2.6699,-2.625,-2.5869,-2.5391,-2.5106,-2.5106,-2.4355,-2.3887,-2.3789,-2.3477,-2.3198,-2.3101,-2.3101,-2.3101,-2.3101,-2.3101,-2.3101,-2.3101,-2.4016,-2.4323,-2.42,-2.4882,-2.5311,-4.0644,-4.1113,-4.0976,-4.0117,-3.7676,-3.457,-3.0879,-2.6934,-2.3164,-2.0371,-1.8867,-1.8301,-1.9023,-1.9681,-2.0997,-2.3867,-2.4585,-2.6379,-3.0976,-3.2734,-3.4648,-3.7637,-3.875,-3.959,-4.0391,-3.9746,-3.9238,-3.9141,-3.8789,-3.8418,-3.8066,-3.7559,-3.7109,-3.668,-3.6211,-3.5547,-3.4707,-3.4668,-3.4238,-3.3418,-3.2559,-3.2229,-3.2148,-3.1289,-3.0898,-3.0898,-3.0898,-3.0391,0.0,-3.0527,-3.0371,-2.9704,-3.0547,-3.0605,-3.0195,-3.0195,-2.9922,-2.9626,-2.9626,-2.9277,-2.8984,-2.9375,-2.8984,-2.8359,-2.8359,-2.8379,-2.8476,-2.8769,-2.8887,-2.8906,-2.8867,-2.8867,-2.8769,-2.8379,-2.8301,-2.8301,-2.8301,-2.8301,-2.8301,-2.8301,-2.8301,-2.8301,-2.8301,-2.8301,-2.8281,-2.8242,-2.791,-2.7708,-2.7669,-2.6894,-2.6367,-2.6328,-2.5566,-2.5106,-2.5106,-2.4629,-2.4199,-2.3809,-2.375,-2.3555,-2.312,-2.3101,-2.3101,-2.3101,-2.3101,-2.3101,-2.3101,-2.3232,-2.378,-2.4682,-2.3783,-2.3912,-3.8516,-3.998,-4.0898,-3.9766,-3.7422,-3.4219,-2.9726,-2.6152,-2.2832,-1.9453,-1.8359,-1.8125,-1.8457,-1.8652,-1.9492,-2.1738,-2.1875,-2.3359,-2.8144,-2.9687,-3.1934,-3.6269,-3.7754,-3.8769,-3.9648,-3.9414,-3.8984,-3.8476,-3.8047,-3.7832,-3.791,-3.7519,-3.7109,-3.668,-3.625,-3.5586,-3.4707,-3.4707,-3.4277,-3.3418,-3.2832,-3.2422,-3.2148,-3.1543,-3.1133,-3.0898,-3.0898,-3.0098,0.0,-3.0312,-3.0059,-2.8945,-3.0351,-3.0781,-3.0605,-3.0605,-3.0508,-3.0371,-3.0371,-2.9902,-2.9336,-2.9567,-2.8984,-2.834,-2.8594,-2.8496,-2.832,-2.8496,-2.873,-2.8867,-2.8613,-2.8535,-2.8496,-2.834,-2.8301,-2.8359,-2.8613,-2.8672,-2.8672,-2.8672,-2.8672,-2.8594,-2.834,-2.8301,-2.8301,-2.8301,-2.8144,-2.8047,-2.8047,-2.7519,-2.7148,-2.7148,-2.6152,-2.5469,-2.5469,-2.5059,-2.4746,-2.457,-2.4316,-2.3984,-2.3555,-2.3535,-2.3398,-2.3101,-2.3101,-2.3101,-2.3101,-2.3101,-2.3343,-2.38,-2.3996,-2.4016,-3.6523,-3.8633,-4.0176,-3.9258,-3.6719,-3.3242,-2.8691,-2.5352,-2.2227,-1.873,-1.8008,-1.8008,-1.8008,-1.8008,-1.8535,-2.0117,-2.0332,-2.1738,-2.5859,-2.7402,-2.9746,-3.416,-3.5703,-3.6953,-3.832,-3.8789,-3.8769,-3.8164,-3.7715,-3.7559,-3.7734,-3.7344,-3.6973,-3.668,-3.625,-3.5586,-3.4707,-3.4707,-3.4277,-3.3418,-3.2988,-3.2441,-3.1777,-3.1601,-3.1152,-3.0508,-3.0781,-3.0059,0.0,-3.0273,-3.0019,-2.8828,-3.0312,-3.0898,-3.0898,-3.0898,-3.0898,-3.0898,-3.0898,-3.0312,-2.9626,-2.9626,-2.8984,-2.834,-2.8652,-2.8516,-2.8301,-2.8301,-2.8594,-2.8887,-2.8711,-2.8574,-2.8437,-2.832,-2.8301,-2.8398,-2.8828,-2.8926,-2.8945,-2.9082,-2.9004,-2.8828,-2.8535,-2.8379,-2.8301,-2.8301,-2.8301,-2.8301,-2.8301,-2.793,-2.7728,-2.7728,-2.6621,-2.5937,-2.5937,-2.5527,-2.5215,-2.5125,-2.4785,-2.4355,-2.3809,-2.3789,-2.3574,-2.3101,-2.3101,-2.3101,-2.3101,-2.3101,-2.3101,-2.3144,-2.393,-2.3887,-3.5215,-3.7285,-3.8594,-3.8594,-3.5371,-3.1406,-2.8286,-2.4668,-2.1172,-1.8555,-1.8008,-1.8008,-1.8008,-1.8008,-1.8437,-1.9707,-2.0625,-2.2129,-2.4773,-2.6632,-2.8633,-3.125,-3.2324,-3.3867,-3.6445,-3.7851,-3.8574,-3.8574,-3.8164,-3.7734,-3.7324,-3.6894,-3.668,-3.668,-3.625,-3.5586,-3.4707,-3.4707,-3.4277,-3.3418,-3.2988,-3.2129,-3.0918,-3.1328,-3.0801,-2.9629,-3.0508,-3.0391,0.0,-3.0527,-3.0371,-2.9648,-3.0547,-3.0898,-3.0898,-3.0898,-3.0898,-3.0898,-3.0898,-3.0312,-2.9626,-2.9626,-2.8984,-2.8301,-2.8301,-2.8301,-2.8301,-2.8301,-2.8594,-2.9023,-2.9453,-2.9238,-2.8809,-2.8398,-2.8301,-2.8398,-2.8828,-2.8926,-2.9043,-2.9473,-2.9219,-2.8926,-2.8906,-2.8574,-2.8301,-2.8301,-2.8301,-2.8301,-2.8301,-2.793,-2.7728,-2.7728,-2.6894,-2.6387,-2.6387,-2.5977,-2.5547,-2.5145,-2.5106,-2.4668,-2.3828,-2.3789,-2.3574,-2.3101,-2.3101,-2.3101,-2.3101,-2.3101,-2.3101,-2.3101,-2.3101,-2.3101,-2.9902,-3.1777,-3.3105,-3.2207,-3.0293,-2.793,-2.5195,-2.2949,-2.0781,-1.8477,-1.8008,-1.8008,-1.8008,-1.8008,-1.8633,-2.0469,-2.1015,-2.2204,-2.5117,-2.7012,-2.9375,-3.2851,-3.5859,-3.7969,-3.8789,-3.8164,-3.7949,-3.8535,-3.7637,-3.7129,-3.7285,-3.6894,-3.6543,-3.623,-3.6094,-3.5586,-3.4707,-3.4707,-3.4277,-3.3418,-3.3281,-3.2402,-3.0918,-3.1641,-3.1094,-2.9685,-3.0508,-3.0391,-2.9704,-3.0527,-3.0371,-2.9704,-3.0547,-3.0898,-3.0898,-3.0898,-3.0898,-3.0898,-3.0898,-3.0312,-2.9626,-2.9626,-2.8984,-2.834,-2.8633,-2.8516,-2.8418,-2.9004,-2.9258,-2.9394,-2.9531,-2.9473,-2.918,-2.8457,-2.875,-2.9199,-2.9336,-2.959,-2.9824,-2.998,-2.9883,-2.9707,-2.9414,-2.9004,-2.8711,-2.8711,-2.8476,-2.8301,-2.8301,-2.8184,-2.8086,-2.8086,-2.7598,-2.7031,-2.6445,-2.5996,-2.5635,-2.5527,-2.5527,-2.5254,-2.4687,-2.4375,-2.4023,-2.3594,-2.3257,-2.3101,-2.3101,-2.3101,-2.3101,-2.3101,-2.3101,-2.3101,-2.6202,-2.8144,-2.9551,-2.9043,-2.7461,-2.5527,-2.3638,-2.1777,-2.0019,-1.8359,-1.8262,-1.8398,-1.8066,-1.8281,-1.8828,-1.9806,-2.08,-2.2146,-2.4192,-2.6426,-2.9121,-3.2695,-3.6113,-3.832,-3.8652,-3.8125,-3.8008,-3.8535,-3.7539,-3.7031,-3.7285,-3.6738,-3.6289,-3.6035,-3.5859,-3.543,-3.4707,-3.4531,-3.4023,-3.3184,-3.3184,-3.2285,-3.0664,-3.1523,-3.1055,-2.9685,-3.0508,-3.0586,0.0,-3.0664,-3.0566,-3.0117,-3.0684,-3.0898,-3.0859,-3.0703,-3.0742,-3.0859,-3.0684,-3.0156,-2.9626,-2.9626,-2.8984,-2.8379,-2.8789,-2.8848,-2.8926,-2.9609,-2.9744,-2.9609,-2.9766,-2.9687,-2.9434,-2.8906,-2.918,-2.9609,-2.9766,-3.0019,-3.0254,-3.043,-3.0312,-3.0117,-2.9844,-2.9453,-2.9101,-2.8945,-2.8691,-2.8476,-2.832,-2.8301,-2.8301,-2.8301,-2.791,-2.7493,-2.6914,-2.6328,-2.5869,-2.5693,-2.5693,-2.5527,-2.5125,-2.4805,-2.4394,-2.3809,-2.3516,-2.3257,-2.3101,-2.3101,-2.3101,-2.3101,-2.3101,-2.3101,0.0,-2.5869,-2.7246,-2.8008,-2.6074,-2.3809,-2.3027,-2.0977,0.0,-1.8262,-1.873,-1.9062,-1.832,-1.8848,-1.9141,-1.8437,-2.0391,-2.2148,-2.2676,-2.5508,-2.8574,-3.1406,-3.4121,-3.5996,-3.6621,-3.7851,-3.8594,-3.8535,-3.7754,-3.7285,-3.7246,-3.6465,-3.6016,-3.5976,-3.5566,-3.5137,-3.4707,-3.4277,-3.3633,-3.2754,-3.2773,-3.1875,-3.0176,-3.1094,-3.0801,0.0,-3.0508,-3.0898,-3.0898,-3.0898,-3.0898,-3.0879,-3.0859,-3.084,-3.0781,-3.0332,-3.043,-3.0742,-3.0293,-2.9902,-2.9626,-2.9626,-2.9043,-2.8496,-2.8887,-2.9277,-2.9648,-3.0078,-2.9941,-2.9746,-3.0098,-2.9922,-2.9704,-2.959,-2.9665,-2.9766,-3.0117,-3.0215,-3.0371,-3.0801,-3.0547,-3.0254,-3.0254,-2.9902,-2.9473,-2.9062,-2.8965,-2.8769,-2.8398,-2.832,-2.8301,-2.8301,-2.7949,-2.7748,-2.7728,-2.6914,-2.625,-2.5752,-2.5732,-2.5586,-2.5184,-2.5125,-2.4734,-2.3887,-2.3828,-2.3594,-2.314,-2.312,-2.3101,-2.3101,-2.3101,-2.3101,-1.9824,0.0,-2.123,-2.1054,-2.0489,-1.9904,0.0,-1.9202,-1.8828,-1.8965,-1.9141,-1.9434,-1.992,-2.0175,-2.0566,-2.1328,-2.2246,-2.3359,-2.4738,-2.9277,-3.2793,-3.3828,-3.7129,-3.8613,-3.6836,-3.8125,-3.8789,-3.8125,-3.7598,-3.7148,-3.6836,-3.6309,-3.5879,-3.5547,-3.5098,-3.4805,-3.4707,-3.4277,-3.3476,-3.2324,-3.2637,-3.1719,-2.9766,-3.0976,-3.0801,-2.9685,-3.0508,-3.0898,-3.0898,-3.0898,-3.0898,-3.0859,-3.0488,-3.0351,-3.0312,-2.9883,-2.9785,-2.9863,-2.9746,-2.9648,-2.9626,-2.9626,-2.9648,-2.9766,-2.9863,-2.9746,-2.9648,-3.0078,-3.0391,-3.0527,-3.0254,-3.0391,-3.041,-2.9783,-3.0078,-3.0508,-3.0254,-3.0469,-3.0762,-3.0859,-3.0801,-3.0723,-3.0723,-3.0351,-3.0019,-2.9902,-2.9336,-2.8887,-2.8789,-2.8496,-2.8301,-2.8301,-2.8203,-2.8008,-2.7748,-2.7168,-2.668,-2.6269,-2.623,-2.6035,-2.5605,-2.5254,-2.5028,-2.4812,-2.4121,-2.373,-2.3633,-2.3257,-2.3101,-2.3101,-2.3101,-2.3101,-1.8247,-1.8945,-1.95,-1.9144,-1.9126,-1.9134,-1.8826,-1.8573,-1.8535,-1.916,-1.9297,-1.9492,-2.0156,-2.0273,-2.0625,-2.1758,-2.2461,-2.3887,-2.6727,-3.0488,-3.3418,-3.4844,-3.6894,-3.8008,-3.7578,-3.8203,-3.8418,-3.7969,-3.7363,-3.6914,-3.668,-3.6074,-3.5625,-3.541,-3.4746,-3.4414,-3.4414,-3.3984,-3.3027,-3.1582,-3.2207,-3.1484,-2.9665,-3.0723,-3.084,-3.0176,-3.0254,-3.0508,-3.0859,-3.0449,-3.0391,-3.0547,-3.0293,-3.0078,-2.9863,-2.9434,-2.9394,-2.9607,-2.9336,-2.9277,-2.9238,-2.9043,-2.9277,-2.9648,-2.9844,-2.9883,-2.9941,-3.0391,-3.0547,-3.0566,-3.0527,-3.0547,-3.0508,-3.0234,-3.0547,-3.082,-3.0566,-3.0703,-3.0898,-3.0898,-3.0898,-3.0898,-3.0898,-3.0684,-3.0449,-3.0234,-2.9805,-2.9355,-2.8965,-2.8711,-2.8516,-2.832,-2.8301,-2.8203,-2.7969,-2.7734,-2.7344,-2.6719,-2.6504,-2.6289,-2.6055,-2.5605,-2.5273,-2.5125,-2.4414,-2.4082,-2.4082,-2.3848,-2.3686,-2.3686,-2.3686,-2.3588,-1.7923,-1.8904,-1.985,-1.9593,-1.9685,-1.9659,-1.9159,-1.849,-1.8281,-1.9277,-1.9492,-1.9648,-2.0215,-2.0469,-2.082,-2.1483,-2.2676,-2.4902,-2.8945,-3.1074,-3.2969,-3.5039,-3.5762,-3.6641,-3.8047,-3.8086,-3.7969,-3.7832,-3.7109,-3.6621,-3.6484,-3.5781,-3.5293,-3.5098,-3.4355,-3.3906,-3.3789,-3.3476,-3.25,-3.0898,-3.1699,-3.123,-2.9687,-3.0508,-3.0898,-3.0859,0.0,0.0,-3.0723,-2.998,-2.9844,-3.0098,-3.0019,-2.9785,-2.9414,-2.8984,-2.9062,-2.9336,-2.9023,-2.8926,-2.8867,-2.8574,-2.8769,-2.918,-2.9551,-2.9961,-3.0391,-3.0781,-3.0547,-3.0293,-3.0684,-3.0488,-3.0312,-3.0781,-3.0898,-3.0898,-3.0898,-3.0898,-3.0898,-3.0898,-3.0898,-3.0898,-3.0898,-3.0898,-3.0762,-3.0371,-3.0234,-2.9902,-2.9121,-2.8965,-2.8769,-2.834,-2.8301,-2.8301,-2.8301,-2.8301,-2.7988,-2.7246,-2.6816,-2.6523,-2.6387,-2.5977,-2.5566,-2.5176,-2.4746,-2.4512,-2.4512,-2.4453,-2.4414,-2.4414,-2.4414,-2.4238,-1.7497,-1.8856,-1.9734,-1.943,-1.9383,-1.9377,-1.9292,-1.8608,-1.8457,-2.0077,-2.041,-2.0762,-2.1894,-2.2988,-2.3652,-2.3437,-2.5957,-2.8926,-3.1797,-3.4004,-3.5195,-3.4844,-3.7402,-3.8476,-3.6601,-3.7656,-3.8184,-3.7441,-3.6953,-3.6348,-3.5625,-3.5469,-3.4883,-3.375,-3.3594,-3.3184,-3.2522,-3.2754,-3.2226,-3.0898,-3.1387,-3.1074,-3.0117,-3.0644,-3.0898,-3.0879,0.0,-3.0547,-3.0293,-3.0156,-2.9922,-2.9629,-2.9258,-2.9082,-2.8965,-2.8535,-2.8437,-2.8535,-2.8828,-2.8926,-2.8965,-2.9277,-2.9648,-3.0019,-3.0078,-3.043,-3.0801,-3.0879,-3.0547,-3.0215,-3.0293,-3.0254,-3.0312,-3.0781,-3.0898,-3.0898,-3.0898,-3.0898,-3.0898,-3.0898,-3.0898,-3.0898,-3.0898,-3.0898,-3.0859,-3.0801,-3.0449,-3.0019,-2.9531,-2.9141,-2.8769,-2.834,-2.8301,-2.8301,-2.8301,-2.8301,-2.8242,-2.8105,-2.7695,-2.72,-2.6426,-2.5977,-2.5654,-2.5596,-2.5195,-2.4961,-2.4961,-2.459,-2.4414,-2.4414,-2.4414,-2.4375,-1.6237,-1.7339,-1.8306,-1.8612,-1.9869,-2.0628,-1.9016,-1.9047,-1.9506,-1.9911,-2.0313,-2.0894,-2.1851,-2.3133,-2.4707,-2.6602,-2.9414,-3.1777,-3.2969,-3.4199,-3.5078,-3.5371,-3.6836,-3.7519,-3.6777,-3.7422,-3.7617,-3.7012,-3.6348,-3.5801,-3.541,-3.4941,-3.4297,-3.3457,-3.3203,-3.2676,-3.1816,-3.2012,-3.1562,-3.0527,-3.1191,-3.0937,-2.9883,-3.0566,-3.0898,-3.0859,0.0,-2.9961,-3.0137,-2.9453,-2.918,-2.9199,-2.9004,-2.8789,-2.8555,-2.8359,-2.8301,-2.832,-2.8516,-2.8574,-2.8613,-2.8809,-2.9316,-2.9805,-2.957,-3.0156,-3.0801,-3.0312,-3.0371,-3.0566,-3.0566,-3.0566,-3.0625,-3.084,-3.0898,-3.0898,-3.0898,-3.0898,-3.0898,-3.0898,-3.0898,-3.0898,-3.0898,-3.0898,-3.0898,-3.0898,-3.0703,-3.041,-2.9961,-2.9531,-2.9101,-2.8672,-2.8437,-2.8301,-2.8301,-2.8301,-2.8203,-2.7969,-2.7826,-2.7383,-2.6758,-2.6328,-2.6191,-2.6426,-2.5762,-2.5547,-2.5781,-2.5332,-2.5089,-2.5089,-2.5089,-2.5,-1.5045,-1.5853,-1.6821,-1.7562,-1.9653,-2.1022,-1.9169,-1.9727,-2.0483,-1.9997,-2.0509,-2.116,-2.1421,-2.2942,-2.5448,-2.9397,-3.2109,-3.3867,-3.4277,-3.4785,-3.5469,-3.6367,-3.6465,-3.668,-3.7246,-3.7109,-3.6875,-3.6543,-3.5723,-3.5176,-3.5098,-3.4336,-3.3672,-3.3144,-3.2715,-3.2129,-3.1387,-3.1367,-3.1035,-3.0371,-3.1055,-3.084,-2.9902,-3.0586,-3.0898,-3.082,-2.9707,-2.9531,-2.9961,-2.8887,-2.8574,-2.8769,-2.8769,-2.8574,-2.8301,-2.8301,-2.8301,-2.8301,-2.8301,-2.8301,-2.8301,-2.8301,-2.8809,-2.9375,-2.9141,-2.9844,-3.0605,-3.0039,-3.0293,-3.0723,-3.0723,-3.0723,-3.0762,-3.0859,-3.0898,-3.0898,-3.0898,-3.0898,-3.0898,-3.0898,-3.0898,-3.0898,-3.0898,-3.0898,-3.0898,-3.0898,-3.0898,-3.0723,-3.0254,-2.9824,-2.9394,-2.8965,-2.8535,-2.8301,-2.8301,-2.8301,-2.8164,-2.7885,-2.7767,-2.7519,-2.7187,-2.6758,-2.6641,-2.6855,-2.623,-2.5996,-2.623,-2.5898,-2.5693,-2.5693,-2.5693,-2.5547,-1.4561,-1.5389,-1.5892,-1.6335,-1.7539,-1.8959,-2.0328,-2.0579,-2.072,-2.1078,-2.1844,-2.217,-2.1244,-2.3341,-2.6607,-3.0703,-3.3203,-3.5176,-3.6797,-3.7734,-3.8144,-3.7812,-3.7793,-3.7656,-3.7324,-3.6582,-3.6094,-3.6074,-3.5254,-3.459,-3.418,-3.373,-3.3105,-3.2285,-3.1836,-3.1387,-3.0937,-3.0937,-3.0898,-3.084,-3.0898,-3.0879,-3.0801,-3.0859,-3.0898,-3.0859,-3.0332,-2.9922,-2.957,-2.9082,-2.8652,-2.834,-2.834,-2.832,-2.8301,-2.8301,-2.8301,-2.8301,-2.8301,-2.8301,-2.8301,-2.8301,-2.8594,-2.9043,-2.9414,-2.9863,-3.0332,-3.0703,-3.0527,-3.0254,-3.0254,-3.0254,-3.0351,-3.0781,-3.0898,-3.0898,-3.0898,-3.0898,-3.0898,-3.0898,-3.0898,-3.0898,-3.0898,-3.0898,-3.0898,-3.0898,-3.0898,-3.0723,-3.0254,-2.9824,-2.9394,-2.8965,-2.8535,-2.8301,-2.8301,-2.8301,-2.8281,-2.8242,-2.7943,-2.7708,-2.7669,-2.7207,-2.6797,-2.6445,-2.6367,-2.6152,-2.5732,-2.5713,-2.5693,-2.5693,-2.5693,-2.5674,-1.3121,-1.3991,-1.488,-1.5553,-1.702,-1.8365,-1.8935,-2.0963,-2.2356,-2.1171,-2.2919,-2.4757,-2.5115,-2.5439,-2.6759,-3.0064,-3.1402,-3.2506,-3.3606,-3.4014,-3.4156,-3.3996,-3.5083,-3.5489,-3.4836,-3.5486,-3.5801,-3.5234,-3.4394,-3.3828,-3.3672,-3.3008,-3.2383,-3.1777,-3.1601,-3.1328,-3.0898,-3.0898,-3.0898,-3.0898,-3.0898,-3.0898,-3.0898,-3.0898,-3.0898,-3.0859,-3.0117,-2.9726,-2.9512,-2.8809,-2.8437,-2.8301,-2.8301,-2.8301,-2.8301,-2.8301,-2.8301,-2.8301,-2.8301,-2.8301,-2.8301,-2.8301,-2.8769,-2.9297,-2.9199,-2.9844,-3.0605,-3.0488,-3.0332,-3.0273,-3.0547,-3.041,-3.0312,-3.0781,-3.0898,-3.0898,-3.0898,-3.0898,-3.0898,-3.0898,-3.0898,-3.0898,-3.0898,-3.0898,-3.0898,-3.0898,-3.0898,-3.0723,-3.0254,-2.9824,-2.9394,-2.8965,-2.8535,-2.8301,-2.8301,-2.8301,-2.8301,-2.8301,-2.8144,-2.8047,-2.8047,-2.7656,-2.7461,-2.7578,-2.7051,-2.6699,-2.6523,-2.6269,-2.5996,-2.5693,-2.5693,-2.5693,-1.2305,-1.2973,-1.3923,-1.4763,-1.6831,-1.8637,-1.8686,-2.1364,-2.3495,-2.2405,-2.3413,-2.4928,-2.6275,-2.5721,-2.5977,-2.8714,-2.9784,-3.0534,-3.1281,-3.1453,-3.142,-3.1303,-3.234,-3.2809,-3.2068,-3.3391,-3.4108,-3.3516,-3.3179,-3.3027,-3.3027,-3.2344,-3.1816,-3.1523,-3.1387,-3.1191,-3.0898,-3.0742,-3.0664,-3.0664,-3.0141,-3.0257,-3.0898,-3.0898,-3.082,-3.0625,-2.9883,-2.9492,-2.9316,-2.8594,-2.8301,-2.8301,-2.8301,-2.8301,-2.8301,-2.8301,-2.8301,-2.8301,-2.8301,-2.8301,-2.8301,-2.8301,-2.8691,-2.916,-2.9141,-2.9766,-3.0469,-3.043,-3.0312,-3.0312,-3.0762,-3.0547,-3.0312,-3.0781,-3.0898,-3.0898,-3.0898,-3.0898,-3.0898,-3.0898,-3.0898,-3.0898,-3.0898,-3.0898,-3.0898,-3.0898,-3.0898,-3.0781,-3.0449,-2.9922,-2.9355,-2.8789,-2.8457,-2.8301,-2.8301,-2.8301,-2.8301,-2.8301,-2.8301,-2.8301,-2.8301,-2.8027,-2.793,-2.8086,-2.7519,-2.7148,-2.7012,-2.6719,-2.6426,-2.6083,-2.6083,-2.6025,-1.2305,-1.2569,-1.305,-1.3923,-1.6863,-1.9649,-2.0178,-2.1973,-2.385,-2.5046,-2.3342,-2.2162,-2.3724,-2.3769,-2.4405,-2.6874,-2.8638,-2.9959,-3.0811,-3.1054,-3.0993,-3.0484,-3.019,-2.9893,-2.939,-3.0237,-3.0771,-3.0771,-3.1669,-3.2168,-3.2168,-3.1758,-3.1504,-3.1504,-3.1094,-3.0879,-3.0879,-3.043,-3.0195,-3.0195,-2.8605,-2.8886,-3.0879,-3.0879,-3.0625,-3.0176,-2.9746,-2.9316,-2.8887,-2.8457,-2.8301,-2.8301,-2.8301,-2.8301,-2.8301,-2.8301,-2.8301,-2.8301,-2.8301,-2.8301,-2.8301,-2.8301,-2.8301,-2.8457,-2.9316,-2.957,-2.9766,-3.0644,-3.0547,-3.0312,-3.0762,-3.0547,-3.0312,-3.0781,-3.0898,-3.0898,-3.0898,-3.0898,-3.0898,-3.0898,-3.0898,-3.0898,-3.0898,-3.0898,-3.0898,-3.0898,-3.0898,-3.0898,-3.0879,-3.0117,-2.9238,-2.8398,-2.8301,-2.8301,-2.8301,-2.8301,-2.8301,-2.8301,-2.8301,-2.8301,-2.8301,-2.8301,-2.8105,-2.7728,-2.7728,-2.7461,-2.7031,-2.7031,-2.7012,-2.7012,-2.7012,-2.6777,-1.2946,-1.3875,-1.5133,-1.6286,-1.8754,-2.1669,-2.4691,-2.4796,-2.4671,-2.5719,-2.5134,-2.4701,-2.5494,-2.4371,-2.3806,-2.5003,-2.5539,-2.5941,-2.62,-2.6229,-2.6186,-2.5798,-2.6713,-2.719,-2.6697,-2.7917,-2.9084,-2.9959,-3.0045,-3.0517,-3.1639,-3.1309,-3.1074,-3.1074,-3.0644,-3.041,-3.041,-2.998,-2.9766,-2.9746,-2.9295,-2.941,-2.998,-2.9085,-2.9106,-2.9726,-2.9297,-2.9043,-2.8887,-2.8457,-2.8301,-2.8301,-2.8301,-2.8301,-2.8301,-2.8301,-2.8301,-2.8301,-2.8301,-2.8301,-2.8121,-2.7114,-2.7836,-2.9014,-2.7884,-2.8956,-3.0488,-3.043,-3.0293,-3.0312,-3.0762,-3.0547,-3.0312,-3.0781,-3.0898,-3.0898,-3.0898,-3.0898,-3.0898,-3.0898,-3.0898,-3.0898,-3.0898,-3.0898,-3.0898,-3.0898,-3.0898,-3.0781,-3.0449,-2.9922,-2.9355,-2.8789,-2.873,-2.8613,-2.832,-2.8301,-2.8301,-2.8301,-2.8301,-2.8301,-2.8301,-2.8301,-2.8242,-2.8105,-2.8105,-2.7891,-2.748,-2.748,-2.7324,-2.7012,-2.7012,-2.6777,-1.3601,-1.4476,-1.5648,-1.7496,-2.0297,-2.3414,-2.6561,-2.6867,-2.6383,-2.5839,-2.5398,-2.5215,-2.5553,-2.4343,-2.3456,-2.4009,-2.4143,-2.4168,-2.4048,-2.3928,-2.3741,-2.3447,-2.4149,-2.4559,-2.4176,-2.5482,-2.6646,-2.7378,-2.7702,-2.8215,-2.9108,-2.9496,-2.9581,-2.9468,-2.9793,-2.9941,-2.9941,-2.9531,-2.9316,-2.9316,-2.8686,-2.859,-2.9082,-2.8691,-2.8786,-2.9297,-2.8848,-2.8672,-2.8652,-2.8398,-2.8301,-2.8301,-2.8301,-2.8301,-2.8301,-2.8301,-2.8301,-2.8301,-2.8301,-2.8301,-2.8067,-2.6608,-2.7049,-2.8012,-2.703,-2.7863,-2.9317,-2.981,-3.0059,-3.0254,-3.0547,-3.0547,-3.0547,-3.082,-3.0898,-3.0898,-3.0898,-3.0898,-3.0898,-3.0898,-3.0898,-3.0898,-3.0898,-3.0898,-3.082,-3.0644,-3.0605,-3.0449,-3.0,-2.9726,-2.9336,-2.873,-2.8672,-2.8574,-2.832,-2.8301,-2.8359,-2.8535,-2.8379,-2.8359,-2.8535,-2.8379,-2.8301,-2.8301,-2.8301,-2.8164,-2.791,-2.791,-2.7773,-2.7519,-2.7519,-2.7305,-1.4282,-1.466,-1.5394,-1.8049,-2.1577,-2.4853,-2.6356,-2.7938,-2.8286,-2.5607,-2.4716,-2.4493,-2.4583,-2.3941,-2.346,-2.3728,-2.3995,-2.4048,-2.3728,-2.346,-2.3153,-2.2819,-2.2525,-2.2231,-2.1977,-2.3078,-2.3818,-2.3899,-2.5028,-2.5649,-2.5542,-2.6824,-2.7499,-2.7311,-2.8596,-2.9344,-2.9344,-2.9027,-2.8813,-2.8629,-2.729,-2.727,-2.832,-2.903,-2.9167,-2.8793,-2.813,-2.7956,-2.8062,-2.8062,-2.8062,-2.8062,-2.8228,-2.8301,-2.8301,-2.8301,-2.8301,-2.8301,-2.8301,-2.8301,-2.8014,-2.6445,-2.6009,-2.6172,-2.6218,-2.6491,-2.7121,-2.8837,-2.9748,-3.0156,-3.0176,-3.0508,-3.084,-3.0879,-3.0898,-3.0898,-3.0898,-3.0898,-3.0898,-3.0898,-3.0898,-3.0879,-3.084,-3.082,-3.0684,-3.0254,-3.0195,-3.0059,-2.9668,-2.9629,-2.9297,-2.8437,-2.834,-2.834,-2.8301,-2.832,-2.8516,-2.8906,-2.8555,-2.8516,-2.8906,-2.8516,-2.8301,-2.8301,-2.8301,-2.8301,-2.8301,-2.8301,-2.8301,-2.8301,-2.8301,-2.8066,-1.495,-1.5993,-1.7407,-1.9652,-2.3309,-2.6072,-2.5011,-2.6108,-2.6813,-2.4779,-2.548,-2.6028,-2.479,-2.4102,-2.3701,-2.3754,-2.3821,-2.3674,-2.3209,-2.3006,-2.2766,-2.2231,-2.1924,-2.1775,-2.1722,-2.1696,-2.2153,-2.3182,-2.3581,-2.4152,-2.5144,-2.5477,-2.6157,-2.7236,-2.7342,-2.7307,-2.7307,-2.8071,-2.786,-2.6737,-2.7536,-2.8057,-2.8247,-2.7529,-2.7639,-2.8291,-2.5595,-2.5093,-2.6183,-2.6183,-2.6183,-2.6326,-2.7771,-2.8301,-2.8301,-2.8301,-2.8301,-2.8301,-2.8301,-2.8301,-2.7853,-2.5168,-2.5305,-2.6089,-2.3497,-2.4788,-2.7187,-2.7306,-2.8501,-2.9785,-3.0117,-3.0273,-3.043,-3.0801,-3.0898,-3.0898,-3.0898,-3.0898,-3.0898,-3.0898,-3.0898,-3.0781,-3.041,-3.0351,-3.0312,-3.0215,-3.0195,-3.0156,-3.0078,-3.0059,-2.9726,-2.8867,-2.8789,-2.8652,-2.832,-2.8594,-2.8828,-2.8906,-2.8828,-2.8828,-2.8906,-2.8516,-2.8301,-2.8301,-2.8301,-2.8301,-2.8301,-2.8301,-2.8301,-2.8301,-2.8301,-2.8066,-1.5084,-1.6231,-1.8003,-2.1636,-2.3888,-2.5151,-2.5114,-2.5201,-2.51,-2.421,-2.4867,-2.5382,-2.4426,-2.3981,-2.3674,-2.345,-2.334,-2.3126,-2.2525,-2.2445,-2.2271,-2.183,-2.1708,-2.1561,-2.1349,-2.1082,-2.1203,-2.1888,-2.1793,-2.1987,-2.2525,-2.3255,-2.3931,-2.4554,-2.5793,-2.628,-2.6082,-2.7374,-2.7165,-2.5593,-2.6356,-2.6356,-2.5718,-2.5955,-2.6408,-2.6849,-2.4274,-2.362,-2.4314,-2.4314,-2.4419,-2.4664,-2.5577,-2.6064,-2.6227,-2.6952,-2.7222,-2.733,-2.8067,-2.8301,-2.778,-2.4765,-2.4513,-2.4872,-2.2369,-2.301,-2.4861,-2.6074,-2.7271,-2.8388,-2.9364,-2.9883,-3.0254,-3.0508,-3.0723,-3.0898,-3.0898,-3.0898,-3.0898,-3.0898,-3.0898,-3.0742,-3.0273,-2.9863,-2.9648,-2.9863,-2.9726,-2.959,-2.959,-2.9766,-2.9648,-2.8984,-2.9101,-2.9141,-2.8926,-2.9101,-2.9316,-2.9512,-2.9336,-2.9238,-2.9238,-2.8828,-2.8496,-2.8301,-2.8301,-2.8301,-2.8301,-2.8301,-2.8301,-2.8301,-2.8301,-2.8184,-1.487,-1.6152,-1.8209,-2.2817,-2.3476,-2.346,-2.5085,-2.4442,-2.3474,-2.3527,-2.3808,-2.3968,-2.3674,-2.3567,-2.3354,-2.2806,-2.2712,-2.2525,-2.1991,-2.1911,-2.1804,-2.1574,-2.1494,-2.1373,-2.1056,-2.0775,-2.0575,-2.0535,-2.0294,-2.0027,-1.9746,-2.0913,-2.1552,-2.1511,-2.4166,-2.5361,-2.4916,-2.6664,-2.6546,-2.4594,-2.4646,-2.4018,-2.2961,-2.4156,-2.4845,-2.5005,-2.2958,-2.2225,-2.2437,-2.2437,-2.2617,-2.2895,-2.3232,-2.3464,-2.3889,-2.5447,-2.6046,-2.6318,-2.778,-2.8301,-2.778,-2.4765,-2.3822,-2.3487,-2.1756,-2.1415,-2.2194,-2.4931,-2.6115,-2.6957,-2.8504,-2.9453,-3.0019,-3.0156,-3.0488,-3.0801,-3.0879,-3.0898,-3.0898,-3.0898,-3.0762,-3.0566,-3.0254,-2.9434,-2.8984,-2.9492,-2.9199,-2.8945,-2.9023,-2.9355,-2.9434,-2.9062,-2.9355,-2.9626,-2.9626,-2.9629,-2.9824,-3.0176,-2.9805,-2.9626,-2.9626,-2.9082,-2.8652,-2.8301,-2.8301,-2.8301,-2.8301,-2.8301,-2.8301,-2.8301,-2.8301,-2.8301,-1.4376,-1.6593,-1.9095,-2.1086,-2.1703,-2.2123,-2.3079,-2.2755,-2.2298,-2.2552,-2.3046,-2.3354,-2.3046,-2.2766,-2.2485,-2.2151,-2.2098,-2.1991,-2.1722,-2.1681,-2.1496,-2.1203,-2.0949,-2.0775,-2.0735,-2.0468,-2.0187,-1.9933,-1.988,-1.9733,-1.9497,-1.9645,-2.0172,-2.1167,-2.2757,-2.3411,-2.3081,-2.5763,-2.5726,-2.3014,-2.3121,-2.3068,-2.2838,-2.1571,-2.1831,-2.3118,-2.0023,-1.9409,-2.0658,-2.0658,-2.0688,-2.0856,-2.238,-2.3154,-2.3632,-2.5147,-2.5847,-2.6318,-2.778,-2.8301,-2.778,-2.4765,-2.3822,-2.3263,-2.0544,-2.0587,-2.1983,-2.3654,-2.5075,-2.6591,-2.8427,-2.9004,-2.9277,-3.0019,-3.0234,-3.0391,-3.0801,-3.0898,-3.0898,-3.0898,-3.0273,-2.9844,-3.0137,-2.918,-2.8652,-2.9509,-2.9199,-2.9062,-2.9434,-2.9531,-2.9607,-2.9492,-2.9531,-2.9626,-2.9626,-2.9902,-3.0137,-3.0195,-2.9805,-2.9626,-2.9626,-2.8809,-2.834,-2.8301,-2.8301,-2.8301,-2.8301,-2.8301,-2.8301,-2.8301,-2.8301,-2.8301,-1.5044,-1.6446,-1.7996,-2.0294,-2.0601,-2.0743,-2.2058,-2.1911,-2.163,-2.2084,-2.2392,-2.2539,-2.2392,-2.2271,-2.2084,-2.179,-2.1815,-2.1643,-2.1349,-2.1309,-2.1189,-2.0895,-2.0762,-2.0615,-2.0441,-2.016,-1.9933,-1.9813,-1.9653,-1.9426,-1.9132,-1.9118,-1.9255,-1.9653,-2.1042,-2.1634,-2.1237,-2.334,-2.3238,-2.094,-2.0272,-1.9955,-1.9888,-1.9137,-1.9767,-2.1327,-1.8851,-1.8141,-1.8816,-1.8816,-1.8876,-1.9099,-1.9872,-2.0338,-2.0868,-2.2487,-2.3141,-2.3541,-2.5191,-2.5772,-2.5443,-2.3263,-2.2589,-2.2153,-2.004,-1.9866,-2.0873,-2.3151,-2.4267,-2.5423,-2.7902,-2.875,-2.9004,-2.9394,-2.9844,-3.0254,-3.0449,-3.0703,-3.0898,-3.0898,-3.0176,-2.9685,-2.9805,-2.8984,-2.8418,-2.8789,-2.8691,-2.873,-2.9141,-2.9414,-2.9668,-2.9902,-3.0156,-3.0312,-3.0312,-3.0488,-3.0586,-3.0586,-3.0176,-2.9824,-2.9646,-2.8965,-2.8535,-2.8301,-2.8301,-2.8301,-2.8301,-2.8301,-2.8301,-2.8301,-2.8301,-2.8301,-1.5057,-1.5712,-1.6433,-1.8931,-1.9229,-1.9283,-2.0842,-2.0922,-2.0855,-2.151,-2.171,-2.1764,-2.1764,-2.183,-2.175,-2.1454,-2.14,-2.1256,-2.1029,-2.0935,-2.0828,-2.0695,-2.0548,-2.0361,-2.0147,-1.9786,-1.9573,-1.9573,-1.9305,-1.9052,-1.8824,-1.8811,-1.8677,-1.8384,-1.9805,-2.0339,-1.9882,-2.0865,-2.0692,-1.9388,-1.8099,-1.7475,-1.7475,-1.7475,-1.8265,-1.9447,-1.8163,-1.7582,-1.7582,-1.7582,-1.7716,-1.7876,-1.7876,-1.8116,-1.8562,-2.027,-2.0998,-2.1345,-2.3093,-2.3739,-2.3543,-2.2081,-2.1586,-2.1301,-1.9866,-1.943,-2.004,-2.2999,-2.3822,-2.4488,-2.7511,-2.8516,-2.8789,-2.8906,-2.9414,-2.9961,-3.0293,-3.0644,-3.0898,-3.0898,-3.0176,-2.9609,-2.9707,-2.8926,-2.832,-2.8437,-2.8359,-2.8476,-2.9023,-2.9375,-2.9785,-3.0312,-3.0684,-3.0898,-3.0898,-3.0898,-3.0898,-3.0898,-3.0449,-3.0059,-2.9746,-2.9199,-2.8769,-2.8457,-2.834,-2.8301,-2.8301,-2.8301,-2.8301,-2.8301,-2.8301,-2.8301,-1.3467,-1.4146,-1.491,-1.6179,-1.6938,-1.7635,-1.8811,-1.9279,-1.9706,-2.0561,-2.0962,-2.1149,-2.1149,-2.139,-2.1454,-2.0815,-2.0722,-2.0722,-2.0695,-2.0454,-2.0374,-2.0641,-2.0187,-1.984,-1.9826,-1.9305,-1.8971,-1.8971,-1.8704,-1.8531,-1.8517,-1.8517,-1.837,-1.8022,-1.942,-1.9852,-1.9259,-1.9029,-1.8863,-1.875,-1.7733,-1.7219,-1.7219,-1.7219,-1.7284,-1.7362,-1.7514,-1.7582,-1.7582,-1.7582,-1.7595,-1.7609,-1.7609,-1.7796,-1.8225,-1.9755,-2.0662,-2.1314,-2.2873,-2.3596,-2.3543,-2.2081,-2.1586,-2.1301,-1.9866,-1.943,-2.004,-2.2999,-2.3822,-2.4488,-2.7511,-2.832,-2.8418,-2.8828,-2.8945,-2.9336,-3.0586,-3.0879,-3.0898,-3.0898,-3.0176,-2.9687,-3.0098,-2.9121,-2.8437,-2.8828,-2.8555,-2.8594,-2.9434,-2.9551,-2.9902,-3.0762,-3.0879,-3.0898,-3.0898,-3.0898,-3.0898,-3.0898,-3.0449,-3.0176,-3.0156,-2.9355,-2.8906,-2.8887,-2.8496,-2.8301,-2.8301,-2.8301,-2.8301,-2.8301,-2.8301,-2.8301,-1.3134,-1.3373,-1.3802,-1.5324,-1.5591,-1.5872,-1.7435,-1.8156,-1.8597,-1.8918,-1.9813,-2.0428,-2.0054,-2.0535,-2.0922,-2.0708,-2.0521,-2.0388,-2.0388,-2.0294,-2.0201,-2.012,-1.9933,-1.9653,-1.9279,-1.9052,-1.8851,-1.8664,-1.8822,-1.8735,-1.8196,-1.8282,-1.8095,-1.7527,-1.7791,-1.7826,-1.7602,-1.7491,-1.7435,-1.7385,-1.7059,-1.686,-1.686,-1.686,-1.686,-1.6874,-1.6967,-1.7128,-1.7353,-1.7353,-1.746,-1.7582,-1.7582,-1.7649,-1.7822,-1.8547,-1.897,-1.9262,-2.0197,-2.0581,-2.0599,-2.0301,-2.0199,-2.0097,-1.9533,-1.943,-1.9822,-2.1813,-2.3095,-2.4267,-2.6336,-2.7618,-2.8398,-2.8809,-2.8926,-2.9199,-3.0234,-3.0684,-3.0898,-3.0898,-3.0176,-2.9665,-2.9766,-2.8965,-2.834,-2.8496,-2.8613,-2.8906,-2.9492,-2.9805,-3.0098,-3.041,-3.0449,-3.0332,-3.0059,-3.0293,-3.0449,-3.0449,-3.0293,-3.0195,-3.0195,-2.9375,-2.8926,-2.8926,-2.8516,-2.8301,-2.8301,-2.8301,-2.8301,-2.8301,-2.8301,-2.8301,-1.2799,-1.2759,-1.2971,-1.4322,-1.4362,-1.4469,-1.5939,-1.6874,-1.7488,-1.7702,-1.8918,-1.9826,-1.9497,-1.984,-2.0267,-2.0361,-2.0214,-2.0094,-2.0094,-2.0,-1.9907,-1.9813,-1.9626,-1.9345,-1.8958,-1.8744,-1.8488,-1.8357,-1.8557,0.0,-1.7742,-1.7886,-1.7644,-1.7045,-1.6714,-1.6567,-1.6567,-1.646,-1.6406,-1.642,-1.6513,-1.6567,-1.6567,-1.6567,-1.6567,-1.6553,-1.646,-1.6687,-1.7206,-1.7206,-1.7367,-1.7582,-1.7582,-1.7582,-1.7609,-1.7809,-1.7902,-1.8062,-1.8611,-1.8838,-1.8971,-1.9265,-1.943,-1.943,-1.943,-1.943,-1.9707,-2.1202,-2.2307,-2.3543,-2.559,-2.7168,-2.8359,-2.8633,-2.8809,-2.9082,-2.9648,-3.0234,-3.0703,-3.0859,-3.0293,-2.9726,-2.959,-2.9101,-2.8672,-2.8535,-2.8867,-2.9297,-2.9726,-3.0019,-3.0195,-3.0195,-3.0195,-3.0019,-2.9609,-2.9961,-3.0195,-3.0195,-3.0351,-3.043,-3.043,-2.959,-2.9141,-2.9141,-2.8574,-2.8301,-2.8301,-2.8301,-2.8301,-2.8301,-2.8301,-2.8301,0.0,0.0,0.0,-1.3026,-1.3173,-1.3414,-1.4226,-1.5378,-1.6415,-1.7005,-1.8305,-1.935,-1.935,-1.9363,-1.9412,-1.9693,-1.9746,-1.976,-1.976,-1.9519,-1.9452,-1.9733,-1.9265,-1.8905,-1.8891,-1.8328,-1.7982,-1.7969,-1.7729,-1.7474,-1.7206,-1.7179,-1.7032,-1.6687,-1.6406,-1.6308,-1.6308,-1.5979,-1.5784,-1.5784,-1.6126,-1.6308,-1.6308,-1.6308,-1.6308,-1.6295,-1.5952,-1.6326,-1.7179,-1.7179,-1.7353,-1.7569,-1.7569,-1.7569,-1.7582,-1.7582,-1.7769,-1.8022,-1.8384,-1.8677,-1.8958,-1.9265,-1.943,-1.943,-1.943,-1.943,-1.9707,-2.1145,-2.1586,-2.2307,-2.5316,-2.7168,-2.8301,-2.8301,-2.8613,-2.8906,-2.8926,-2.959,-3.0312,-3.0781,-3.0488,-3.0059,-2.9648,-2.9626,-2.9434,-2.9004,-2.9316,-2.9726,-3.0137,-3.0215,-3.0215,-3.0195,-3.0195,-3.0019,-2.9609,-2.9961,-3.0195,-3.0195,-3.0644,-3.0879,-3.0879,-3.0039,-2.957,-2.9551,-2.873,-2.8301,-2.8301,-2.8301,-2.8301,-2.8301,-2.8301,-2.8301,-1.2051,0.0,0.0,0.0,0.0,0.0,-1.3172,-1.403,-1.4803,-1.5164,-1.642,-1.7448,-1.7448,-1.7969,-1.837,-1.8223,-1.8557,-1.8851,-1.8851,-1.8784,-1.8771,-1.8838,-1.8704,-1.8531,-1.8249,-1.8089,-1.7809,0.0,-1.7672,-1.752,-1.6871,-1.6633,-1.638,-1.6086,-1.5992,-1.5952,-1.5952,-1.5872,-1.5784,-1.5784,-1.5912,-1.5952,-1.5952,-1.5952,-1.5952,-1.5952,-1.5824,-1.6086,-1.6563,-1.6563,-1.6857,-1.7326,-1.7326,-1.7447,-1.7582,-1.7582,-1.7635,-1.7782,-1.8303,-1.8544,-1.8691,-1.9199,-1.943,-1.943,-1.943,-1.943,-1.9475,-1.9866,-2.0759,-2.2307,-2.5316,-2.7168,-2.8301,-2.8301,-2.8379,-2.8555,-2.8848,-2.9355,-2.9863,-3.0312,-3.0039,-2.9805,-3.0,-2.9766,-2.9587,-2.9414,-2.9746,-3.0059,-3.0176,-3.0488,-3.0566,-3.0234,-3.0195,-3.0019,-2.9609,-2.9961,-3.0195,-3.0195,-3.0644,-3.0742,-3.041,-2.9863,-2.9414,-2.9101,-2.8574,-2.8301,-2.8301,-2.8301,-2.8301,-2.8301,-2.8301,-2.8301,-1.2288,-1.2301,-1.2318,-1.2412,0.0,0.0,-1.2529,-1.316,-1.3801,-1.4053,-1.5324,-1.6259,-1.6019,-1.6607,-1.697,-1.6714,-1.7074,-1.7595,-1.8223,-1.841,-1.845,-1.8317,-1.8196,-1.7996,-1.7702,-1.7555,-1.7341,-1.6994,-1.723,-1.7148,-1.6576,-1.6246,-1.6005,-1.5832,-1.5784,-1.5784,-1.5784,-1.5784,-1.5784,-1.5784,-1.5784,-1.5784,-1.5784,-1.5784,-1.5784,-1.5784,-1.5784,-1.5925,-1.6086,-1.6086,-1.6513,-1.7206,-1.7206,-1.738,-1.7582,-1.7582,-1.7582,-1.7675,-1.8277,-1.849,-1.8584,-1.9172,-1.943,-1.943,-1.943,-1.943,-1.943,-1.943,-2.0486,-2.1968,-2.3766,-2.5772,-2.7384,-2.7384,-2.7833,-2.8359,-2.8613,-2.8848,-2.9258,-3.0039,-3.0156,-3.0137,-3.0176,-3.0156,-3.0059,-2.9863,-3.0215,-3.0488,-3.0488,-3.0723,-3.0703,-3.0254,-3.0195,-3.0019,-2.9609,-2.9961,-3.0195,-3.0195,-3.0449,-3.0566,-3.0488,-2.9726,-2.9258,-2.9199,-2.8594,-2.8301,-2.8301,-2.8301,-2.8301,-2.8301,-2.8301,-2.8301,-1.265,-1.2543,-1.2438,-1.2973,-1.2492,0.0,-1.2198,-1.2652,-1.3106,-1.3387,-1.4492,-1.5297,-1.4901,-1.5244,-1.5538,-1.5244,-1.5498,-1.6171,-1.7556,-1.809,-1.817,-1.7782,-1.7609,-1.7434,-1.7179,-1.686,-1.6687,-1.666,-1.662,-1.65,-1.6233,-1.5979,-1.5784,-1.5784,-1.5784,-1.5784,-1.5784,-1.5784,-1.5784,-1.5784,-1.5784,-1.5784,-1.5784,-1.5784,-1.5784,-1.5784,-1.5784,-1.5784,-1.5784,-1.5784,-1.6313,-1.7112,-1.7139,-1.7326,-1.7542,-1.7569,-1.7582,-1.7662,-1.8237,-1.8464,-1.8584,-1.9132,-1.9345,-1.943,-1.943,-1.943,-1.943,-1.943,-2.0486,-2.1586,-2.1586,-2.371,-2.5827,-2.5827,-2.6987,-2.8087,-2.8125,-2.8291,-2.8789,-2.9961,-3.0488,-3.0625,-3.0254,-3.0586,-3.0742,-3.0273,-3.0586,-3.0898,-3.0898,-3.0898,-3.0742,-3.0312,-3.0273,-3.0117,-2.9746,-3.0059,-3.0254,-3.0195,-3.0195,-3.0351,-3.0723,-2.9609,-2.918,-2.957,-2.8769,-2.834,-2.8301,-2.8301,-2.8301,-2.8301,-2.8301,-2.8301,-1.2305,-1.2345,-1.2331,-1.2452,-1.2171,0.0,-1.198,-1.1864,-1.1895,-1.2452,-1.2786,-1.3106,-1.348,-1.4028,-1.4335,-1.3986,-1.4629,-1.5404,-1.6104,-1.6714,-1.686,-1.6277,-1.662,-1.686,-1.6794,-1.674,-1.6607,-1.638,-1.6139,-1.5931,-1.5912,-1.5858,-1.5784,-1.5784,-1.5784,-1.5784,-1.5784,-1.5784,-1.5784,-1.5784,-1.5784,-1.5784,-1.5784,-1.5784,-1.5784,-1.5784,-1.5784,-1.5784,-1.5784,-1.5784,-1.6072,-1.6522,-1.67,-1.6967,-1.7313,-1.7502,-1.7582,-1.7635,-1.8009,-1.829,-1.8544,-1.8891,-1.9172,-1.943,-1.943,-1.943,-1.943,-1.943,-2.0486,-2.1586,-2.1586,-2.2927,-2.4267,-2.4267,-2.5426,-2.6646,-2.6921,-2.8216,-2.9492,-3.0078,-3.0,-2.9902,-3.0156,-3.0586,-3.0742,-3.0273,-3.0586,-3.0898,-3.0898,-3.0898,-3.0859,-3.0762,-3.0762,-3.0723,-3.0644,-3.0703,-3.0586,-3.0215,-3.0195,-3.0078,-2.9844,-2.957,-2.9492,-2.9626,-2.9062,-2.8633,-2.8301,-2.8301,-2.8301,-2.8301,-2.8301,-2.8301,-1.2476,-1.2412,-1.2345,-1.2529,-1.2234,0.0,0.0,-1.165,-1.173,-1.2024,-1.2355,-1.2569,-1.2545,-1.3026,-1.332,-1.3026,-1.3467,-1.4003,-1.4255,-1.5311,-1.5939,-1.5645,-1.6005,-1.6219,-1.6059,-1.6179,-1.6206,-1.6059,-1.5912,-1.5784,-1.5784,-1.5784,-1.5784,-1.5784,-1.5784,-1.5784,-1.5784,-1.5784,-1.5784,-1.5784,-1.5784,-1.5784,-1.5784,-1.5784,-1.5784,-1.5784,-1.5784,-1.5784,-1.5784,-1.5784,-1.6005,-1.6348,-1.6593,-1.6887,-1.7233,-1.7475,-1.7582,-1.7622,-1.7929,-1.8237,-1.8544,-1.8824,-1.9118,-1.943,-1.943,-1.943,-1.943,-1.943,-1.9924,-2.0472,-2.0472,-2.1601,-2.2702,-2.2702,-2.3877,-2.5273,-2.6457,-2.7437,-2.8576,-2.9964,-3.0019,-2.9941,-3.0156,-3.0215,-3.0156,-2.9922,-3.0078,-3.0234,-3.0234,-3.0234,-3.0312,-3.0527,-3.0547,-3.0644,-3.0879,-3.0898,-3.0393,-2.9163,-2.9583,-2.96,-2.8823,-2.9063,-2.9355,-2.9626,-2.9355,-2.9043,-2.8613,-2.8613,-2.8496,-2.8301,-2.8301,-2.8301,-1.2623,-1.2516,-1.2358,-1.2636,-1.2382,-1.198,0.0,0.0,0.0,-1.1926,-1.2328,-1.2529,-1.2007,-1.2342,-1.2583,-1.2184,-1.2422,-1.261,-1.261,-1.3856,-1.4763,-1.487,-1.515,-1.5212,-1.507,-1.5378,-1.5584,-1.5691,-1.5744,-1.5784,-1.5784,-1.5784,-1.5784,-1.5784,-1.5784,-1.5784,-1.5784,-1.5784,-1.5784,-1.5784,-1.5784,-1.5784,-1.5784,-1.5784,-1.5784,-1.5784,-1.5784,-1.5784,-1.5784,-1.5784,-1.5965,-1.6219,-1.6567,-1.6887,-1.7233,-1.7475,-1.7582,-1.7609,-1.7849,-1.8183,-1.8531,-1.8771,-1.9078,-1.943,-1.943,-1.943,-1.943,-1.943,-1.943,-1.943,-1.943,-2.0256,-2.1202,-2.1202,-2.2322,-2.3809,-2.5488,-2.6081,-2.6857,-2.8861,-2.9184,-2.9355,-2.9964,-2.9863,-2.9629,-2.9473,-2.9512,-2.9626,-2.9626,-2.9704,-2.9824,-3.0156,-3.0195,-3.0256,-3.0412,-3.0315,-2.9408,-2.7508,-2.8464,-2.871,-2.7879,-2.8766,-2.9414,-2.9687,-2.9744,-2.9473,-2.9043,-2.8965,-2.8711,-2.8301,-2.8301,-2.8301,-1.2278,-1.2331,-1.2305,-1.2345,-1.2543,-1.2543,-1.198,0.0,-1.2529,-1.2007,0.0,-1.2251,-1.1966,0.0,0.0,-1.161,-1.177,-1.2007,-1.2007,-1.2181,-1.2502,-1.3025,-1.332,-1.3601,-1.3773,-1.4306,-1.4883,-1.5404,-1.5685,-1.5784,-1.5784,-1.5784,-1.5784,-1.5784,-1.5784,-1.5784,-1.5784,-1.5784,-1.5784,-1.5784,-1.5784,-1.5784,-1.5784,-1.5784,-1.5784,-1.5784,-1.5784,-1.5784,-1.5784,-1.5784,-1.5798,-1.5891,-1.6486,-1.6887,-1.7233,-1.7475,-1.7582,-1.7582,-1.7622,-1.8009,-1.8504,-1.8531,-1.8918,-1.943,-1.943,-1.943,-1.943,-1.943,-1.943,-1.943,-1.943,-1.9533,-1.9649,-1.9649,-2.0759,-2.2017,-2.2567,-2.3795,-2.4939,-2.5575,-2.5601,-2.6353,-2.918,-2.9922,-2.9863,-2.9101,-2.9316,-2.9626,-2.9626,-2.9902,-3.0137,-3.0195,-3.0195,-2.9776,-2.8747,-2.8068,-2.7,-2.5369,-2.6363,-2.7137,-2.7347,-2.9527,-3.0488,-3.0137,-3.0137,-2.9922,-2.9492,-2.9101,-2.8711,-2.8301,-2.8301,-2.8301,-1.2705,-1.2826,-1.2826,-1.2826,-1.2919,-1.2946,-1.2705,-1.2572,-1.2502,-1.2435,0.0,0.0,0.0,0.0,0.0,0.0,-1.1637,-1.161,-1.161,-1.135,-1.1484,-1.2409,-1.2797,0.0,-1.3841,-1.3814,-1.4001,-1.4589,-1.491,-1.507,-1.507,-1.5551,-1.5784,-1.5784,-1.5784,-1.5784,-1.5784,-1.5784,-1.5784,-1.5784,-1.5784,-1.5784,-1.5784,-1.5784,-1.5784,-1.5784,-1.5784,-1.5784,-1.5784,-1.5784,-1.5925,-1.6112,-1.6353,-1.6633,-1.6954,-1.7408,-1.7582,-1.7582,-1.7582,-1.7862,-1.829,-1.8624,-1.9025,-1.943,-1.943,-1.943,-1.943,-1.943,-1.943,-1.943,-1.943,-1.943,-1.943,-1.943,-1.9866,-2.0672,-2.1931,-2.2702,-2.361,-2.5109,-2.5343,-2.5629,-2.6681,-2.7541,-2.8164,-2.847,-2.8711,-2.8828,-2.8828,-2.8984,-2.9277,-2.9785,-2.9824,-2.9412,-2.8282,-2.7893,-2.6951,-2.5144,-2.6544,-2.7932,-2.8918,-3.0238,-3.0801,-3.0605,-3.0605,-3.0371,-2.9941,-2.9746,-2.9453,-2.9023,-2.8535,-2.8301,-1.3333,-1.3454,-1.3414,-1.3253,-1.3267,-1.328,-1.312,-1.2812,0.0,-1.2864,-1.2705,0.0,0.0,0.0,-1.2342,-1.1966,0.0,-1.1482,-1.1402,-1.0995,-1.1028,-1.185,-1.2007,-1.2413,0.0,-1.2909,-1.2935,-1.3681,-1.3903,-1.3986,-1.3986,-1.4831,-1.5296,-1.5296,-1.5629,-1.5784,-1.5784,-1.5784,-1.5784,-1.5784,-1.5784,-1.5784,-1.5784,-1.5784,-1.5784,-1.5784,-1.5784,-1.5784,-1.5784,-1.5784,-1.5952,-1.6152,-1.6246,-1.6446,-1.6767,-1.7275,-1.7515,-1.7582,-1.7582,-1.7836,-1.8263,-1.8851,-1.9185,-1.943,-1.943,-1.943,-1.943,-1.943,-1.943,-1.943,-1.943,-1.943,-1.943,-1.943,-1.943,-1.9761,-2.1162,-2.1423,-2.2021,-2.4077,-2.4687,-2.4956,-2.535,-2.6224,-2.7065,-2.7606,-2.811,-2.8418,-2.8301,-2.8398,-2.875,-2.9548,-2.9453,-2.9029,-2.8028,-2.7767,-2.7089,-2.5782,-2.7133,-2.8663,-3.0138,-3.0644,-3.0898,-3.0898,-3.0898,-3.0723,-3.0391,-3.0254,-3.0039,-2.9726,-2.8984,-2.8633,0.0,0.0,0.0,-1.336,0.0,0.0,0.0,0.0,-1.3186,0.0,0.0,0.0,-1.2824,-1.277,-1.2583,-1.2007,-1.1899,0.0,0.0,-1.1169,-1.0995,-1.1035,-1.0545,-1.0527,-1.1391,-1.1242,-1.1554,-1.2747,-1.2745,-1.2677,-1.2677,-1.3508,-1.3968,-1.3968,-1.514,-1.5784,-1.5784,-1.5784,-1.5784,-1.5784,-1.5784,-1.5784,-1.5784,-1.5784,-1.5784,-1.5784,-1.5784,-1.5784,-1.5784,-1.5784,-1.5784,-1.5872,-1.6166,-1.6446,-1.674,-1.7099,-1.7393,-1.7582,-1.7582,-1.7969,-1.8571,-1.9158,-1.9417,-1.943,-1.943,-1.943,-1.943,-1.943,-1.943,-1.943,-1.943,-1.943,-1.943,-1.943,-1.943,-1.943,-1.9488,-1.9488,-1.9952,-2.146,-2.227,-2.3603,-2.6169,-2.7251,-2.7398,-2.6336,-2.7725,-2.875,-2.834,-2.8652,-2.9082,-2.9531,-2.9199,-2.8592,-2.7893,-2.7146,-2.6857,-2.7218,-2.773,-2.8663,-3.0138,-3.0644,-3.0898,-3.0898,-3.0898,-3.0879,-3.0859,-3.041,-3.0195,-3.0176,-2.9726,-2.9587,0.0,0.0,-1.466,-1.4416,0.0,0.0,0.0,0.0,0.0,0.0,0.0,0.0,0.0,-1.2623,-1.2385,-1.2184,-1.2158,-1.2051,0.0,-1.1303,-1.0995,-1.0995,-1.0989,-1.1079,-1.1368,-1.1002,-1.1037,-1.1815,-1.1834,-1.1904,-1.212,-1.351,-1.4321,-1.4321,-1.5292,-1.5784,-1.5784,-1.5784,-1.5784,-1.5784,-1.5784,-1.5784,-1.5784,-1.5784,-1.5784,-1.5784,-1.5784,-1.5784,-1.5784,-1.5784,-1.5784,-1.5811,-1.6152,-1.6446,-1.674,-1.7085,-1.738,-1.7609,-1.7822,-1.8156,-1.8557,-1.8945,-1.9212,-1.943,-1.943,-1.943,-1.943,-1.943,-1.943,-1.943,-1.943,-1.943,-1.943,-1.943,-1.943,-1.9426,-1.9613,-1.9653,-1.9937,-2.0856,-2.1227,-2.1979,-2.4004,-2.5608,-2.6918,-2.7806,-2.8481,-2.8867,-2.873,-2.9082,-2.9512,-2.9941,-2.9844,-2.924,-2.8046,-2.7712,-2.7622,-2.7748,-2.91,-3.0122,-3.0644,-3.082,-3.0898,-3.0898,-3.0898,-3.0898,-3.0898,-3.0742,-3.0644,-3.0644,-3.0508,-3.0137,-1.5164,-1.5271,0.0,-1.5062,-1.4727,0.0,-1.4509,0.0,-1.3547,0.0,0.0,0.0,0.0,-1.2759,-1.2559,-1.2331,-1.2385,-1.2318,0.0,-1.1578,-1.1229,-1.0875,-1.0813,-1.0938,-1.1242,-1.0658,-1.0502,-1.1069,-1.0951,-1.0999,-1.1348,-1.2946,-1.3893,-1.3951,-1.514,-1.5784,-1.5784,-1.5784,-1.5784,-1.5784,-1.5784,-1.5784,-1.5784,-1.5784,-1.5784,-1.5784,-1.5784,-1.5784,-1.5784,-1.5784,-1.5885,-1.6005,-1.6206,-1.6513,-1.6887,-1.7125,-1.7447,-1.7769,-1.7916,-1.8249,-1.8677,-1.8865,-1.9118,-1.943,-1.943,-1.943,-1.943,-1.943,-1.943,-1.943,-1.943,-1.943,-1.943,-1.943,-1.9452,-1.9573,-1.976,-1.988,-2.0247,-2.1161,-2.1925,-2.2883,-2.4499,-2.6296,-2.7656,-2.8069,-2.8713,-2.8862,-2.8138,-2.8829,-2.9327,-2.9374,-2.9717,-2.9679,-2.8836,-2.8779,-2.8853,-2.9002,-3.0179,-3.0898,-3.0898,-3.0898,-3.0957,-3.1113,-3.0957,-3.0957,-3.1113,-3.0957,-3.0898,-3.0898,-3.0898,-3.0586]},{"header":{"parameterUnit":"m.s-1","parameterCategory":1,"la1":30.6,"la2":29.2853,"lo1":-89.7004,"lo2":-87.6739,"dy":0.0162,"dx":0.0183,"nx":112,"ny":82,"refTime":"2023-04-26T00:00:00:Z","depth":0,"parameterNumber":3,"parameterNumberName":"V-component_of_WINDS"},"data":[0.0,0.0,0.0,0.0,0.0,0.0,0.0,0.0,0.0,0.0,0.0,0.0,0.0,0.0,0.0,0.0,0.0,0.0,0.0,0.0,0.0,0.0,0.0,0.0,0.0,0.0,0.0,0.0,0.0,0.0,0.0,0.0,0.0,0.0,0.0,0.0,0.0,0.0,0.0,0.0,0.0,0.0,0.0,0.0,0.0,0.0,0.0,0.0,0.0,0.0,0.0,0.0,0.0,0.0,0.0,0.0,0.0,0.0,0.0,0.0,0.0,0.0,0.0,0.0,0.0,0.0,0.0,0.0,0.0,0.0,0.0,0.0,0.0,0.0,0.0,0.0,0.0,0.0,0.0,0.0,0.0,0.0,0.0,0.0,0.0,0.0,0.0,0.0,0.0,0.0,1.5518,1.8334,2.155,2.3887,2.4821,2.3173,2.05,1.6866,0.0,0.0,0.0,0.0,0.0,0.0,0.0,0.0,0.0,0.0,0.0,0.0,0.0,0.0,0.0,0.0,0.0,0.0,0.0,0.0,0.0,0.0,0.0,0.0,0.0,0.0,0.0,0.0,0.0,0.0,0.0,0.0,0.0,0.0,0.0,0.0,0.0,0.0,0.0,0.0,0.0,0.0,0.0,0.0,0.0,0.0,0.0,0.0,0.0,0.0,0.0,0.0,0.0,0.0,0.0,0.0,0.0,0.0,0.0,0.0,0.0,0.0,0.0,0.0,0.0,0.0,0.0,0.0,0.0,0.0,0.0,0.0,0.0,0.0,0.0,0.0,0.0,0.0,0.0,0.0,0.0,0.0,0.0,0.0,0.0,0.0,0.0,0.0,0.0,0.0,0.0,0.0,0.0,0.0,0.0,0.0,0.0,0.0,0.0,0.0,0.0,0.0,0.0,0.0,1.7728,2.3438,2.475,2.5284,2.5436,2.2674,1.9898,1.7407,0.0,0.0,0.0,0.0,0.0,0.0,0.0,0.0,0.0,0.0,0.0,0.0,0.0,0.0,0.0,0.0,0.0,0.0,0.0,0.0,0.0,0.0,0.0,0.0,0.0,0.0,0.0,0.0,0.0,0.0,0.0,0.0,0.0,0.0,0.0,0.0,0.0,0.0,0.0,0.0,0.0,0.0,0.0,0.0,0.0,0.0,0.0,0.0,0.0,0.0,0.0,0.0,0.0,0.0,0.0,0.0,0.0,0.0,0.0,0.0,0.0,0.0,0.0,0.0,0.0,0.0,0.0,0.0,0.0,0.0,0.0,0.0,0.0,0.0,0.0,0.0,0.0,0.0,0.0,0.0,0.0,0.0,0.0,0.0,0.0,0.0,0.0,0.0,0.0,0.0,0.0,0.0,0.0,0.0,0.0,0.0,0.0,0.0,0.0,0.0,0.0,0.0,0.0,1.7191,2.1001,2.5803,2.5899,2.56,2.5595,2.2567,1.9614,1.7082,1.5157,0.0,0.0,0.0,0.0,0.0,0.0,0.0,0.0,0.0,0.0,0.0,0.0,0.0,0.0,0.0,0.0,0.0,0.0,0.0,0.0,0.0,0.0,0.0,0.0,0.0,0.0,0.0,0.0,0.0,0.0,0.0,0.0,0.0,0.0,0.0,0.0,0.0,0.0,0.0,0.0,0.0,0.0,0.0,0.0,0.0,0.0,0.0,0.0,0.0,0.0,0.0,0.0,0.0,0.0,0.0,0.0,0.0,0.0,0.0,0.0,0.0,0.0,0.0,0.0,0.0,0.0,0.0,0.0,0.0,0.0,0.0,0.0,0.0,0.0,0.0,0.0,0.0,0.0,0.0,0.0,0.0,0.0,0.0,0.0,0.0,0.0,0.0,0.0,0.0,0.0,0.0,0.0,0.0,0.0,0.0,0.0,0.0,0.0,0.0,0.0,0.0,0.0,2.081,2.3615,2.7126,2.66,2.5883,2.5627,2.2688,1.9624,1.6682,1.4425,0.0,0.0,0.0,0.0,0.0,0.0,0.0,0.0,0.0,0.0,0.0,0.0,0.0,0.0,0.0,0.0,0.0,0.0,0.0,0.0,0.0,0.0,0.0,0.0,0.0,0.0,0.0,0.0,0.0,0.0,0.0,0.0,0.0,0.0,0.0,0.0,0.0,0.0,0.0,0.0,0.0,0.0,0.0,0.0,0.0,0.0,0.0,0.0,0.0,0.0,0.0,0.0,0.0,0.0,0.0,0.0,0.0,0.0,0.0,0.0,0.0,0.0,0.0,0.0,0.0,0.0,0.0,0.0,0.0,0.0,0.0,0.0,0.0,0.0,0.0,0.0,0.0,0.0,0.0,0.0,0.0,0.0,0.0,0.0,0.0,0.0,0.0,0.0,0.0,0.0,0.0,0.0,0.0,0.0,0.0,0.0,0.0,0.0,0.0,0.0,0.0,0.0,2.0931,2.431,2.7673,2.7537,2.6751,2.5686,2.304,2.0034,1.6701,1.4425,0.0,0.0,0.0,0.0,0.0,0.0,0.0,0.0,0.0,0.0,0.0,0.0,0.0,0.0,0.0,0.0,0.0,0.0,0.0,0.0,0.0,0.0,0.0,0.0,0.0,0.0,0.0,0.0,0.0,0.0,0.0,0.0,0.0,0.0,0.0,0.0,0.0,0.0,0.0,0.0,0.0,0.0,0.0,0.0,0.0,0.0,0.0,0.0,0.0,0.0,0.0,0.0,0.0,0.0,0.0,0.0,0.0,0.0,0.0,0.0,0.0,0.0,0.0,0.0,0.0,0.0,0.0,0.0,0.0,0.0,0.0,0.0,0.0,0.0,0.0,0.0,0.0,0.0,0.0,0.0,0.0,0.0,0.0,0.0,0.0,0.0,0.0,0.0,0.0,0.0,0.0,0.0,0.0,0.0,0.0,0.0,0.0,0.0,0.0,0.0,0.0,0.0,2.1186,2.4556,2.6866,2.6927,2.6348,2.5209,2.2573,1.971,1.6676,0.0,0.0,0.0,0.0,0.0,0.0,0.0,0.0,0.0,0.0,0.0,0.0,0.0,0.0,0.0,0.0,0.0,0.0,0.0,0.0,0.0,0.0,0.0,0.0,0.0,0.0,0.0,0.0,0.0,0.0,0.0,0.0,0.0,0.0,0.0,0.0,0.0,0.0,0.0,0.0,0.0,0.0,0.0,0.0,0.0,0.0,0.0,0.0,0.0,0.0,0.0,0.0,0.0,0.0,0.0,0.0,0.0,0.0,0.0,0.0,0.0,0.0,0.0,0.0,0.0,0.0,0.0,0.0,0.0,0.0,0.0,0.0,0.0,0.0,0.0,0.0,0.0,0.0,0.0,0.0,0.0,0.0,0.0,0.0,0.0,0.0,0.0,0.0,0.0,0.0,0.0,0.0,0.0,0.0,0.0,0.0,0.0,0.0,0.0,0.0,0.0,0.0,1.7677,2.1617,2.4833,2.6348,2.6323,2.5737,2.4657,2.22,1.951,1.6676,0.0,0.0,0.0,0.0,0.0,0.0,0.0,0.0,0.0,0.0,0.0,0.0,0.0,0.0,0.0,0.0,0.0,0.0,0.0,0.0,0.0,0.0,0.0,0.0,0.0,0.0,0.0,0.0,0.0,0.0,0.0,0.0,0.0,0.0,0.0,0.0,0.0,0.0,0.0,0.0,0.0,0.0,0.0,0.0,0.0,0.0,0.0,0.0,0.0,0.0,0.0,0.0,0.0,0.0,0.0,0.0,0.0,0.0,0.0,0.0,0.0,0.0,0.0,0.0,0.0,0.0,0.0,0.0,0.0,0.0,0.0,0.0,0.0,0.0,0.0,0.0,0.0,0.0,0.0,0.0,0.0,0.0,0.0,0.0,0.0,0.0,0.0,0.0,0.0,0.0,0.0,0.0,0.0,0.0,0.0,0.0,0.0,0.0,0.0,0.0,0.0,0.0,1.8339,2.2197,2.5242,2.6408,2.5971,2.5167,2.4111,2.1974,1.951,0.0,0.0,0.0,0.0,0.0,0.0,0.0,0.0,0.0,0.0,0.0,0.0,0.0,0.0,0.0,0.0,0.0,0.0,0.0,0.0,0.0,0.0,0.0,0.0,0.0,0.0,0.0,0.0,0.0,0.0,0.0,0.0,0.0,0.0,0.0,0.0,0.0,0.0,0.0,0.0,0.0,0.0,0.0,0.0,0.0,0.0,0.0,0.0,0.0,0.0,0.0,0.0,0.0,0.0,0.0,0.0,0.0,0.0,0.0,0.0,0.0,0.0,0.0,0.0,0.0,0.0,0.0,0.0,0.0,0.0,0.0,0.0,0.0,0.0,0.0,0.0,0.0,0.0,0.0,0.0,0.0,0.0,0.0,0.0,0.0,0.0,0.0,0.0,0.0,0.0,0.0,0.0,0.0,0.0,0.0,0.0,0.0,0.0,0.0,0.0,0.0,0.0,0.0,1.9494,2.2538,2.5295,2.7337,2.6635,2.5697,2.4918,2.2722,2.0187,1.7371,0.0,0.0,0.0,0.0,0.0,0.0,0.0,0.0,0.0,0.0,0.0,0.0,0.0,0.0,0.0,0.0,0.0,0.0,0.0,0.0,0.0,0.0,0.0,0.0,0.0,0.0,0.0,0.0,0.0,0.0,0.0,0.0,0.0,0.0,0.0,0.0,0.0,0.0,0.0,0.0,0.0,0.0,0.0,0.0,0.0,0.0,0.0,0.0,0.0,0.0,0.0,0.0,0.0,0.0,0.0,0.0,0.0,0.0,0.0,0.0,0.0,0.0,0.0,0.0,0.0,0.0,0.0,0.0,0.0,0.0,0.0,0.0,0.0,0.0,0.0,0.0,0.0,0.0,0.0,0.0,0.0,0.0,0.0,0.0,0.0,0.0,0.0,0.0,0.0,0.0,0.0,0.0,0.0,0.0,0.0,0.0,0.0,0.0,0.0,0.0,0.0,0.0,1.9936,2.3113,2.5769,2.7418,2.7008,2.6127,2.497,2.2931,2.068,1.8289,0.0,0.0,0.0,0.0,0.0,0.0,0.0,0.0,0.0,0.0,0.0,0.0,0.0,0.0,0.0,0.0,0.0,0.0,0.0,0.0,0.0,0.0,0.0,0.0,0.0,0.0,0.0,0.0,0.0,0.0,0.0,0.0,0.0,0.0,0.0,0.0,0.0,0.0,0.0,0.0,0.0,0.0,0.0,0.0,0.0,0.0,0.0,0.0,0.0,0.0,0.0,0.0,0.0,0.0,0.0,0.0,0.0,0.0,0.0,0.0,0.0,0.0,0.0,0.0,0.0,0.0,0.0,0.0,0.0,0.0,0.0,0.0,0.0,0.0,0.0,0.0,0.0,0.0,0.0,0.0,0.0,0.0,0.0,0.0,0.0,0.0,0.0,0.0,0.0,0.0,0.0,0.0,0.0,0.0,0.0,0.0,0.0,0.0,0.0,0.0,0.0,0.0,2.0147,2.3764,2.6409,2.7157,2.7216,2.6523,2.4743,2.2989,2.1202,1.9384,0.0,0.0,0.0,0.0,0.0,0.0,0.0,0.0,0.0,0.0,0.0,0.0,0.0,0.0,0.0,0.0,0.0,0.0,0.0,0.0,0.0,0.0,0.0,0.0,0.0,0.0,0.0,0.0,0.0,0.0,0.0,0.0,0.0,0.0,0.0,0.0,0.0,0.0,0.0,0.0,0.0,0.0,0.0,0.0,0.0,0.0,0.0,0.0,0.0,0.0,0.0,0.0,0.0,0.0,0.0,0.0,0.0,0.0,0.0,0.0,2.832,0.0,0.0,0.0,0.0,0.0,0.0,0.0,0.0,0.0,0.0,0.0,0.0,0.0,0.0,0.0,0.0,0.0,0.0,0.0,0.0,0.0,0.0,0.0,0.0,0.0,0.0,0.0,0.0,0.0,0.0,0.0,0.0,0.0,0.0,0.0,0.0,0.0,0.0,0.0,0.0,0.0,2.2165,2.4418,2.6575,2.8807,2.8127,2.7155,2.6213,2.4829,2.3017,2.0748,1.8718,0.0,0.0,0.0,0.0,0.0,0.0,0.0,0.0,0.0,0.0,0.0,0.0,0.0,0.0,0.0,0.0,0.0,0.0,0.0,0.0,0.0,0.0,0.0,0.0,0.0,0.0,0.0,0.0,0.0,0.0,0.0,0.0,0.0,0.0,0.0,0.0,0.0,0.0,0.0,0.0,0.0,0.0,0.0,0.0,0.0,0.0,0.0,0.0,0.0,0.0,0.0,0.0,0.0,0.0,0.0,0.0,0.0,0.0,0.0,0.0,2.9205,0.0,0.0,0.0,0.0,0.0,0.0,0.0,0.0,0.0,0.0,0.0,0.0,0.0,0.0,0.0,0.0,0.0,0.0,0.0,0.0,0.0,0.0,0.0,0.0,0.0,0.0,0.0,0.0,0.0,0.0,0.0,0.0,0.0,0.0,0.0,0.0,0.0,0.0,0.0,0.0,2.2101,2.5091,2.759,2.8966,2.8783,2.8034,2.6692,2.5352,2.3799,2.1916,1.9996,0.0,0.0,0.0,0.0,0.0,0.0,0.0,0.0,0.0,0.0,0.0,0.0,0.0,0.0,0.0,0.0,0.0,0.0,0.0,0.0,0.0,0.0,0.0,0.0,0.0,0.0,0.0,0.0,0.0,0.0,0.0,0.0,0.0,0.0,0.0,0.0,0.0,0.0,0.0,0.0,0.0,0.0,0.0,0.0,0.0,0.0,0.0,0.0,0.0,0.0,0.0,0.0,0.0,3.6105,3.6277,3.5993,3.6534,3.6112,3.4905,3.4121,3.2464,3.0223,2.9801,0.0,0.0,0.0,0.0,0.0,0.0,0.0,0.0,0.0,0.0,0.0,0.0,0.0,0.0,0.0,0.0,0.0,0.0,0.0,0.0,0.0,0.0,0.0,0.0,2.8894,2.7364,2.3777,0.0,0.0,0.0,0.0,0.0,0.0,0.0,0.0,0.0,0.0,0.0,2.1753,2.5693,2.8547,2.8906,2.9235,2.8727,2.7081,2.5591,2.4276,2.3122,2.1145,1.9563,0.0,0.0,0.0,0.0,0.0,0.0,0.0,0.0,0.0,0.0,0.0,0.0,0.0,0.0,0.0,0.0,0.0,0.0,0.0,0.0,0.0,0.0,0.0,0.0,0.0,0.0,0.0,0.0,0.0,0.0,0.0,0.0,2.6213,2.8543,0.0,0.0,0.0,0.0,0.0,0.0,0.0,0.0,0.0,0.0,0.0,0.0,0.0,3.4266,3.5864,3.8444,3.9118,3.797,4.2082,4.3271,4.181,4.1868,4.1531,4.0724,3.942,0.0,3.2796,3.055,0.0,0.0,0.0,0.0,0.0,0.0,0.0,0.0,0.0,0.0,0.0,0.0,0.0,0.0,0.0,0.0,0.0,0.0,0.0,0.0,0.0,0.0,3.2978,3.2458,3.1399,3.0651,0.0,2.7021,2.3155,2.3061,2.0837,0.0,0.0,0.0,0.0,0.0,0.0,0.0,2.3334,2.5987,2.8393,3.0073,2.9355,2.8637,2.8368,2.6572,2.5143,2.4395,2.2532,2.0838,1.9546,2.0161,0.0,0.0,0.0,0.0,0.0,0.0,0.0,0.0,0.0,0.0,0.0,0.0,0.0,0.0,0.0,0.0,0.0,0.0,0.0,0.0,0.0,0.0,0.0,0.0,0.0,0.0,0.0,0.0,0.0,2.8188,3.0342,2.9681,3.2367,3.2788,0.0,0.0,0.0,0.0,0.0,0.0,0.0,0.0,0.0,3.7773,3.7684,3.8422,4.0247,4.1866,4.2856,4.339,4.5353,4.5876,4.5142,4.4894,4.4788,4.4614,4.2628,4.1151,3.9781,3.5084,3.3223,3.3077,0.0,0.0,0.0,0.0,2.9143,2.9594,2.9713,3.033,3.12,3.2265,0.0,0.0,0.0,0.0,0.0,0.0,0.0,0.0,0.0,0.0,3.3943,3.5331,3.485,3.4275,3.4899,3.2079,2.8847,0.0,2.4683,2.2652,2.1186,0.0,0.0,0.0,0.0,2.4699,2.5,2.7487,2.9564,3.0402,2.9684,2.8996,2.8637,2.6752,2.5292,2.4634,2.2802,2.1276,2.0288,2.0539,1.9911,0.0,0.0,0.0,0.0,0.0,0.0,0.0,0.0,0.0,0.0,0.0,0.0,0.0,0.0,0.0,0.0,0.0,0.0,0.0,0.0,0.0,0.0,0.0,0.0,0.0,0.0,0.0,0.0,3.1718,3.3726,3.1643,3.5429,3.6191,0.0,0.0,0.0,0.0,0.0,0.0,3.8185,3.8904,4.0322,4.2747,4.2583,4.3368,4.5287,4.5762,4.6643,4.8024,4.8419,4.8453,4.818,4.7598,4.7565,4.7833,4.5719,4.5179,4.5349,3.9346,3.6559,3.5927,3.4563,3.3583,3.2943,3.269,3.2894,3.3273,3.3632,3.4341,3.5273,3.6137,3.5245,3.3624,3.2377,0.0,0.0,0.0,0.0,3.1681,3.3868,3.452,3.5326,3.8269,3.833,3.774,3.7605,3.5825,3.3399,0.0,2.8455,2.6656,2.4365,0.0,0.0,0.0,2.4743,2.713,2.6474,2.8958,3.0761,3.0761,3.0043,2.9412,2.8906,2.6841,2.5382,2.4903,2.2862,2.1485,2.0976,2.0647,2.0049,1.9241,0.0,0.0,0.0,0.0,0.0,0.0,0.0,0.0,0.0,0.0,0.0,0.0,0.0,0.0,0.0,0.0,0.0,0.0,0.0,0.0,0.0,0.0,0.0,0.0,0.0,0.0,0.0,0.0,0.0,3.6106,4.1708,0.0,0.0,0.0,0.0,3.6463,3.8415,4.0405,4.175,4.4028,4.6431,4.9029,4.9047,4.971,5.1083,5.1373,5.1075,5.0237,5.2213,5.2632,5.1609,5.0639,5.0365,5.0629,4.948,4.8307,4.6781,4.17,3.9692,3.948,3.6161,3.528,3.555,3.2835,3.397,3.6754,3.6131,3.719,3.8965,4.0417,3.9067,3.6365,3.3665,3.2328,0.0,0.0,3.2643,3.4864,3.5747,3.7827,4.0129,4.1692,4.1504,4.0788,4.0067,3.7698,3.5053,0.0,3.0845,2.9082,2.7615,0.0,2.7445,2.4791,2.7265,2.8992,2.7679,2.9806,3.1451,3.1451,3.0342,2.9592,2.9562,2.7111,2.5585,2.5555,2.3131,2.1665,2.1635,2.0427,2.0019,2.0569,1.8775,0.0,0.0,0.0,0.0,0.0,0.0,0.0,0.0,0.0,0.0,0.0,0.0,0.0,0.0,0.0,0.0,0.0,0.0,0.0,0.0,0.0,0.0,0.0,0.0,0.0,0.0,0.0,0.0,4.1953,4.6239,0.0,4.2942,4.3466,4.3482,4.2088,4.3304,4.5472,4.8682,4.9635,5.1322,5.4153,5.3066,5.2692,5.3177,5.2795,5.2433,5.21,5.2332,5.2277,5.1885,5.0855,5.0838,5.1424,4.9498,4.9109,4.9526,4.6191,4.4302,4.3317,4.1208,4.0225,3.9963,3.9451,3.9412,3.9671,3.9971,4.0526,4.1136,4.117,4.056,3.9471,3.7987,3.7369,3.7126,3.6892,3.7827,3.9017,3.9312,3.9744,4.034,4.1366,3.9878,3.8444,3.9188,3.774,3.6088,3.5326,3.2826,3.0579,2.9619,3.0043,2.9836,2.8098,2.9894,3.115,3.0223,3.1301,3.1959,3.154,3.0372,2.9621,2.9621,2.7141,2.5615,2.5615,2.355,2.2164,2.1724,2.0827,2.0468,2.0688,2.0001,1.9432,0.0,0.0,0.0,0.0,0.0,0.0,0.0,0.0,0.0,0.0,0.0,0.0,0.0,0.0,0.0,0.0,0.0,0.0,0.0,0.0,0.0,0.0,0.0,0.0,0.0,4.1802,4.5913,4.7021,5.0898,5.2188,4.8971,4.8893,4.8718,4.7856,4.8661,5.0334,5.2922,5.3369,5.4565,5.6888,5.5326,5.4514,5.4649,5.3917,5.3418,5.3152,5.2651,5.2418,5.2383,5.134,5.0913,5.0836,4.9668,4.9341,4.9617,4.8792,4.773,4.6468,4.5024,4.4191,4.3735,4.3734,4.3246,4.2637,4.2968,4.3091,4.2929,4.2185,4.1948,4.1813,4.1094,4.0857,4.0832,4.0832,4.1204,4.1644,4.188,4.1567,4.1405,4.2166,4.0406,3.8801,3.9836,3.8091,3.6523,3.7244,3.5121,3.2792,3.1389,3.154,3.1331,2.9831,3.0881,3.1599,3.0943,3.16,3.2016,3.1581,3.0569,2.9913,2.994,2.7259,2.5685,2.5863,2.3797,2.2505,2.2273,2.1444,2.0895,2.0688,2.024,1.9809,1.939,0.0,0.0,0.0,0.0,0.0,0.0,0.0,0.0,0.0,0.0,0.0,0.0,0.0,0.0,0.0,0.0,0.0,0.0,0.0,0.0,0.0,0.0,0.0,4.1258,4.5383,4.912,5.1237,5.5737,5.7615,5.4774,5.5945,5.5875,5.359,5.4431,5.476,5.4168,5.5075,5.6076,5.7131,5.583,5.5306,5.5646,5.5006,5.4296,5.3585,5.3551,5.3518,5.345,5.2418,5.0942,4.9194,5.0312,4.9289,4.7006,4.9142,4.9627,4.8855,4.7266,4.6724,4.66,4.5042,4.4957,4.5568,4.479,4.4581,4.4479,4.3707,4.3443,4.3301,4.2591,4.2354,4.232,4.232,4.232,4.2489,4.3206,4.3375,4.3606,4.4412,4.3403,4.2301,4.2327,3.8954,3.6493,3.8488,3.7676,3.5799,3.3096,3.2617,3.1958,3.0071,3.0283,0.0,2.9858,3.0849,3.1643,3.1707,3.1019,3.0579,3.067,2.7576,2.584,2.6399,2.3945,2.2773,2.3394,2.225,2.1332,2.0786,1.948,1.9462,2.0748,0.0,0.0,0.0,0.0,0.0,0.0,0.0,0.0,0.0,0.0,0.0,0.0,0.0,0.0,0.0,0.0,0.0,0.0,0.0,0.0,0.0,4.1868,4.5241,4.5466,5.0113,5.4492,5.706,6.0652,6.2029,5.9812,6.0079,5.974,5.8114,5.7897,5.8288,5.9491,5.7109,5.6007,5.6645,5.5754,5.5081,5.4682,5.5667,5.5818,5.5108,5.4566,5.4025,5.3518,5.3179,5.2774,5.2203,5.143,5.0657,4.9915,4.9466,4.9187,4.8954,4.85,4.7649,4.6599,4.627,4.5597,4.4716,4.3369,4.3667,4.4581,4.4316,4.4248,4.4215,4.4039,4.3572,4.3098,4.3098,4.3098,4.3139,4.3341,4.3375,4.3606,4.4412,4.3009,4.1799,4.2875,4.0442,3.8229,3.8777,3.8123,3.7046,3.5706,3.503,3.4502,3.3963,3.4023,0.0,3.3989,3.4263,3.4521,3.4641,3.2685,3.156,3.2006,2.8436,2.6421,2.7021,2.5401,2.4277,2.3978,2.3647,2.3217,2.2667,2.1972,2.1774,0.0,0.0,0.0,0.0,0.0,0.0,0.0,0.0,0.0,0.0,0.0,0.0,0.0,0.0,0.0,0.0,0.0,0.0,0.0,0.0,0.0,0.0,4.684,5.0807,5.2572,5.5385,5.8528,6.1806,6.3882,6.4739,6.3866,6.3372,6.264,6.1633,6.0715,6.0438,6.0945,5.8452,5.6765,5.6173,5.6185,5.5556,5.4241,5.5928,5.6292,5.5243,5.4803,5.3954,5.2835,5.3314,5.2572,5.0953,5.1126,5.045,4.9317,4.9097,4.9018,0.0,0.0,0.0,0.0,0.0,4.5872,4.4479,4.3565,4.387,4.4615,4.4615,4.4615,4.4615,4.4615,4.3642,4.2512,4.2512,4.1849,4.135,4.2261,4.2512,4.287,4.426,4.3334,4.2434,4.3658,4.11,3.8925,4.0123,3.8497,0.0,3.7488,3.6495,3.5428,3.4872,3.4779,3.48,3.4848,3.5065,3.5403,3.5798,3.409,3.3105,3.3437,2.9922,0.0,0.0,0.0,2.5269,2.454,2.4108,0.0,0.0,0.0,2.1994,2.2283,0.0,0.0,0.0,2.1156,2.0546,0.0,0.0,0.0,0.0,0.0,0.0,0.0,0.0,0.0,0.0,0.0,0.0,0.0,0.0,0.0,0.0,5.2342,5.652,6.0605,6.068,6.1691,6.5275,6.5764,6.6026,6.6542,6.569,6.4817,6.4068,6.2939,6.1741,6.0483,5.9427,0.0,0.0,0.0,5.6276,5.4133,5.5993,5.6224,5.4837,5.4769,5.3847,5.2233,5.3109,5.1492,4.8058,5.0259,4.9649,4.7201,4.8467,4.9018,4.9018,4.9018,4.8951,4.8714,4.7225,4.5838,4.4716,4.4547,0.0,0.0,4.4615,4.4615,4.4615,4.4615,4.3244,4.1692,4.1692,4.025,3.9223,4.1158,4.1692,4.2166,4.4136,4.4045,4.3741,4.4445,4.1473,3.9394,4.1829,3.9115,3.6994,3.8728,3.7351,3.5621,3.4414,3.4246,3.4272,3.4374,3.4904,3.5558,3.6307,0.0,0.0,3.4934,3.1805,3.0011,3.0372,2.7893,2.6139,2.5476,2.4479,2.3361,2.2186,2.1648,2.1604,2.2143,2.2143,2.2712,2.3789,2.2503,2.1904,0.0,0.0,0.0,0.0,0.0,0.0,0.0,0.0,0.0,0.0,0.0,0.0,0.0,0.0,0.0,5.1591,5.5745,5.977,6.2858,6.4027,6.4814,6.5628,6.6237,6.6229,6.5349,6.5985,6.5918,6.4761,6.4304,6.3994,6.3693,6.0481,5.796,5.6382,5.6507,5.5826,5.4278,5.6533,5.7239,5.6359,0.0,0.0,5.4055,5.3687,5.2708,5.1363,5.1224,5.0512,4.9405,4.9125,4.9018,4.9018,4.9018,4.8646,4.7906,4.6481,4.5737,4.5297,4.4079,4.4045,4.4615,4.4615,4.4615,4.4615,4.4615,4.4294,0.0,4.3945,4.3659,4.3435,4.385,4.3945,4.4069,4.4519,4.4479,4.4384,4.4581,4.3422,4.236,4.2309,4.1149,4.01,3.9902,3.8492,3.7338,3.705,3.7018,3.7242,3.7838,3.8023,3.8388,3.9211,3.7652,3.6531,3.6417,3.3626,3.1659,3.1079,2.9387,2.8394,2.8225,2.7623,2.6938,2.6202,2.5633,2.5221,2.4866,2.4866,2.4986,2.5196,2.3849,2.3221,0.0,0.0,0.0,0.0,0.0,0.0,0.0,0.0,0.0,0.0,0.0,4.6402,4.7129,0.0,5.2476,5.6334,5.9087,6.1772,6.4877,6.5867,6.6237,6.6237,6.6576,6.6525,6.5898,6.644,6.6525,6.5898,6.5733,6.5561,6.5155,6.2925,6.0531,5.819,5.8186,5.7325,5.5369,5.7036,5.7509,5.6799,5.6055,5.5031,5.3801,5.3584,5.3011,5.2063,5.1428,5.1014,5.0574,4.9458,4.9018,4.9018,4.9018,4.8545,4.7804,4.709,4.6583,4.6075,4.4959,4.4823,4.5094,4.4716,4.4615,4.4615,4.4615,4.3816,4.2959,4.2959,4.2166,4.1536,4.2674,4.2959,4.3244,4.4328,4.4615,4.4615,4.4615,4.3978,4.3293,4.2925,4.2246,4.1504,4.0756,4.0005,3.9369,3.9007,3.8941,3.9076,3.9447,3.9506,3.9662,4.0062,3.8849,3.7825,3.7391,3.497,3.2844,3.1306,3.0533,2.9788,2.9044,2.8496,2.7905,2.7315,2.6785,2.622,2.5615,2.5615,2.5615,2.5561,2.4926,2.4597,0.0,0.0,0.0,0.0,0.0,0.0,0.0,4.6616,4.7177,4.8759,4.9693,5.0884,5.3133,5.4144,5.617,6.092,6.2149,6.3482,6.6382,6.6677,6.6542,6.6406,6.6508,6.6609,6.6609,6.6609,6.6643,6.6812,6.6677,6.6271,6.5527,6.4783,6.3033,6.0089,6.0068,5.9064,5.6928,5.7547,5.7577,5.7002,5.6122,5.4957,5.3503,5.3513,5.2941,5.191,5.1261,5.1014,5.0879,4.956,4.9018,4.9018,4.9018,4.8646,4.8108,4.8108,4.7665,4.6921,4.6346,4.6041,4.5805,4.5026,4.479,4.4818,4.4649,4.344,4.2147,4.2147,4.0983,4.0079,4.1707,4.2147,4.2555,4.4232,4.4615,4.4615,4.4615,4.4079,4.3639,4.3639,4.3031,4.232,4.1745,4.1407,4.0933,4.0214,4.0113,4.0113,4.0113,4.0113,4.0113,4.0113,3.9571,3.8903,3.8193,3.6028,3.3964,3.2171,3.1799,3.1021,2.9687,2.9226,2.8655,2.7899,2.7444,2.6882,2.6163,2.6163,2.6092,2.6004,2.5854,2.5734,4.1441,4.029,4.0696,4.5263,4.6075,4.7733,0.0,5.5818,5.5073,5.7198,5.8211,5.8815,5.9144,6.0353,6.1975,6.3876,6.4788,6.5605,6.6635,6.6237,6.5561,6.4918,6.5425,6.5797,6.5797,6.5797,6.6102,6.6779,6.6203,6.5493,6.4749,6.4038,6.2882,6.1177,6.0482,5.9671,5.8747,5.8183,5.7848,5.7746,5.6393,5.5579,5.5338,5.4058,5.3045,5.2168,5.0813,5.0202,5.0135,4.9357,4.9018,4.9018,4.9018,4.8951,4.8883,4.8883,4.8409,4.777,4.7669,4.7225,4.6549,4.5805,4.5568,4.5466,4.4818,4.4897,4.5183,4.5183,4.5491,4.5732,4.5318,4.5183,4.511,4.4688,4.4615,4.4615,4.4615,4.4547,4.4479,4.4479,4.3809,4.324,4.3172,4.2083,4.0933,4.0214,4.0113,4.0113,4.0113,4.0113,4.0113,4.0113,4.0045,3.9673,3.8937,3.6806,3.5363,3.5126,3.3897,3.278,3.1955,3.1861,3.126,2.9995,2.9899,2.9305,2.8175,2.8175,2.7887,2.7375,2.6776,2.6183,4.4384,4.4959,4.6278,4.983,5.2401,5.5175,5.9404,5.9979,5.9979,6.1366,6.2212,6.2854,6.326,6.2978,6.3334,6.5504,6.4816,6.4379,6.5377,6.4884,6.3802,6.2178,6.1873,6.2043,6.2716,6.4555,6.5345,6.4586,6.5632,6.6203,6.5899,6.4783,6.3869,6.326,6.1637,6.0419,5.9641,5.893,5.8321,5.7881,5.6833,5.6122,5.5647,5.4634,5.3484,5.2266,5.1657,5.115,5.0676,4.9932,4.9627,4.9593,4.9187,4.9018,4.9018,4.9018,4.8815,4.8477,4.8041,4.7699,4.7327,4.6583,4.6041,4.5635,4.5331,4.5466,4.5703,4.5703,4.6244,4.6718,4.6413,4.6007,4.5635,4.5297,4.4891,4.4716,4.5128,4.5229,4.5229,4.5229,4.4959,4.4423,4.3544,4.2523,4.1576,4.0832,4.0383,4.0113,4.0113,4.0113,4.0113,4.0113,3.974,3.9334,3.9005,3.7753,3.6546,3.5667,3.5025,3.4167,3.2983,3.2949,3.2295,3.0978,3.0924,3.0127,2.8487,2.8487,2.8174,2.7585,2.7315,2.7046,4.5799,4.7936,5.0541,5.3653,5.7611,6.1095,6.2516,6.3226,6.3768,6.4309,6.4512,6.4749,6.529,6.4095,6.37,6.5842,6.4555,6.35,6.4187,6.3497,6.2042,5.9742,5.866,5.8039,5.7846,6.1662,6.4024,6.3672,6.5413,6.6508,6.6508,6.529,6.4512,6.4309,6.2347,6.0926,6.0114,5.937,5.8626,5.7881,5.6934,5.6224,5.5683,5.4735,5.3687,5.2638,5.2401,5.1995,5.1454,5.071,5.027,5.0033,4.9492,4.9187,4.9018,4.9018,4.9018,4.8917,4.8409,4.8176,4.8105,4.7327,4.6752,4.6278,4.6075,4.6143,4.6312,4.6312,4.6853,4.7361,4.7158,4.6718,4.6278,4.6041,4.5602,4.5331,4.5872,4.6007,4.6007,4.6007,4.5838,4.5365,4.422,4.3234,4.2422,4.188,4.117,4.0553,4.0146,4.0113,4.0113,4.0113,3.9639,3.9276,3.9276,3.8633,3.7753,3.6637,3.6163,3.5351,3.4044,3.3829,3.3152,3.1976,3.1943,3.1176,2.9588,2.9399,2.8896,2.8157,2.8166,2.8064,4.4242,4.6786,5.027,5.5412,5.9539,6.3091,6.6,6.6677,6.6677,6.6711,6.5595,6.4613,6.4647,6.3998,6.3761,6.4546,6.4573,6.4302,6.3632,6.2279,6.052,5.822,5.6697,5.4467,5.1051,5.6497,6.1772,6.535,6.5696,6.573,6.573,6.5019,6.4275,6.3565,6.2076,6.0926,6.0114,5.937,5.8626,5.7881,5.6427,5.575,5.5683,5.4194,5.3518,5.3416,5.2638,5.23,5.2198,5.1488,5.0744,5.0101,5.0067,4.9627,4.9018,4.9018,4.9018,4.9018,4.8984,4.8984,4.8849,4.8139,4.7838,4.7703,4.6989,4.7259,4.7804,4.7804,4.8376,4.8781,4.8041,4.7838,4.7635,4.6921,4.6752,4.6718,4.6752,4.6752,4.6752,4.6752,4.6177,4.5703,4.5635,4.4356,4.3341,4.3341,4.2726,4.1711,4.0282,4.0113,4.0113,4.0113,4.0079,4.0079,4.0079,3.9402,3.8937,3.8903,3.7574,3.6366,3.5566,3.4844,3.41,3.3347,3.3334,3.3024,3.2385,3.1731,3.0758,2.9521,2.9546,2.9175,4.6244,5.0405,5.531,6.008,6.3666,6.6576,6.8605,6.8673,6.776,6.5764,6.3362,6.0974,5.9002,5.8463,5.8747,5.9974,5.9964,6.0518,6.2505,6.0449,5.8346,5.7302,5.6325,5.5435,5.4722,5.7043,5.9012,5.9933,6.3074,6.5189,6.5662,6.4986,6.4275,6.3531,6.255,6.14,6.0114,5.9844,5.9099,5.7881,5.6393,5.5446,5.4938,5.3957,5.3518,5.3484,5.3213,5.3112,5.3044,5.2266,5.1522,5.0777,5.027,4.9627,4.9018,4.9018,4.9018,4.9018,4.9018,4.9018,4.8951,4.8714,4.8308,4.7838,4.7631,4.7699,4.7906,4.7906,4.8443,4.8951,4.8714,4.8274,4.7838,4.7597,4.7158,4.6921,4.7428,4.753,4.753,4.753,4.6921,4.6278,4.5805,4.4423,4.3234,4.2726,4.2455,4.1948,4.0967,4.0832,4.0629,4.0146,4.0113,4.0113,4.0113,3.9876,3.9537,3.9039,3.8531,3.7686,3.6434,3.6186,3.5419,3.4134,3.4134,3.3604,3.2496,3.1843,3.1068,3.026,2.9819,2.9502,5.0033,5.4871,5.9877,6.4377,6.7117,6.891,6.962,6.8605,6.6711,6.3971,6.0825,5.7769,5.5314,5.4012,5.4048,5.6348,5.6108,5.701,6.1013,5.9275,5.7577,5.7606,5.6697,5.6151,5.6301,5.726,5.7825,5.7664,6.1111,6.3508,6.4287,6.3608,6.3403,6.3863,6.2922,6.1637,6.0114,6.0114,5.9235,5.7476,5.6562,5.5581,5.4566,5.4093,5.345,5.2706,5.3281,5.3179,5.2706,5.2706,5.2131,5.1151,5.0676,4.9864,4.9018,4.9018,4.9018,4.9018,4.9018,4.9018,4.9018,4.9018,4.868,4.8308,4.8308,4.8308,4.8308,4.8308,4.8646,4.9018,4.9018,4.8646,4.8308,4.8308,4.7936,4.7733,4.8206,4.8308,4.8308,4.8308,4.7699,4.7056,4.6583,4.5229,4.4079,4.3572,4.3267,4.2726,4.1711,4.1373,4.1035,4.0527,4.0282,4.0113,4.0113,4.0113,3.991,3.9436,3.914,3.8464,3.7246,3.6931,3.622,3.4912,3.4878,3.4465,3.3606,3.2683,3.1922,3.13,3.0593,3.0133,5.5209,5.9776,6.3768,6.8132,6.9688,6.9925,6.9113,6.6576,6.3768,6.1332,5.7881,5.4735,5.3078,5.0559,4.9959,5.3652,5.3205,5.4267,5.9498,5.8961,5.8318,5.9028,5.7949,5.6777,5.5861,5.7271,5.8387,5.876,6.0068,6.1234,6.2037,6.1333,6.2016,6.4471,6.3125,6.167,6.0182,6.008,5.8964,5.6799,5.6799,5.6021,5.46,5.46,5.3416,5.142,5.2875,5.2672,5.1454,5.2909,5.2604,5.1285,5.1285,5.0371,4.9052,4.9052,4.9052,4.9018,4.9018,4.9018,4.9018,4.9018,4.9018,4.9018,4.9018,4.9018,4.9018,4.9018,4.9018,4.9018,4.9018,4.9018,4.9018,4.9018,4.9018,4.9018,4.9018,4.9018,4.9018,4.9018,4.8379,4.7872,4.7838,4.6684,4.5737,4.5703,4.5094,4.4107,4.2557,4.1745,4.1271,4.1204,4.0561,4.0146,4.0113,4.0113,4.0113,4.0113,3.9436,3.8734,3.799,3.728,3.6535,3.5735,3.5701,3.5678,3.5588,3.4284,3.3303,3.2631,3.1855,3.118,5.822,6.3226,6.7929,7.0195,7.006,6.8876,6.6981,6.4275,6.0723,5.5649,5.1657,4.775,4.3431,4.3399,4.5219,4.8925,5.1347,5.4907,6.0946,6.0772,6.0171,6.068,6.1366,6.1491,6.0689,6.1992,6.2354,6.1143,6.2122,6.337,6.4689,6.4009,6.3653,6.3761,6.2888,6.1941,6.0994,5.9877,5.8457,5.6799,5.6799,5.6021,5.46,5.46,5.3991,5.2942,5.3348,5.3281,5.2942,5.3348,5.2909,5.2029,5.2029,5.1116,4.983,4.983,4.9458,4.9018,4.9018,4.9018,4.9018,4.9018,4.9018,4.9018,4.9018,4.9018,4.9018,4.9018,4.9018,4.9018,4.9018,4.9018,4.9018,4.9018,4.9018,4.9018,4.9018,4.9018,4.9018,4.9018,4.8379,4.7733,4.7192,4.6752,4.6346,4.5805,4.5534,4.4857,4.3335,4.2963,4.2422,4.1339,4.1035,4.0696,4.0146,4.0113,4.0113,4.0113,3.991,3.9503,3.8734,3.8531,3.8091,3.7324,3.729,3.6774,3.566,3.4832,3.404,3.3342,3.2069,3.1705,6.2618,6.6474,6.9789,7.0601,6.9451,6.7151,6.3565,6.0216,5.619,5.0135,4.6481,4.3158,3.9206,3.9236,4.1399,4.6118,4.8991,5.3148,6.0367,6.1132,6.1508,6.3045,6.3971,6.4546,6.4783,6.5561,6.5623,6.4604,6.3442,6.3291,6.4506,6.3492,6.3221,6.393,6.2956,6.1873,6.0791,5.9268,5.8118,5.7273,5.6934,5.619,5.5074,5.4735,5.3822,5.2536,0.0,5.3112,5.2536,5.3213,5.3044,5.23,5.23,5.1386,5.0101,5.0101,4.9627,4.9018,4.9018,4.9018,4.9018,4.9018,4.9221,4.9424,4.9086,4.9458,4.983,4.9187,4.9221,4.939,4.9086,4.9018,4.9018,4.9018,4.9018,4.9018,4.9018,4.9018,4.9018,4.9018,4.868,4.8274,4.7834,4.7496,4.7022,4.6278,4.5906,4.5263,4.4079,4.3639,4.3071,4.2252,4.161,4.1035,4.0595,4.0282,4.0113,4.0113,4.0113,3.9774,3.9039,3.9005,3.8633,3.7922,3.7922,3.7485,3.6652,3.5662,3.4776,3.4046,3.2922,3.2418,6.7015,6.9079,7.0297,7.0195,6.8335,6.5189,6.0148,5.5852,5.1251,4.5359,4.2252,3.9986,3.7855,3.7195,3.8944,4.486,4.7272,5.113,5.9017,6.1061,6.2719,6.5358,6.5865,6.6576,6.8064,6.803,6.7996,6.8199,6.4729,6.2894,6.3577,6.2056,6.2166,6.4235,6.3057,6.1637,6.0114,5.8829,5.8084,5.7881,5.7137,5.6427,5.5683,5.4938,5.3484,5.1589,5.2942,5.2739,5.1623,5.2942,5.3078,5.2469,5.2469,5.1555,5.0236,5.0236,4.9729,4.9018,4.9018,4.9018,4.9018,4.9018,4.9424,4.983,4.9187,4.9898,5.0676,4.9492,4.9526,4.983,4.9289,4.9086,4.9018,4.9018,4.9018,4.9018,4.9018,4.9018,4.9018,4.9018,4.9018,4.9018,4.9018,4.8477,4.78,4.7056,4.6312,4.5568,4.4852,4.4045,4.3511,4.3409,4.2185,4.1305,4.1204,4.0493,4.0113,4.0113,4.0113,3.9808,3.9174,3.914,3.8836,3.8193,3.8193,3.8111,3.7904,3.662,3.5594,3.4808,3.4132,3.349,6.7726,6.9485,7.0973,7.0331,6.7557,6.3937,5.9911,5.4228,4.8274,4.2895,3.9546,3.7066,3.5385,3.7023,4.037,4.5742,4.9371,5.3515,5.9299,6.2381,6.4444,6.5561,6.6779,6.8132,6.9654,6.8639,6.8436,6.9688,6.7926,6.6626,6.6188,6.4739,6.3573,6.2821,6.2516,6.1637,6.0114,5.9844,5.9099,5.7881,5.7137,5.6427,5.5683,5.4938,5.4059,5.3112,5.3382,0.0,5.3145,5.3382,5.3416,5.3281,5.3281,5.2367,5.1014,5.1014,5.0168,4.9018,4.9018,4.9018,4.9018,4.9018,4.9086,4.9187,4.9052,4.9187,4.9458,4.9796,4.956,4.9289,4.9763,4.9458,4.9018,4.9018,4.9018,4.9018,4.9018,4.9018,4.9018,4.9018,4.9018,4.9018,4.9018,4.8883,4.8578,4.7834,4.709,4.6346,4.5602,4.4857,4.4147,4.3477,4.2625,4.1847,4.1271,4.0493,4.0113,4.0113,4.0113,4.0045,3.991,3.991,3.9842,3.974,3.974,3.9152,3.7982,3.7748,3.6873,3.5518,3.5432,3.5295,6.8639,6.9891,7.1041,6.9925,6.6812,6.2347,5.5852,5.0371,4.4756,3.7956,3.5441,3.4121,3.2983,3.4544,3.7728,4.3044,4.6324,5.0558,5.7403,6.0622,6.326,6.5967,6.7624,6.8808,6.9553,6.8944,6.8504,6.8436,6.776,6.7354,6.7387,6.5628,6.4106,6.3024,6.2212,6.1264,6.0114,5.9708,5.8998,5.7881,5.6765,5.6055,5.5647,5.4532,5.3822,5.3518,5.3518,5.3044,5.2367,5.3179,5.3044,5.2401,5.3179,5.2807,5.1792,5.1792,5.1082,5.0168,5.0168,4.9898,4.956,4.956,4.956,4.956,4.956,4.983,5.0067,4.9627,4.956,4.956,4.9526,4.9255,4.9018,4.9018,4.9018,4.9018,4.9018,4.9018,4.9018,4.9018,4.9018,4.9018,4.9018,4.9018,4.8748,4.8007,4.7597,4.7124,4.638,4.5635,4.4891,4.4113,4.3335,4.2726,4.2388,4.1305,4.0663,4.0663,4.0316,4.0113,4.0113,4.0113,4.0113,4.0113,4.0113,3.9758,3.9083,3.8685,3.7919,3.6912,3.6474,3.6249,6.9553,7.0432,7.0973,6.9485,6.6034,6.0858,5.2469,4.7056,4.1711,3.429,3.2395,3.1989,3.1698,3.264,3.5205,4.056,4.2835,4.6858,5.5173,5.822,6.1366,6.6034,6.7929,6.8977,6.9316,6.9045,6.8335,6.7151,6.6914,6.6981,6.7421,6.5628,6.4275,6.3531,6.2212,6.1061,6.0114,5.9539,5.8795,5.7881,5.6393,5.5681,5.5683,5.4194,5.3518,5.3518,5.3518,5.2638,5.132,5.2875,5.2604,5.132,5.2909,5.301,5.23,5.23,5.1826,5.1185,5.1185,5.071,5.0135,5.027,5.0101,4.9864,4.9864,5.027,5.0541,4.9526,4.9661,4.9965,4.939,4.9255,4.9187,4.9052,4.9018,4.9018,4.9018,4.9018,4.9018,4.9018,4.9018,4.9018,4.9018,4.9018,4.8815,4.821,4.8007,4.7669,4.7124,4.6244,4.5466,4.4919,4.3978,4.3375,4.3375,4.2185,4.1373,4.1204,4.0663,4.0282,4.0113,4.0113,4.0113,4.0113,4.0113,4.0113,4.0113,3.948,3.8831,3.817,3.7682,3.7349,7.0398,7.121,7.0973,6.9485,6.5256,5.9877,5.3619,4.665,4.0121,3.5284,3.2679,3.1698,3.2949,3.3832,3.6095,4.1339,4.2368,4.5346,5.3653,5.6697,6.0013,6.5189,6.7117,6.8571,6.9958,6.8842,6.7963,6.7793,6.7184,6.6542,6.5933,6.5053,6.4275,6.3531,6.2719,6.1569,6.0114,6.0047,5.9302,5.7881,5.6393,5.5681,5.5683,5.4194,5.3518,5.3518,5.3518,5.2638,0.0,5.2875,5.2604,5.132,5.2909,5.301,5.23,5.23,5.1826,5.1185,5.1185,5.071,5.0202,5.0879,5.0202,4.912,4.912,4.9154,4.9323,4.983,5.0033,5.0067,4.9999,4.9999,4.983,4.9154,4.9018,4.9018,4.9018,4.9018,4.9018,4.9018,4.9018,4.9018,4.9018,4.9018,4.8984,4.8917,4.8342,4.7872,4.7804,4.6583,4.5669,4.5602,4.4282,4.3375,4.3375,4.2658,4.1914,4.1238,4.1136,4.0798,4.0146,4.0113,4.0113,4.0113,4.0113,4.0113,4.0113,4.0037,3.9577,3.8836,3.9484,3.9406,6.6711,6.9248,7.0838,6.8876,6.4816,5.9268,5.1488,4.5297,3.9546,3.3694,3.1799,3.1393,3.1968,3.2307,3.3761,3.7652,3.7889,4.046,4.8748,5.142,5.531,6.2821,6.5392,6.7151,6.8673,6.8267,6.7523,6.6643,6.5899,6.5527,6.5662,6.4986,6.4275,6.3531,6.2787,6.1637,6.0114,6.0114,5.937,5.7881,5.6867,5.6156,5.5683,5.4634,5.3923,5.3518,5.3518,5.2131,0.0,5.2503,5.2063,5.0135,5.257,5.3315,5.301,5.301,5.2841,5.2604,5.2604,5.1792,5.0811,5.1083,5.0202,4.9086,4.9526,4.9357,4.9052,4.9357,4.9763,4.9999,4.956,4.9424,4.9357,4.9086,4.9018,4.912,4.956,4.9661,4.9661,4.9661,4.9661,4.9526,4.9086,4.9018,4.9018,4.9018,4.8748,4.8578,4.8578,4.7665,4.7022,4.7022,4.5297,4.4113,4.4113,4.3403,4.2861,4.2557,4.2117,4.1542,4.0798,4.0764,4.0527,4.0113,4.0113,4.0113,4.0113,4.0113,3.9927,3.961,3.9447,3.948,6.326,6.6914,6.9586,6.7996,6.3599,5.7577,4.9695,4.391,3.8497,3.2442,3.119,3.119,3.119,3.119,3.2104,3.4844,3.5216,3.7652,4.479,4.7462,5.1522,5.9167,6.1839,6.4005,6.6373,6.7184,6.7151,6.6102,6.5324,6.5053,6.5358,6.4681,6.4038,6.3531,6.2787,6.1637,6.0114,6.0114,5.937,5.7881,5.7137,5.619,5.504,5.4735,5.3957,5.2841,5.3315,5.2063,0.0,5.2435,5.1995,4.9932,5.2503,5.3518,5.3518,5.3518,5.3518,5.3518,5.3518,5.2503,5.1185,5.1185,5.0202,4.9086,4.9627,4.939,4.9018,4.9018,4.9526,5.0033,4.9729,4.9492,4.9255,4.9052,4.9018,4.9187,4.9932,5.0101,5.0135,5.0371,5.0236,4.9932,4.9424,4.9154,4.9018,4.9018,4.9018,4.9018,4.9018,4.8376,4.7906,4.7906,4.6109,4.4925,4.4925,4.4215,4.3673,4.3409,4.2929,4.2185,4.1238,4.1204,4.0832,4.0113,4.0113,4.0113,4.0113,4.0113,4.0113,4.0087,3.9532,3.9558,6.0994,6.458,6.6846,6.6846,6.1264,5.4397,4.9117,4.2726,3.6671,3.2138,3.119,3.119,3.119,3.119,3.1935,3.4134,3.5814,3.8328,4.2801,4.6012,4.9593,5.4126,5.5987,5.866,6.3125,6.5561,6.6812,6.6812,6.6102,6.5358,6.4647,6.3903,6.3531,6.3531,6.2787,6.1637,6.0114,6.0114,5.937,5.7881,5.7137,5.5649,5.3551,5.4262,5.3348,5.1319,5.2841,5.2638,0.0,5.2875,5.2604,5.1352,5.2909,5.3518,5.3518,5.3518,5.3518,5.3518,5.3518,5.2503,5.1185,5.1185,5.0202,4.9018,4.9018,4.9018,4.9018,4.9018,4.9526,5.027,5.1014,5.0642,4.9898,4.9187,4.9018,4.9187,4.9932,5.0101,5.0304,5.1048,5.0608,5.0101,5.0067,4.9492,4.9018,4.9018,4.9018,4.9018,4.9018,4.8376,4.7906,4.7906,4.6583,4.5703,4.5703,4.4993,4.4248,4.3443,4.3375,4.2726,4.1271,4.1204,4.0832,4.0113,4.0113,4.0113,4.0113,4.0113,4.0113,4.0113,4.0113,4.0113,5.1792,5.504,5.734,5.5784,5.2469,4.8376,4.3639,3.9749,3.5994,3.2002,3.119,3.119,3.119,3.119,3.2273,3.5543,3.6491,3.8556,4.3504,4.6786,5.0879,5.69,6.211,6.5764,6.7184,6.6102,6.573,6.6745,6.5189,6.4309,6.458,6.3903,6.3294,6.2753,6.2516,6.1637,6.0114,6.0114,5.937,5.7881,5.7645,5.6122,5.3551,5.4803,5.3856,5.1286,5.2841,5.2638,5.132,5.2875,5.2604,5.132,5.2909,5.3518,5.3518,5.3518,5.3518,5.3518,5.3518,5.2503,5.1185,5.1185,5.0202,4.9086,4.9593,4.939,4.9221,5.0236,5.0676,5.0913,5.115,5.1048,5.0541,4.9289,4.9796,5.0574,5.0811,5.1251,5.1657,5.1928,5.1758,5.1454,5.0947,5.0236,4.9729,4.9729,4.9323,4.9018,4.9018,4.8815,4.8646,4.8646,4.78,4.6819,4.5805,4.5026,4.4513,4.4215,4.4215,4.3741,4.276,4.2219,4.161,4.0865,4.0383,4.0113,4.0113,4.0113,4.0113,4.0113,4.0113,4.0113,4.5269,4.8748,5.1183,5.0304,4.7564,4.4215,4.084,3.7719,3.4675,3.1799,3.163,3.1867,3.1292,3.1664,3.2611,3.4392,3.6118,3.8454,4.2008,4.5771,5.0439,5.663,6.255,6.6373,6.6948,6.6034,6.5831,6.6745,6.5019,6.414,6.458,6.3632,6.2854,6.2415,6.211,6.1366,6.0114,5.981,5.893,5.7476,5.7476,5.5919,5.3112,5.46,5.3788,5.1286,5.2841,5.2976,0.0,5.3112,5.2942,5.2164,5.3145,5.3518,5.345,5.3179,5.3247,5.345,5.3145,5.2232,5.1185,5.1185,5.0202,4.9154,4.9864,4.9965,5.0101,5.1285,5.1388,5.1285,5.1555,5.142,5.098,5.0067,5.0541,5.1285,5.1555,5.1995,5.2401,5.2706,5.2503,5.2164,5.1691,5.1014,5.0405,5.0135,4.9695,4.9323,4.9052,4.9018,4.9018,4.9018,4.8342,4.75,4.6616,4.5602,4.4919,4.4615,4.4615,4.4215,4.3409,4.2963,4.2252,4.1238,4.073,4.0383,4.0113,4.0113,4.0113,4.0113,4.0113,4.0113,0.0,4.4694,4.7192,4.8511,4.5162,4.1238,3.9884,3.6332,0.0,3.163,3.2442,3.3017,3.1732,3.2645,3.3152,3.1935,3.5318,3.8362,3.9276,4.4181,4.9492,5.4397,5.9099,6.2347,6.3429,6.5561,6.6846,6.6745,6.5392,6.458,6.4512,6.3159,6.2381,6.2313,6.1603,6.0858,6.0114,5.937,5.8254,5.6731,5.6765,5.5209,5.2266,5.3856,5.3348,0.0,5.2841,5.3518,5.3518,5.3518,5.3518,5.3484,5.345,5.3416,5.3315,5.2536,5.2706,5.3247,5.2469,5.1792,5.1185,5.1185,5.0304,4.9357,5.0033,5.071,5.1352,5.2097,5.186,5.1522,5.2131,5.1826,5.132,5.1251,5.1252,5.1555,5.2164,5.2334,5.2604,5.3348,5.2909,5.2401,5.2401,5.1792,5.1048,5.0338,5.0168,4.983,4.9187,4.9052,4.9018,4.9018,4.8409,4.7939,4.7906,4.6616,4.5466,4.4716,4.4682,4.4316,4.3511,4.3409,4.2733,4.1373,4.1271,4.0865,4.018,4.0146,4.0113,4.0113,4.0113,4.0113,3.4336,0.0,3.6772,3.6558,3.5577,3.4561,0.0,3.3343,3.2611,3.2848,3.3152,3.366,3.4416,3.4856,3.5532,3.6941,3.8531,4.046,4.2956,5.071,5.6799,5.8592,6.4309,6.688,6.3802,6.6034,6.7184,6.6034,6.5121,6.4343,6.3802,6.2888,6.2144,6.1569,6.0791,6.0283,6.0114,5.937,5.7983,5.5987,5.6528,5.4938,5.1555,5.3653,5.3348,5.1286,5.2841,5.3518,5.3518,5.3518,5.3518,5.345,5.2807,5.257,5.2503,5.1758,5.1589,5.1725,5.1522,5.1352,5.1185,5.1185,5.1352,5.1555,5.1725,5.1522,5.1352,5.2097,5.2638,5.2875,5.2401,5.2638,5.2672,5.1455,5.2097,5.2841,5.2401,5.2773,5.3281,5.345,5.3348,5.3213,5.3213,5.257,5.1995,5.1792,5.0811,5.0033,4.9864,4.9357,4.9018,4.9018,4.8849,4.8511,4.7939,4.7056,4.621,4.55,4.5432,4.5094,4.435,4.3741,4.324,4.2868,4.1779,4.1102,4.0933,4.0383,4.0113,4.0113,4.0113,4.0113,3.1684,3.2814,3.4117,3.5077,3.4328,3.3562,3.4583,3.325,3.2104,3.3186,3.3423,3.3761,3.4912,3.5115,3.5723,3.7686,3.8903,4.1373,4.6409,5.2807,5.7881,6.0351,6.3903,6.5831,6.5087,6.617,6.6542,6.5764,6.4715,6.3937,6.3531,6.2482,6.1704,6.1332,6.0182,5.9607,5.9607,5.8863,5.7205,5.4702,5.5784,5.4532,5.1252,5.3213,5.3416,5.2266,5.2401,5.2841,5.345,5.2739,5.2638,5.2909,5.2469,5.2097,5.1725,5.098,5.0913,5.1151,5.0811,5.071,5.0642,5.0304,5.071,5.1352,5.1691,5.1758,5.186,5.2638,5.2909,5.2942,5.2875,5.2909,5.2841,5.2367,5.2909,5.3382,5.2942,5.3179,5.3518,5.3518,5.3518,5.3518,5.3518,5.3145,5.2739,5.2367,5.1623,5.0845,5.0168,4.9729,4.939,4.9052,4.9018,4.8849,4.8443,4.8037,4.7361,4.6278,4.5906,4.5534,4.5128,4.435,4.3775,4.3409,4.2286,4.1711,4.1711,4.1305,4.1128,4.1128,4.1128,4.0959,3.1599,3.3243,3.5445,3.7538,3.6161,3.4836,3.6707,3.4054,3.1664,3.3389,3.3761,3.4032,3.5013,3.5453,3.6062,3.7303,3.9276,4.3132,5.0135,5.3822,5.7103,6.0689,6.1941,6.3463,6.5899,6.5967,6.5764,6.5527,6.4275,6.3429,6.3193,6.1975,6.1129,6.0791,5.9505,5.8727,5.8524,5.7983,5.6292,5.3518,5.4905,5.4093,5.142,5.2841,5.3518,5.345,0.0,0.0,5.3213,5.1928,5.1691,5.2131,5.1995,5.1589,5.0947,5.0202,5.0338,5.0811,5.027,5.0101,4.9999,4.9492,4.983,5.0541,5.1183,5.1894,5.2638,5.3315,5.2909,5.2469,5.3145,5.2807,5.2503,5.3315,5.3518,5.3518,5.3518,5.3518,5.3518,5.3518,5.3518,5.3518,5.3518,5.3518,5.3281,5.2604,5.2367,5.1792,5.0439,5.0168,4.983,4.9086,4.9018,4.9018,4.9018,4.9018,4.8477,4.7192,4.6447,4.594,4.5703,4.4993,4.4282,4.3606,4.2861,4.2455,4.2455,4.2354,4.2286,4.2286,4.2286,4.1982,3.3433,3.5277,3.6535,3.4695,3.3914,3.3647,3.4011,3.2557,3.1968,3.4687,3.5261,3.587,3.7922,3.9817,4.0967,4.0595,4.4959,5.0101,5.5074,5.8896,6.096,6.0351,6.4783,6.6643,6.3396,6.5222,6.6136,6.485,6.4005,6.2956,6.1704,6.1434,6.0419,5.8457,5.8186,5.7476,5.6188,5.6731,5.5818,5.3518,5.4363,5.3822,5.2164,5.3078,5.3518,5.3484,0.0,5.2909,5.2469,5.2232,5.1826,5.1319,5.0676,5.0371,5.0168,4.9424,4.9255,4.9424,4.9932,5.0101,5.0168,5.071,5.1352,5.1995,5.2097,5.2706,5.3348,5.3484,5.2909,5.2334,5.2469,5.2401,5.2503,5.3315,5.3518,5.3518,5.3518,5.3518,5.3518,5.3518,5.3518,5.3518,5.3518,5.3518,5.345,5.3348,5.2739,5.1995,5.115,5.0473,4.983,4.9086,4.9018,4.9018,4.9018,4.9018,4.8917,4.868,4.797,4.6993,4.5771,4.4993,4.4547,4.4445,4.3639,4.3234,4.3234,4.2591,4.2286,4.2286,4.2286,4.2219,3.3108,3.4872,3.6616,3.6725,3.6594,3.7024,3.9314,3.6589,3.4742,3.8868,3.7509,3.665,4.0141,4.1307,4.2794,4.6075,5.0947,5.504,5.7103,5.9235,6.0757,6.1264,6.3802,6.4986,6.37,6.4816,6.5155,6.4106,6.2956,6.2009,6.1332,6.052,5.9404,5.7949,5.7509,5.6596,5.5108,5.5446,5.4668,5.2875,5.4025,5.3585,5.1758,5.2942,5.3518,5.345,0.0,5.1894,5.2198,5.1014,5.0541,5.0574,5.0236,4.9864,4.9458,4.912,4.9018,4.9052,4.939,4.9492,4.956,4.9898,5.0777,5.1623,5.1217,5.2232,5.3348,5.2503,5.2604,5.2942,5.2942,5.2942,5.3044,5.3416,5.3518,5.3518,5.3518,5.3518,5.3518,5.3518,5.3518,5.3518,5.3518,5.3518,5.3518,5.3518,5.3179,5.2672,5.1894,5.115,5.0405,4.9661,4.9255,4.9018,4.9018,4.9018,4.8849,4.8443,4.8075,4.7428,4.6346,4.5602,4.5365,4.5771,4.4621,4.4248,4.4654,4.3876,4.3565,4.3565,4.3565,4.3301,3.3109,3.4587,3.6592,3.8873,3.8781,3.9434,4.4483,4.0446,3.7238,4.3129,4.0799,3.8871,4.2614,4.3147,4.498,5.1046,5.5615,5.866,5.937,6.025,6.1434,6.299,6.3159,6.3531,6.4512,6.4275,6.3869,6.3294,6.1873,6.0926,6.0791,5.9471,5.8321,5.7408,5.6664,5.5649,5.4363,5.4329,5.3754,5.2604,5.3788,5.3416,5.1792,5.2976,5.3518,5.3382,5.1454,5.115,5.1894,5.0033,4.9492,4.983,4.983,4.9492,4.9018,4.9018,4.9018,4.9018,4.9018,4.9018,4.9018,4.9018,4.9898,5.0879,5.0473,5.1691,5.301,5.2029,5.2469,5.3213,5.3213,5.3213,5.3281,5.345,5.3518,5.3518,5.3518,5.3518,5.3518,5.3518,5.3518,5.3518,5.3518,5.3518,5.3518,5.3518,5.3518,5.3213,5.2401,5.1657,5.0913,5.0168,4.9424,4.9018,4.9018,4.9018,4.8781,4.8176,4.7973,4.7665,4.709,4.6346,4.6143,4.6515,4.5432,4.5026,4.5432,4.4857,4.4615,4.4615,4.4615,4.4248,3.4939,3.5818,3.6878,3.86,3.7293,3.7512,4.4996,4.0939,3.7866,4.5985,4.5669,4.4467,4.6081,4.7462,4.9648,5.372,5.7509,6.0926,6.3734,6.5358,6.6068,6.5493,6.5459,6.5222,6.4647,6.3362,6.2516,6.2482,6.1061,5.9911,5.9201,5.8423,5.734,5.5919,5.5141,5.4363,5.3585,5.3585,5.3518,5.3416,5.3518,5.3484,5.3348,5.345,5.3518,5.345,5.2536,5.1826,5.1217,5.0371,4.9627,4.9086,4.9086,4.9052,4.9018,4.9018,4.9018,4.9018,4.9018,4.9018,4.9018,4.9018,4.9526,5.0304,5.0947,5.1725,5.2536,5.3179,5.2875,5.2401,5.2401,5.2401,5.257,5.3315,5.3518,5.3518,5.3518,5.3518,5.3518,5.3518,5.3518,5.3518,5.3518,5.3518,5.3518,5.3518,5.3518,5.3213,5.2401,5.1657,5.0913,5.0168,4.9424,4.9018,4.9018,4.9018,4.8984,4.8917,4.8277,4.7872,4.7804,4.7124,4.6413,4.5805,4.5669,4.5297,4.4682,4.4649,4.4615,4.4615,4.4615,4.4581,3.4294,3.6094,3.8389,4.0516,3.9497,3.9838,4.6866,4.5866,4.5334,5.2072,5.1027,4.8588,4.761,5.0607,5.3964,5.6393,6.0324,6.3797,6.5955,6.6756,6.7034,6.6721,6.6156,6.5362,6.416,6.3042,6.2009,6.1028,5.9573,5.8592,5.8321,5.7171,5.6089,5.504,5.4735,5.4262,5.3518,5.3518,5.3518,5.3518,5.3518,5.3518,5.3518,5.3518,5.3518,5.345,5.2164,5.1488,5.1116,4.9898,4.9255,4.9018,4.9018,4.9018,4.9018,4.9018,4.9018,4.9018,4.9018,4.9018,4.9018,4.9018,4.983,5.0744,5.0574,5.1691,5.301,5.2807,5.2536,5.2435,5.2909,5.2672,5.2503,5.3315,5.3518,5.3518,5.3518,5.3518,5.3518,5.3518,5.3518,5.3518,5.3518,5.3518,5.3518,5.3518,5.3518,5.3213,5.2401,5.1657,5.0913,5.0168,4.9424,4.9018,4.9018,4.9018,4.9018,4.9018,4.8748,4.8578,4.8578,4.7902,4.7564,4.7767,4.6853,4.6244,4.594,4.55,4.5026,4.4615,4.4615,4.4615,3.3807,3.5642,3.8123,4.0561,4.051,4.1859,4.9647,4.9577,4.9816,5.6879,5.6006,5.3458,5.1847,5.4077,5.6674,5.8227,6.192,6.511,6.6701,6.6879,6.6808,6.6561,6.5759,6.4739,6.345,6.2144,6.0904,5.9848,5.8199,5.7205,5.7205,5.6021,5.5108,5.46,5.4363,5.4025,5.3518,5.3247,5.3112,5.3112,5.341,5.3479,5.3518,5.3518,5.3382,5.3044,5.1758,5.1082,5.0777,4.9526,4.9018,4.9018,4.9018,4.9018,4.9018,4.9018,4.9018,4.9018,4.9018,4.9018,4.9018,4.9018,4.9695,5.0507,5.0473,5.1555,5.2773,5.2706,5.2503,5.2503,5.3281,5.2909,5.2503,5.3315,5.3518,5.3518,5.3518,5.3518,5.3518,5.3518,5.3518,5.3518,5.3518,5.3518,5.3518,5.3518,5.3518,5.3315,5.2739,5.1826,5.0845,4.9864,4.9289,4.9018,4.9018,4.9018,4.9018,4.9018,4.9018,4.9018,4.9018,4.8545,4.8376,4.8646,4.7665,4.7022,4.6786,4.6278,4.5771,4.5292,4.5292,4.519,3.3807,3.4417,3.5614,3.8123,3.9606,4.3116,5.3259,5.1144,4.9863,5.9727,6.0413,5.9274,5.9465,5.8099,5.7495,5.9141,6.1942,6.443,6.5886,6.6031,6.5714,6.5004,6.4193,6.3382,6.2669,6.048,5.9111,5.9111,5.6986,5.5716,5.5716,5.5006,5.4566,5.4566,5.3856,5.3484,5.3484,5.2706,5.23,5.23,5.3097,5.3479,5.3484,5.3484,5.3044,5.2266,5.1522,5.0777,5.0033,4.9289,4.9018,4.9018,4.9018,4.9018,4.9018,4.9018,4.9018,4.9018,4.9018,4.9018,4.9018,4.9018,4.9018,4.9289,5.0777,5.1217,5.1555,5.3078,5.2909,5.2503,5.3281,5.2909,5.2503,5.3315,5.3518,5.3518,5.3518,5.3518,5.3518,5.3518,5.3518,5.3518,5.3518,5.3518,5.3518,5.3518,5.3518,5.3518,5.3484,5.2164,5.0642,4.9187,4.9018,4.9018,4.9018,4.9018,4.9018,4.9018,4.9018,4.9018,4.9018,4.9018,4.868,4.7906,4.7906,4.7564,4.6819,4.6819,4.6786,4.6786,4.6786,4.638,3.5569,3.6264,3.7575,3.9932,4.313,4.7003,5.2058,5.2873,5.4607,6.1901,6.2014,6.0377,5.8984,6.0511,6.1615,6.0548,6.3409,6.5856,6.63,6.6373,6.6053,6.5283,6.3899,6.2719,6.1953,6.021,5.8654,5.7552,5.6359,5.5481,5.4939,5.4228,5.3822,5.3822,5.3078,5.2672,5.2672,5.1928,5.1555,5.1522,5.1779,5.1849,5.1928,5.3014,5.278,5.1488,5.0744,5.0304,5.0033,4.9289,4.9018,4.9018,4.9018,4.9018,4.9018,4.9018,4.9018,4.9018,4.9018,4.9018,4.9077,4.9551,5.0089,5.0636,5.1089,5.197,5.2807,5.2706,5.2469,5.2503,5.3281,5.2909,5.2503,5.3315,5.3518,5.3518,5.3518,5.3518,5.3518,5.3518,5.3518,5.3518,5.3518,5.3518,5.3518,5.3518,5.3518,5.3315,5.2739,5.1826,5.0845,4.9864,4.9763,4.956,4.9052,4.9018,4.9018,4.9018,4.9018,4.9018,4.9018,4.9018,4.8917,4.868,4.868,4.8308,4.7597,4.7597,4.7327,4.6786,4.6786,4.638,3.7367,3.8209,3.9724,4.3992,4.7102,5.0069,5.3713,5.6646,5.996,6.4972,6.4684,6.3202,6.2265,6.3209,6.3793,6.2751,6.4788,6.6402,6.6072,6.5742,6.5228,6.442,6.3116,6.195,6.1178,5.9669,5.8301,5.7399,5.633,5.5375,5.4601,5.3903,5.3365,5.3026,5.226,5.186,5.186,5.115,5.0777,5.0777,5.1091,5.0921,5.0371,5.1893,5.193,5.0744,4.9965,4.9661,4.9627,4.9187,4.9018,4.9018,4.9018,4.9018,4.9018,4.9018,4.9018,4.9018,4.9018,4.9018,4.9107,4.978,5.0341,5.0796,5.1104,5.1855,5.2484,5.2025,5.2063,5.2401,5.2909,5.2909,5.2909,5.3382,5.3518,5.3518,5.3518,5.3518,5.3518,5.3518,5.3518,5.3518,5.3518,5.3518,5.3382,5.3078,5.301,5.2739,5.1961,5.1488,5.0811,4.9763,4.9661,4.9492,4.9052,4.9018,4.912,4.9424,4.9154,4.912,4.9424,4.9154,4.9018,4.9018,4.9018,4.8781,4.8342,4.8342,4.8105,4.7665,4.7665,4.7293,3.9239,4.0141,4.1869,4.8925,5.1142,5.2846,5.7832,6.1661,6.5054,6.8036,6.745,6.6616,6.754,6.5778,6.4457,6.5191,6.5925,6.6072,6.5191,6.4457,6.3613,6.2695,6.1887,6.108,6.0382,5.8965,5.8037,5.7877,5.6545,5.5319,5.4464,5.3801,5.3107,5.2325,5.1589,5.1212,5.1212,5.0403,5.0031,5.0091,5.0789,5.0356,4.9052,5.0536,5.0773,4.9997,4.9342,4.9036,4.8975,4.8975,4.8975,4.8975,4.9015,4.9018,4.9018,4.9018,4.9018,4.9018,4.9018,4.9018,4.9138,4.9867,5.0096,5.0275,5.1043,5.1298,5.1277,5.123,5.1656,5.2232,5.2266,5.2841,5.3416,5.3484,5.3518,5.3518,5.3518,5.3518,5.3518,5.3518,5.3518,5.3484,5.3416,5.3382,5.3145,5.2401,5.23,5.2063,5.1386,5.1319,5.0744,4.9255,4.9086,4.9086,4.9018,4.9052,4.939,5.0067,4.9458,4.939,5.0067,4.939,4.9018,4.9018,4.9018,4.9018,4.9018,4.9018,4.9018,4.9018,4.9018,4.8612,4.1075,4.1937,4.3355,4.8641,5.3289,5.8046,6.3494,6.4823,6.5337,6.6719,6.6161,6.5864,6.7423,6.6219,6.5118,6.5264,6.5448,6.5044,6.3551,6.3209,6.2548,6.108,6.0236,5.9625,5.9478,5.8613,5.7522,5.6313,5.5893,5.5052,5.3616,5.3415,5.3041,5.232,5.1558,5.1222,5.1222,4.9869,4.9494,5.0021,4.9676,4.9338,4.9049,5.0571,5.051,4.9249,4.9562,4.9381,4.8856,4.8856,4.8856,4.8868,4.8961,4.9018,4.9018,4.9018,4.9018,4.9018,4.9018,4.9018,4.9229,5.048,5.0892,5.1065,5.1708,5.1969,5.1949,5.1356,5.1284,5.1589,5.2164,5.2435,5.2706,5.3348,5.3518,5.3518,5.3518,5.3518,5.3518,5.3518,5.3518,5.3315,5.2672,5.257,5.2503,5.2334,5.23,5.2232,5.2097,5.2063,5.1488,4.9999,4.9864,4.9627,4.9052,4.9526,4.9932,5.0067,4.9932,4.9932,5.0067,4.939,4.9018,4.9018,4.9018,4.9018,4.9018,4.9018,4.9018,4.9018,4.9018,4.8612,4.1442,4.3267,4.585,5.2557,5.767,6.167,6.4166,6.5013,6.5387,6.5846,6.5852,6.5906,6.6433,6.5888,6.5044,6.4211,6.4127,6.3539,6.1887,6.1667,6.119,5.9979,5.9441,5.9038,5.8657,5.7923,5.7088,5.6284,5.586,5.5112,5.388,5.3483,5.297,5.221,5.1172,5.0483,5.0102,4.9005,4.863,4.8903,4.8541,4.8541,4.8882,4.9727,4.9666,4.8939,4.9223,4.9107,4.8767,4.8767,4.8977,4.9334,4.9396,4.9671,4.9982,4.9639,4.9492,4.9432,4.9107,4.9018,4.9226,5.0635,5.1105,5.1279,5.1909,5.214,5.1977,5.0898,5.0887,5.1213,5.1246,5.1758,5.2401,5.2841,5.3213,5.3518,5.3518,5.3518,5.3518,5.3518,5.3518,5.3247,5.2435,5.1725,5.1352,5.1725,5.1488,5.1251,5.1251,5.1555,5.1352,5.0202,5.0405,5.0473,5.0101,5.0405,5.0777,5.1116,5.0811,5.0642,5.0642,4.9932,4.9357,4.9018,4.9018,4.9018,4.9018,4.9018,4.9018,4.9018,4.9018,4.8815,4.0855,4.4378,4.8866,5.701,6.1157,6.3167,6.2876,6.3673,6.4494,6.464,6.5411,6.5852,6.5044,6.4751,6.4163,6.2658,6.2401,6.1887,6.0419,6.0199,5.9905,5.9074,5.8854,5.8524,5.785,5.7079,5.6528,5.6418,5.5757,5.5023,5.4252,5.3604,5.2844,5.1932,5.0665,4.9639,4.8901,4.8104,4.7768,4.7881,4.7854,4.8173,4.8685,4.8715,4.8762,4.8812,4.8816,4.8768,4.8671,4.8671,4.9061,4.9664,4.968,5.0175,5.0796,5.0077,4.9901,4.989,4.9226,4.9018,4.9226,5.0635,5.1086,5.1241,5.2042,5.2183,5.1814,5.0554,5.0569,5.0833,5.0252,5.1014,5.1995,5.2232,5.2807,5.3348,5.3484,5.3518,5.3518,5.3518,5.3281,5.2942,5.2401,5.098,5.0202,5.1082,5.0574,5.0135,5.027,5.0845,5.098,5.0338,5.0845,5.1185,5.1185,5.1319,5.1657,5.2266,5.1623,5.1185,5.1185,5.0371,4.9627,4.9018,4.9018,4.9018,4.9018,4.9018,4.9018,4.9018,4.9018,4.9018,3.9496,4.559,5.2286,5.6965,5.9027,6.0371,6.235,6.1887,6.1263,6.1961,6.3319,6.4163,6.3319,6.2548,6.1777,6.086,6.0713,6.0419,5.9478,5.9368,5.9061,5.8253,5.7556,5.7079,5.6969,5.6235,5.5464,5.4766,5.462,5.4216,5.3387,5.325,5.255,5.1102,5.0371,4.9639,4.8801,4.7573,4.7505,4.866,4.861,4.8635,4.87,4.8591,4.8604,4.8741,4.9249,4.9116,4.852,4.852,4.8592,4.869,4.8826,4.9372,4.9966,4.9221,4.9388,4.989,4.9226,4.9018,4.9226,5.0635,5.1086,5.1343,5.2658,5.2599,5.1946,5.1164,5.057,5.0143,5.0116,5.0236,5.071,5.1995,5.2367,5.2638,5.3348,5.3518,5.3518,5.3518,5.2435,5.1691,5.2198,5.0541,4.9627,5.0982,5.0574,5.0338,5.098,5.115,5.1151,5.1082,5.115,5.1185,5.1185,5.1792,5.2198,5.23,5.1623,5.1185,5.1185,4.9898,4.9086,4.9018,4.9018,4.9018,4.9018,4.9018,4.9018,4.9018,4.9018,4.9018,4.1332,4.5186,4.9444,5.5757,5.6602,5.6799,6.0603,6.0199,5.9428,6.0676,6.152,6.1924,6.152,6.119,6.0676,5.9869,5.9735,5.9465,5.8657,5.8547,5.8217,5.7409,5.7042,5.6638,5.6161,5.539,5.4766,5.4436,5.3995,5.3371,5.2564,5.2527,5.2019,5.0866,5.0181,4.946,4.8696,4.7723,4.7512,4.8015,4.8343,4.8475,4.8461,4.8426,4.8468,4.8613,4.879,4.8683,4.8384,4.8384,4.8696,4.9112,4.9184,4.9712,5.038,5.0065,5.0196,5.0484,5.025,5.0174,5.0342,5.1343,5.1643,5.1874,5.2893,5.2959,5.2486,5.1393,5.0876,5.0439,4.9695,4.9796,5.0236,5.0913,5.1691,5.2401,5.2739,5.3179,5.3518,5.3518,5.2266,5.1286,5.1623,5.0202,4.9221,4.9864,4.9695,4.9763,5.0473,5.0947,5.1386,5.1792,5.2232,5.2503,5.2503,5.2807,5.2976,5.2976,5.2266,5.1657,5.1219,5.0168,4.9424,4.9018,4.9018,4.9018,4.9018,4.9018,4.9018,4.9018,4.9018,4.9018,4.1368,4.3167,4.5149,5.2013,5.2653,5.28,5.7262,5.7483,5.7299,5.9098,5.9648,5.9795,5.9795,5.9979,5.9758,5.8744,5.8597,5.84,5.7776,5.7519,5.7226,5.6859,5.6455,5.5941,5.5354,5.4363,5.3775,5.3775,5.3041,5.2344,5.172,5.1683,5.1316,5.0508,4.98,4.8951,4.7998,4.728,4.6887,4.6807,4.7614,4.8012,4.8012,4.8012,4.8052,4.8134,4.8258,4.8306,4.8306,4.8306,4.8673,4.928,4.928,4.9774,5.0485,5.0329,5.0538,5.0901,5.0819,5.0909,5.1215,5.1862,5.2112,5.2229,5.2959,5.3203,5.2893,5.1504,5.1086,5.077,4.9376,4.939,4.9864,5.0067,5.0947,5.1894,5.2469,5.3078,5.3518,5.3518,5.2266,5.1285,5.1454,5.0101,4.9052,4.9255,4.912,4.9323,5.027,5.0879,5.1589,5.2503,5.3145,5.3518,5.3518,5.3518,5.3518,5.3518,5.2739,5.2063,5.1522,5.0574,4.983,4.9289,4.9086,4.9018,4.9018,4.9018,4.9018,4.9018,4.9018,4.9018,3.7125,3.8998,4.0965,4.4452,4.6379,4.8287,5.1683,5.2968,5.4142,5.6492,5.7593,5.8107,5.8107,5.8767,5.8744,5.7189,5.6932,5.6932,5.6859,5.6198,5.5978,5.6712,5.5464,5.4509,5.4473,5.3041,5.2123,5.2123,5.1389,5.0912,5.0875,5.0875,5.0472,4.9684,4.8986,4.7926,4.6353,4.5518,4.5122,4.5127,4.6499,4.7149,4.7149,4.7149,4.7167,4.7222,4.7957,4.8306,4.8306,4.8306,4.8343,4.8379,4.8379,4.8893,4.9568,4.8894,4.9577,5.0829,5.019,5.0458,5.1215,5.1862,5.2112,5.2229,5.2959,5.3203,5.2893,5.1504,5.1086,5.077,4.9376,4.9052,4.9221,4.9932,5.0135,5.0811,5.2976,5.3484,5.3518,5.3518,5.2266,5.142,5.2131,5.0439,4.9255,4.9932,4.9458,4.9526,5.098,5.1183,5.1792,5.3281,5.3484,5.3518,5.3518,5.3518,5.3518,5.3518,5.2739,5.2266,5.2232,5.0845,5.0067,5.0033,4.9357,4.9018,4.9018,4.9018,4.9018,4.9018,4.9018,4.9018,3.6207,3.6743,3.7793,4.2103,4.2837,4.3608,4.7902,4.9884,5.1096,5.1977,5.4436,5.6124,5.5097,5.6418,5.7483,5.6895,5.6381,5.6014,5.6014,5.5757,5.55,5.528,5.4766,5.3995,5.2968,5.2344,5.1793,5.1279,4.9679,4.9127,4.9994,4.8254,4.7448,4.7993,4.727,4.6589,4.6005,4.5713,4.5567,4.5586,4.6085,4.6324,4.6324,4.6324,4.6324,4.6361,4.6617,4.7058,4.7516,4.7516,4.781,4.8306,4.8306,4.8489,4.88,4.9115,4.9581,5.018,5.0947,5.1425,5.1796,5.2543,5.2791,5.2872,5.3124,5.3203,5.3017,5.2018,5.1419,5.0876,4.9925,4.9316,4.9187,4.9898,5.0101,5.0574,5.2367,5.3145,5.3518,5.3518,5.2266,5.1252,5.1555,5.0168,4.9086,4.9357,4.956,5.0067,5.1082,5.1623,5.2131,5.2672,5.2739,5.2536,5.2063,5.2469,5.2739,5.2739,5.2469,5.23,5.23,5.0879,5.0101,5.0101,4.939,4.9018,4.9018,4.9018,4.9018,4.9018,4.9018,4.9018,3.5165,3.5055,3.5518,3.935,3.946,3.9753,4.3791,4.6361,4.8049,4.8636,5.1977,5.4473,5.3387,5.4509,5.5684,5.5941,5.5537,5.5207,5.5207,5.495,5.4693,5.4436,5.3922,5.3151,5.2087,5.1499,5.0969,5.0435,4.8819,0.0,4.8746,4.69,4.6115,4.6672,4.592,4.5516,4.5516,4.5223,4.5076,4.5112,4.5369,4.5516,4.5516,4.5516,4.5516,4.548,4.5223,4.5847,4.7113,4.7113,4.7553,4.8306,4.8306,4.8306,4.8379,4.893,4.9353,4.9794,5.1132,5.1756,5.2123,5.2931,5.3203,5.3203,5.3203,5.3203,5.306,5.2312,5.1765,5.1215,5.0223,4.9521,4.912,4.9593,4.9898,5.0371,5.1352,5.2367,5.3179,5.345,5.2469,5.1488,5.1251,5.0405,4.9661,4.9424,4.9999,5.0744,5.1488,5.1995,5.23,5.23,5.23,5.1995,5.1285,5.1894,5.23,5.23,5.257,5.2706,5.2706,5.1251,5.0473,5.0473,4.9492,4.9018,4.9018,4.9018,4.9018,4.9018,4.9018,4.9018,0.0,0.0,0.0,3.5789,3.6193,3.6853,3.9218,4.2249,4.4948,4.6562,5.0121,5.2983,5.2983,5.302,5.3335,5.4106,5.4252,5.4289,5.4289,5.3628,5.3445,5.4216,5.2931,5.194,5.1903,5.0528,4.9574,4.9537,4.871,4.7846,4.7113,4.7039,4.6636,4.5847,4.5076,4.4654,4.4654,4.3901,4.3515,4.3515,4.4305,4.4654,4.4654,4.4654,4.4654,4.4618,4.3828,4.4856,4.7039,4.7039,4.7516,4.8269,4.8269,4.8269,4.8306,4.8306,4.882,4.9684,5.0508,5.1316,5.2087,5.2931,5.3203,5.3203,5.3203,5.3203,5.306,5.2335,5.2112,5.1765,5.0362,4.9521,4.9018,4.9018,4.956,5.0067,5.0101,5.1251,5.2503,5.3315,5.2807,5.2063,5.1352,5.1185,5.098,5.0236,5.0777,5.1488,5.2198,5.2334,5.2334,5.23,5.23,5.1995,5.1285,5.1894,5.23,5.23,5.3078,5.3484,5.3484,5.2029,5.1217,5.1183,4.9763,4.9018,4.9018,4.9018,4.9018,4.9018,4.9018,4.9018,3.3109,0.0,0.0,0.0,0.0,0.0,3.6068,3.8417,4.0671,4.1662,4.5112,4.7939,4.7939,4.937,5.0472,5.0068,5.0986,5.1793,5.1793,5.161,5.1573,5.1756,5.1389,5.0912,5.0308,4.9867,4.9096,0.0,4.6188,4.5493,4.6195,4.57,4.5002,4.4195,4.3938,4.3828,4.3828,4.3608,4.3515,4.3515,4.3718,4.3828,4.3828,4.3828,4.3828,4.3828,4.3625,4.4195,4.5351,4.5351,4.6159,4.7443,4.7443,4.7773,4.8306,4.8306,4.8453,4.8857,5.0288,5.0949,5.1353,5.2747,5.3203,5.3203,5.3203,5.3203,5.3146,5.2959,5.2531,5.1765,5.0362,4.9521,4.9018,4.9018,4.9154,4.9458,4.9965,5.0845,5.1725,5.2503,5.2029,5.1623,5.1961,5.1555,5.1117,5.0947,5.1522,5.2063,5.2266,5.2807,5.2942,5.2367,5.23,5.1995,5.1285,5.1894,5.23,5.23,5.3078,5.3247,5.2672,5.1725,5.0947,5.0405,4.9492,4.9018,4.9018,4.9018,4.9018,4.9018,4.9018,4.9018,3.3647,3.3683,3.3844,3.41,0.0,0.0,3.4307,3.6156,3.7918,3.8741,4.2103,4.4672,4.4011,4.5626,4.6783,4.592,4.6911,4.8343,5.0068,5.0582,5.0692,5.0325,4.9994,4.9444,4.8636,4.8233,4.7645,4.6691,4.5478,4.4966,4.5388,4.4635,4.3975,4.3497,4.3515,4.3515,4.3515,4.3515,4.3515,4.3515,4.3515,4.3515,4.3515,4.3515,4.3515,4.3515,4.3515,4.3754,4.4195,4.4195,4.5369,4.7113,4.7113,4.759,4.8306,4.8306,4.8306,4.8563,5.0215,5.0802,5.1059,5.2674,5.3203,5.3203,5.3203,5.3203,5.3203,5.3203,5.268,5.191,5.1112,5.0174,4.9402,4.9402,4.9195,4.912,4.956,4.9965,5.0676,5.2029,5.2232,5.2198,5.2266,5.2232,5.2063,5.1725,5.2334,5.2807,5.2807,5.3213,5.3179,5.2401,5.23,5.1995,5.1285,5.1894,5.23,5.23,5.2739,5.2942,5.2807,5.1488,5.0676,5.0574,4.9526,4.9018,4.9018,4.9018,4.9018,4.9018,4.9018,4.9018,3.4637,3.4344,3.4174,3.5642,3.4321,0.0,3.3513,3.4761,3.6009,3.6905,3.9953,4.2029,4.0802,4.1882,4.269,4.1882,4.258,4.458,4.8399,4.9701,4.9921,4.9023,4.8379,4.7736,4.7039,4.6324,4.5847,4.5773,4.5663,4.5333,4.4599,4.3901,4.3515,4.3515,4.3515,4.3515,4.3515,4.3515,4.3515,4.3515,4.3515,4.3515,4.3515,4.3515,4.3515,4.3515,4.3515,4.3515,4.3515,4.3515,4.4819,4.6856,4.6929,4.7443,4.8196,4.8269,4.8306,4.8526,5.0105,5.0729,5.1059,5.2564,5.3151,5.3203,5.3203,5.3203,5.3203,5.3203,5.268,5.2112,5.2112,5.1138,5.0146,5.0146,4.9576,4.9141,4.9209,4.9249,4.9864,5.1894,5.2807,5.3044,5.2401,5.2976,5.3247,5.2435,5.2976,5.3518,5.3518,5.3518,5.3247,5.2503,5.2435,5.2164,5.1522,5.2063,5.2401,5.23,5.23,5.257,5.3213,5.1285,5.0541,5.1217,4.983,4.9086,4.9018,4.9018,4.9018,4.9018,4.9018,4.9018,3.3807,3.3917,3.388,3.4211,3.344,0.0,3.2803,3.2596,3.2792,3.4211,3.5128,3.6009,3.7037,3.8542,3.9386,3.8557,4.0194,4.2323,4.4396,4.592,4.6324,4.4873,4.5663,4.6324,4.614,4.5993,4.5626,4.5002,4.4342,4.3919,4.3718,4.3571,4.3515,4.3515,4.3515,4.3515,4.3515,4.3515,4.3515,4.3515,4.3515,4.3515,4.3515,4.3515,4.3515,4.3515,4.3515,4.3515,4.3515,4.3515,4.4158,4.5241,4.5883,4.6617,4.7406,4.8086,4.8306,4.8453,4.9481,5.0251,5.0949,5.1903,5.2674,5.3203,5.3203,5.3203,5.3203,5.3203,5.268,5.2112,5.2112,5.1494,5.0876,5.0876,5.0307,4.9982,5.0631,5.0772,5.1082,5.2097,5.1961,5.1792,5.2232,5.2976,5.3247,5.2435,5.2976,5.3518,5.3518,5.3518,5.345,5.3281,5.3281,5.3213,5.3078,5.3179,5.2976,5.2334,5.23,5.2097,5.1691,5.1217,5.1082,5.1185,5.0338,4.9593,4.9018,4.9018,4.9018,4.9018,4.9018,4.9018,3.416,3.41,3.3917,3.4307,3.35,0.0,0.0,3.2008,3.2228,3.3036,3.383,3.4417,3.4468,3.5789,3.6597,3.5789,3.7,3.8343,3.9166,4.2066,4.3791,4.2983,4.3975,4.4562,4.4121,4.4452,4.4525,4.4121,4.3718,4.3515,4.3515,4.3515,4.3515,4.3515,4.3515,4.3515,4.3515,4.3515,4.3515,4.3515,4.3515,4.3515,4.3515,4.3515,4.3515,4.3515,4.3515,4.3515,4.3515,4.3515,4.3975,4.4764,4.559,4.6397,4.7186,4.8012,4.8306,4.8416,4.926,5.0105,5.0949,5.172,5.2527,5.3203,5.3203,5.3203,5.3203,5.3203,5.2937,5.2644,5.2644,5.2149,5.1593,5.1593,5.106,5.069,5.1095,5.1197,5.1421,5.2162,5.1995,5.186,5.2232,5.2334,5.2232,5.1826,5.2097,5.2367,5.2367,5.2367,5.2503,5.2875,5.2909,5.3078,5.3484,5.3518,5.3312,5.2882,5.2155,5.1921,5.2267,5.1238,5.0845,5.1185,5.0845,5.0304,4.956,4.956,4.9357,4.9018,4.9018,4.9018,3.4564,3.427,3.3954,3.4601,3.3903,3.2803,0.0,0.0,0.0,3.2656,3.3757,3.4307,3.2876,3.3793,3.4454,3.3476,3.4014,3.4527,3.4527,3.794,4.0561,4.0855,4.1625,4.1936,4.1405,4.2249,4.2964,4.3258,4.3404,4.3515,4.3515,4.3515,4.3515,4.3515,4.3515,4.3515,4.3515,4.3515,4.3515,4.3515,4.3515,4.3515,4.3515,4.3515,4.3515,4.3515,4.3515,4.3515,4.3515,4.3515,4.3864,4.4562,4.5516,4.6397,4.7186,4.8012,4.8306,4.8379,4.904,4.9958,5.0912,5.1573,5.2417,5.3203,5.3203,5.3203,5.3203,5.3203,5.3203,5.3203,5.3203,5.2769,5.2312,5.2312,5.1801,5.135,5.1542,5.1464,5.1592,5.2335,5.2514,5.2418,5.2162,5.1725,5.1319,5.1048,5.1116,5.1185,5.1185,5.132,5.1657,5.2232,5.23,5.267,5.3616,5.3446,5.3327,5.341,5.2018,5.1794,5.313,5.1629,5.0947,5.142,5.1388,5.1048,5.0304,5.0168,4.9729,4.9018,4.9018,4.9018,3.3733,3.388,3.3807,3.3917,3.4344,3.4344,3.2803,0.0,3.4307,3.2876,0.0,3.366,3.2766,0.0,0.0,3.1898,3.2339,3.2876,3.2876,3.3353,3.4234,3.5665,3.6597,3.7367,3.797,3.9439,4.0891,4.2323,4.3094,4.3515,4.3515,4.3515,4.3515,4.3515,4.3515,4.3515,4.3515,4.3515,4.3515,4.3515,4.3515,4.3515,4.3515,4.3515,4.3515,4.3515,4.3515,4.3515,4.3515,4.3515,4.3551,4.3808,4.5296,4.6397,4.7186,4.8012,4.8306,4.8306,4.8416,4.9481,5.0839,5.0912,5.1977,5.3203,5.3203,5.3203,5.3203,5.3203,5.3203,5.3203,5.3203,5.3124,5.3082,5.3082,5.2531,5.2186,5.2844,5.2517,5.2286,5.3021,5.3225,5.2857,5.1575,5.1826,5.1725,5.0405,5.0777,5.1185,5.1185,5.1792,5.2198,5.23,5.23,5.2898,5.435,5.3207,5.2705,5.3337,5.2021,5.1578,5.2394,5.2859,5.2807,5.2198,5.2198,5.1826,5.1082,5.0405,4.9729,4.9018,4.9018,4.9018,3.4908,3.5238,3.5238,3.5238,3.5495,3.5569,3.4908,3.4541,3.4234,3.405,0.0,0.0,0.0,0.0,0.0,0.0,3.1971,3.1898,3.1898,3.1078,3.1445,3.3977,3.5041,0.0,3.8028,3.7955,3.8469,4.0084,4.0965,4.1405,4.1405,4.2727,4.3515,4.3515,4.3515,4.3515,4.3515,4.3515,4.3515,4.3515,4.3515,4.3515,4.3515,4.3515,4.3515,4.3515,4.3515,4.3515,4.3515,4.3515,4.3754,4.4268,4.4929,4.57,4.6581,4.7829,4.8306,4.8306,4.8306,4.9077,5.0251,5.1169,5.227,5.3203,5.3203,5.3203,5.3203,5.3203,5.3203,5.3203,5.3203,5.3203,5.3203,5.3203,5.2959,5.2817,5.3111,5.2999,5.3028,5.3847,5.404,5.3732,5.2648,5.2071,5.1203,4.9687,4.9729,4.9932,4.9932,5.0202,5.071,5.1589,5.1657,5.2252,5.3756,5.3298,5.3037,5.3313,5.2805,5.2394,5.2304,5.3041,5.3348,5.301,5.301,5.2604,5.186,5.1522,5.1014,5.027,4.9424,4.9018,3.6633,3.6964,3.6853,3.6413,3.645,3.6486,3.6046,3.5202,0.0,3.5224,3.4908,0.0,0.0,0.0,3.3793,3.2766,0.0,3.1654,3.1433,3.021,3.0198,3.2559,3.3789,3.5054,0.0,3.6329,3.6527,3.7588,3.9126,4.005,4.005,4.232,4.3647,4.3647,4.3529,4.3515,4.3515,4.3515,4.3515,4.3515,4.3515,4.3515,4.3515,4.3515,4.3515,4.3515,4.3515,4.3515,4.3515,4.3515,4.3828,4.4378,4.4635,4.5186,4.6067,4.7462,4.8122,4.8306,4.8306,4.9003,5.0178,5.1793,5.2711,5.3203,5.3203,5.3203,5.3203,5.3203,5.3203,5.3203,5.3203,5.3203,5.3203,5.3203,5.3203,5.3207,5.3212,5.3191,5.3327,5.3761,5.4171,5.4134,5.2999,5.231,5.1307,4.9547,4.9308,4.9221,4.9018,4.9187,4.9796,5.105,5.1014,5.1571,5.3272,5.3056,5.2879,5.3008,5.3251,5.3066,5.2333,5.3078,5.3518,5.3518,5.3518,5.3213,5.2638,5.2401,5.2029,5.1488,5.0202,4.9593,0.0,0.0,0.0,3.6707,0.0,0.0,0.0,0.0,3.6229,0.0,0.0,0.0,3.5114,3.4968,3.4454,3.2876,3.2583,0.0,0.0,3.0687,3.021,3.032,3.1978,3.2764,3.1728,3.3969,3.5429,3.5142,3.8368,4.036,4.036,4.2679,4.3967,4.3967,4.366,4.3515,4.3515,4.3515,4.3515,4.3515,4.3515,4.3515,4.3515,4.3515,4.3515,4.3515,4.3515,4.3515,4.3515,4.3515,4.3515,4.3608,4.4415,4.5186,4.5993,4.6819,4.7626,4.8306,4.8306,4.937,5.1022,5.2637,5.3167,5.3203,5.3203,5.3203,5.3203,5.3203,5.3203,5.3203,5.3203,5.3203,5.3203,5.3203,5.3203,5.3203,5.3182,5.3182,5.301,5.2291,5.3435,5.38,5.1638,5.2488,5.2631,5.0322,5.0017,4.9796,4.9086,4.9627,5.0371,5.115,5.0574,5.1055,5.3298,5.2146,5.1592,5.2285,5.2987,5.3066,5.2333,5.3078,5.3518,5.3518,5.3518,5.3484,5.345,5.2672,5.23,5.2266,5.1488,5.1117,0.0,0.0,4.0141,3.9606,0.0,0.0,0.0,0.0,0.0,0.0,0.0,0.0,0.0,3.4564,3.4027,3.3476,3.3403,3.3109,0.0,3.1054,3.021,3.021,3.1249,3.1838,3.1446,3.1286,3.1605,3.2572,3.3768,3.4694,3.5198,3.9099,4.1298,4.1298,4.2737,4.3515,4.3515,4.3515,4.3515,4.3515,4.3515,4.3515,4.3515,4.3515,4.3515,4.3515,4.3515,4.3515,4.3515,4.3515,4.3515,4.3588,4.4378,4.5186,4.5993,4.6782,4.759,4.8379,4.8967,4.9884,5.0986,5.205,5.2784,5.3203,5.3203,5.3203,5.3203,5.3203,5.3203,5.3203,5.3203,5.3203,5.3203,5.3203,5.3203,5.3371,5.3885,5.3995,5.4224,5.5049,5.566,5.5619,5.4392,5.4606,5.3841,5.0553,5.0085,4.9999,4.9763,5.0371,5.1116,5.186,5.1691,5.2079,5.3307,5.2952,5.2779,5.3022,5.3318,5.3376,5.3078,5.3382,5.3518,5.3518,5.3518,5.3518,5.3518,5.3247,5.3078,5.3078,5.2841,5.2198,4.1662,4.1956,0.0,4.1242,4.0325,0.0,3.9863,0.0,3.7221,0.0,0.0,0.0,0.0,3.5055,3.4504,3.388,3.4027,3.3844,0.0,3.1702,3.0748,2.9879,3.0855,3.1432,3.0993,3.0413,3.0178,3.0515,3.1469,3.2403,3.3192,3.7599,4.0206,4.0517,4.2459,4.3515,4.3515,4.3515,4.3515,4.3515,4.3515,4.3515,4.3515,4.3515,4.3515,4.3515,4.3515,4.3515,4.3515,4.3515,4.3644,4.3975,4.4525,4.5369,4.6397,4.6892,4.7773,4.882,4.939,5.0308,5.1316,5.183,5.2527,5.3203,5.3203,5.3203,5.3203,5.3203,5.3203,5.3203,5.3203,5.3203,5.3203,5.3203,5.3445,5.3775,5.4289,5.462,5.5067,5.5852,5.6018,5.576,5.5027,5.4669,5.3554,5.0899,5.0493,5.0498,5.0503,5.0697,5.1312,5.2586,5.2259,5.2191,5.2972,5.3004,5.3141,5.3415,5.3478,5.3518,5.3518,5.3518,5.3619,5.389,5.3619,5.3619,5.389,5.3619,5.3518,5.3518,5.3518,5.2976]}]]